[[{"header":{"parameterUnit":"m.s-1","parameterCategory":1,"la1":30.6,"la2":28.766,"lo1":-90.7593,"lo2":-88.6598,"dy":0.0162,"dx":0.0183,"nx":116,"ny":114,"refTime":"2023-05-01T12:00:00:Z","depth":0,"parameterNumber":2,"parameterNumberName":"U-component_of_WINDS"},"data":[0.0,0.0,0.0,0.0,0.0,0.0,0.0,0.0,0.0,0.0,0.0,0.0,0.0,0.0,0.0,0.0,0.0,0.0,0.0,0.0,0.0,0.0,0.0,0.0,0.0,0.0,0.0,0.0,0.0,0.0,0.0,0.0,0.0,0.0,0.0,0.0,0.0,0.0,0.0,0.0,0.0,0.0,0.0,0.0,0.0,0.0,0.0,0.0,0.0,0.0,0.0,0.0,0.0,0.0,0.0,0.0,0.0,0.0,0.0,0.0,0.0,0.0,0.0,0.0,0.0,0.0,0.0,0.0,0.0,0.0,0.0,0.0,0.0,0.0,0.0,0.0,0.0,0.0,0.0,0.0,0.0,0.0,0.0,0.0,0.0,0.0,0.0,0.0,0.0,0.0,0.0,0.0,0.0,0.0,0.0,0.0,0.0,0.0,0.0,0.0,0.0,0.0,0.0,0.0,0.0,0.0,0.0,0.0,0.0,0.0,0.0,0.0,0.0,0.0,0.0,0.0,0.0,0.0,0.0,0.0,0.0,0.0,0.0,0.0,0.0,0.0,0.0,0.0,0.0,0.0,0.0,0.0,0.0,0.0,0.0,0.0,0.0,0.0,0.0,0.0,0.0,0.0,0.0,0.0,0.0,0.0,0.0,0.0,0.0,0.0,0.0,0.0,0.0,0.0,0.0,0.0,0.0,0.0,0.0,0.0,0.0,0.0,0.0,0.0,0.0,0.0,0.0,0.0,0.0,0.0,0.0,0.0,0.0,0.0,0.0,0.0,0.0,0.0,0.0,0.0,0.0,0.0,0.0,0.0,0.0,0.0,0.0,0.0,0.0,0.0,0.0,0.0,0.0,0.0,0.0,0.0,0.0,0.0,0.0,0.0,0.0,0.0,0.0,0.0,0.0,0.0,0.0,0.0,0.0,0.0,0.0,0.0,0.0,0.0,0.0,0.0,0.0,0.0,0.0,0.0,0.0,0.0,0.0,0.0,0.0,0.0,0.0,0.0,0.0,0.0,0.0,0.0,0.0,0.0,0.0,0.0,0.0,0.0,0.0,0.0,0.0,0.0,0.0,0.0,0.0,0.0,0.0,0.0,0.0,0.0,0.0,0.0,0.0,0.0,0.0,0.0,0.0,0.0,0.0,0.0,0.0,0.0,0.0,0.0,0.0,0.0,0.0,0.0,0.0,0.0,0.0,0.0,0.0,0.0,0.0,0.0,0.0,0.0,0.0,0.0,0.0,0.0,0.0,0.0,0.0,0.0,0.0,0.0,0.0,0.0,0.0,0.0,0.0,0.0,0.0,0.0,0.0,0.0,0.0,0.0,0.0,0.0,0.0,0.0,0.0,0.0,0.0,0.0,0.0,0.0,0.0,0.0,0.0,0.0,0.0,0.0,0.0,0.0,0.0,0.0,0.0,0.0,0.0,0.0,0.0,0.0,0.0,0.0,0.0,0.0,0.0,0.0,0.0,0.0,0.0,0.0,0.0,0.0,0.0,0.0,0.0,0.0,0.0,0.0,0.0,0.0,0.0,0.0,0.0,0.0,0.0,0.0,0.0,0.0,0.0,0.0,0.0,0.0,0.0,0.0,0.0,0.0,0.0,0.0,0.0,0.0,0.0,0.0,0.0,0.0,0.0,0.0,0.0,0.0,0.0,0.0,0.0,0.0,0.0,0.0,0.0,0.0,0.0,0.0,0.0,0.0,0.0,0.0,0.0,0.0,0.0,0.0,0.0,0.0,0.0,0.0,0.0,0.0,0.0,0.0,0.0,0.0,0.0,0.0,0.0,0.0,0.0,0.0,0.0,0.0,0.0,0.0,0.0,0.0,0.0,0.0,0.0,0.0,0.0,0.0,0.0,0.0,0.0,0.0,0.0,0.0,0.0,0.0,0.0,0.0,0.0,0.0,0.0,0.0,0.0,0.0,0.0,0.0,0.0,0.0,0.0,0.0,0.0,0.0,0.0,0.0,0.0,0.0,0.0,0.0,0.0,0.0,0.0,0.0,0.0,0.0,0.0,0.0,0.0,0.0,0.0,0.0,0.0,0.0,0.0,0.0,0.0,0.0,0.0,0.0,0.0,0.0,0.0,0.0,0.0,0.0,0.0,0.0,0.0,0.0,0.0,0.0,0.0,0.0,0.0,0.0,0.0,0.0,0.0,0.0,0.0,0.0,0.0,0.0,0.0,0.0,0.0,0.0,0.0,0.0,0.0,0.0,0.0,0.0,0.0,0.0,0.0,0.0,0.0,0.0,0.0,0.0,0.0,0.0,0.0,0.0,0.0,0.0,0.0,0.0,0.0,0.0,0.0,0.0,0.0,0.0,0.0,0.0,0.0,0.0,0.0,0.0,0.0,0.0,0.0,0.0,0.0,0.0,0.0,0.0,0.0,0.0,0.0,0.0,0.0,0.0,0.0,0.0,0.0,0.0,0.0,0.0,0.0,0.0,0.0,0.0,0.0,0.0,0.0,0.0,0.0,0.0,0.0,0.0,0.0,0.0,0.0,0.0,0.0,0.0,0.0,0.0,0.0,0.0,0.0,0.0,0.0,0.0,0.0,0.0,0.0,0.0,0.0,0.0,0.0,0.0,0.0,0.0,0.0,0.0,0.0,0.0,0.0,0.0,0.0,0.0,0.0,0.0,0.0,0.0,0.0,0.0,0.0,0.0,0.0,0.0,0.0,0.0,0.0,0.0,0.0,0.0,0.0,0.0,0.0,0.0,0.0,0.0,0.0,0.0,0.0,0.0,0.0,0.0,0.0,0.0,0.0,0.0,0.0,0.0,0.0,0.0,0.0,0.0,0.0,0.0,0.0,0.0,0.0,0.0,0.0,0.0,0.0,0.0,0.0,0.0,0.0,0.0,0.0,0.0,0.0,0.0,0.0,0.0,0.0,0.0,0.0,0.0,0.0,0.0,0.0,0.0,0.0,0.0,0.0,0.0,0.0,0.0,0.0,0.0,0.0,0.0,0.0,0.0,0.0,0.0,0.0,0.0,0.0,0.0,0.0,0.0,0.0,0.0,0.0,0.0,0.0,0.0,0.0,0.0,0.0,0.0,0.0,0.0,0.0,0.0,0.0,0.0,0.0,0.0,0.0,0.0,0.0,0.0,0.0,0.0,0.0,0.0,0.0,0.0,0.0,0.0,0.0,0.0,0.0,0.0,0.0,0.0,0.0,0.0,0.0,0.0,0.0,0.0,0.0,0.0,0.0,0.0,0.0,0.0,0.0,0.0,0.0,0.0,0.0,0.0,0.0,0.0,0.0,0.0,0.0,0.0,0.0,0.0,0.0,0.0,0.0,0.0,0.0,0.0,0.0,0.0,0.0,0.0,0.0,0.0,0.0,0.0,0.0,0.0,0.0,0.0,0.0,0.0,0.0,0.0,0.0,0.0,0.0,0.0,0.0,0.0,0.0,0.0,0.0,0.0,0.0,0.0,0.0,0.0,0.0,0.0,0.0,0.0,0.0,0.0,0.0,0.0,0.0,0.0,0.0,0.0,0.0,0.0,0.0,0.0,0.0,0.0,0.0,0.0,0.0,0.0,0.0,0.0,0.0,0.0,0.0,0.0,0.0,0.0,0.0,0.0,0.0,0.0,0.0,0.0,0.0,0.0,0.0,0.0,0.0,0.0,0.0,0.0,0.0,0.0,0.0,0.0,0.0,0.0,0.0,0.0,0.0,0.0,0.0,0.0,0.0,0.0,0.0,0.0,0.0,0.0,0.0,0.0,0.0,0.0,0.0,0.0,0.0,0.0,0.0,0.0,0.0,0.0,0.0,0.0,0.0,0.0,0.0,0.0,0.0,0.0,0.0,0.0,0.0,0.0,0.0,0.0,0.0,0.0,0.0,0.0,0.0,0.0,0.0,0.0,0.0,0.0,0.0,0.0,0.0,0.0,0.0,0.0,0.0,0.0,0.0,0.0,0.0,0.0,0.0,0.0,0.0,0.0,0.0,0.0,0.0,0.0,0.0,0.0,0.0,0.0,0.0,0.0,0.0,0.0,0.0,0.0,0.0,0.0,0.0,0.0,0.0,0.0,0.0,0.0,0.0,0.0,0.0,0.0,0.0,0.0,0.0,0.0,0.0,0.0,0.0,0.0,0.0,0.0,0.0,0.0,0.0,0.0,0.0,0.0,0.0,0.0,0.0,0.0,0.0,0.0,0.0,0.0,0.0,0.0,0.0,0.0,0.0,0.0,0.0,0.0,0.0,0.0,0.0,0.0,0.0,0.0,0.0,0.0,0.0,0.0,0.0,0.0,0.0,0.0,0.0,0.0,0.0,0.0,0.0,0.0,0.0,0.0,0.0,0.0,0.0,0.0,0.0,0.0,0.0,0.0,0.0,0.0,0.0,0.0,0.0,0.0,0.0,0.0,0.0,0.0,0.0,0.0,0.0,0.0,0.0,0.0,0.0,0.0,0.0,0.0,0.0,0.0,0.0,0.0,0.0,0.0,0.0,0.0,0.0,0.0,0.0,0.0,0.0,0.0,0.0,0.0,0.0,0.0,0.0,0.0,0.0,0.0,0.0,0.0,0.0,0.0,0.0,0.0,0.0,0.0,0.0,0.0,0.0,0.0,0.0,0.0,0.0,0.0,0.0,0.0,0.0,0.0,0.0,0.0,0.0,0.0,0.0,0.0,0.0,0.0,0.0,0.0,0.0,0.0,0.0,0.0,0.0,0.0,0.0,0.0,0.0,0.0,0.0,0.0,0.0,0.0,0.0,0.0,0.0,0.0,0.0,0.0,0.0,0.0,0.0,0.0,0.0,0.0,0.0,0.0,0.0,0.0,0.0,0.0,0.0,0.0,0.0,0.0,0.0,0.0,0.0,0.0,0.0,0.0,0.0,0.0,0.0,0.0,0.0,0.0,0.0,0.0,0.0,0.0,0.0,0.0,0.0,0.0,0.0,0.0,0.0,0.0,0.0,0.0,0.0,0.0,0.0,0.0,0.0,0.0,0.0,0.0,0.0,0.0,0.0,0.0,0.0,0.0,0.0,0.0,0.0,0.0,0.0,0.0,0.0,0.0,0.0,0.0,0.0,0.0,0.0,0.0,0.0,0.0,0.0,0.0,0.0,0.0,0.0,0.0,0.0,0.0,0.0,0.0,0.0,0.0,0.0,0.0,0.0,0.0,0.0,0.0,0.0,0.0,0.0,0.0,0.0,0.0,0.0,0.0,0.0,0.0,0.0,0.0,0.0,0.0,0.0,0.0,0.0,0.0,0.0,0.0,0.0,0.0,0.0,0.0,0.0,0.0,0.0,0.0,0.0,0.0,0.0,0.0,0.0,0.0,0.0,0.0,0.0,0.0,0.0,0.0,0.0,0.0,0.0,0.0,0.0,0.0,0.0,0.0,0.0,0.0,0.0,0.0,0.0,0.0,0.0,0.0,0.0,0.0,0.0,0.0,0.0,0.0,0.0,0.0,0.0,0.0,0.0,0.0,0.0,0.0,0.0,0.0,0.0,0.0,0.0,0.0,0.0,0.0,0.0,0.0,0.0,0.0,0.0,0.0,0.0,0.0,0.0,0.0,0.0,0.0,0.0,0.0,0.0,0.0,0.0,0.0,0.0,0.0,0.0,0.0,0.0,0.0,0.0,0.0,0.0,0.0,0.0,0.0,0.0,0.0,0.0,0.0,0.0,0.0,0.0,0.0,0.0,0.0,0.0,0.0,0.0,0.0,0.0,0.0,0.0,0.0,0.0,0.0,0.0,0.0,0.0,0.0,0.0,0.0,0.0,0.0,0.0,0.0,0.0,0.0,0.0,0.0,0.0,0.0,0.0,0.0,0.0,0.0,0.0,0.0,0.0,0.0,0.0,0.0,0.0,0.0,0.0,0.0,0.0,0.0,0.0,0.0,0.0,0.0,0.0,0.0,0.0,0.0,0.0,0.0,0.0,0.0,0.0,0.0,0.0,0.0,0.0,0.0,0.0,0.0,0.0,0.0,0.0,0.0,0.0,0.0,0.0,0.0,0.0,0.0,0.0,0.0,0.0,0.0,0.0,0.0,0.0,0.0,0.0,0.0,0.0,0.0,0.0,0.0,0.0,0.0,0.0,0.0,0.0,0.0,0.0,0.0,0.0,0.0,0.0,0.0,1.7373,0.0,0.0,0.0,0.0,0.0,0.0,0.0,0.0,0.0,0.0,0.0,0.0,0.0,0.0,0.0,0.0,0.0,0.0,0.0,0.0,0.0,0.0,0.0,0.0,0.0,0.0,0.0,0.0,0.0,0.0,0.0,0.0,0.0,0.0,0.0,0.0,0.0,0.0,0.0,0.0,0.0,0.0,0.0,0.0,0.0,0.0,0.0,0.0,0.0,0.0,0.0,0.0,0.0,0.0,0.0,0.0,0.0,0.0,0.0,0.0,0.0,0.0,0.0,0.0,0.0,0.0,0.0,0.0,0.0,0.0,0.0,0.0,0.0,0.0,0.0,0.0,0.0,0.0,0.0,0.0,0.0,0.0,0.0,0.0,0.0,0.0,0.0,0.0,0.0,0.0,0.0,0.0,0.0,0.0,0.0,0.0,0.0,0.0,0.0,0.0,0.0,0.0,0.0,0.0,0.0,0.0,0.0,0.0,0.0,0.0,0.0,0.0,0.0,0.0,0.0,0.0,1.8578,0.0,0.0,0.0,0.0,0.0,0.0,0.0,0.0,0.0,0.0,0.0,0.0,0.0,0.0,0.0,0.0,0.0,0.0,0.0,0.0,0.0,0.0,0.0,0.0,0.0,0.0,0.0,0.0,0.0,0.0,0.0,0.0,0.0,0.0,0.0,0.0,0.0,0.0,0.0,0.0,0.0,0.0,0.0,0.0,0.0,0.0,0.0,0.0,0.0,0.0,0.0,0.0,0.0,0.0,0.0,0.0,0.0,0.0,0.0,0.0,0.0,0.0,0.0,0.0,0.0,0.0,0.0,0.0,0.0,0.0,0.0,0.0,0.0,0.0,0.0,0.0,0.0,0.0,0.0,0.0,0.0,0.0,0.0,0.0,0.0,0.0,0.0,0.0,0.0,0.0,0.0,0.0,0.0,0.0,0.0,0.0,0.0,0.0,0.0,0.0,0.0,0.0,0.0,0.0,0.0,0.0,0.0,0.0,2.262,2.3037,2.348,2.4404,2.3786,2.2014,2.2532,2.107,1.8532,0.0,0.0,0.0,0.0,0.0,0.0,0.0,0.0,0.0,0.0,0.0,0.0,0.0,0.0,0.0,0.0,0.0,0.0,0.0,0.0,0.0,0.0,0.0,0.0,0.0,0.0,0.0,0.0,0.0,0.0,0.0,0.0,0.0,0.0,0.0,0.0,0.0,0.0,0.0,0.0,0.0,0.0,0.0,0.0,0.0,0.0,0.0,0.0,0.0,0.0,0.0,0.0,0.0,0.0,0.0,0.0,0.0,0.0,0.0,0.0,0.0,0.0,0.0,0.0,0.0,0.0,0.0,0.0,0.0,0.0,0.0,0.0,0.0,0.0,0.0,0.0,0.0,0.0,0.0,0.0,0.0,0.0,0.0,0.0,0.0,0.0,0.0,1.7144,1.651,0.0,0.0,0.0,0.0,0.0,0.0,0.0,0.0,0.0,0.0,0.0,0.0,0.0,1.8978,2.1742,2.5309,2.5935,2.3647,2.6098,2.6551,2.5282,2.6401,2.7265,2.7832,2.6963,0.0,2.0295,2.2101,0.0,0.0,0.0,0.0,0.0,0.0,0.0,0.0,0.0,0.0,0.0,0.0,0.0,0.0,0.0,0.0,0.0,0.0,0.0,0.0,0.0,0.0,0.0,0.0,0.0,0.0,0.0,0.0,0.0,0.0,0.0,0.0,0.0,0.0,0.0,0.0,0.0,0.0,0.0,0.0,0.0,0.0,0.0,0.0,0.0,0.0,0.0,0.0,0.0,0.0,0.0,0.0,0.0,0.0,0.0,0.0,0.0,0.0,0.0,0.0,0.0,0.0,0.0,0.0,0.0,0.0,0.0,0.0,0.0,0.0,0.0,0.0,0.0,0.0,0.0,0.0,0.0,0.0,0.0,0.0,0.0,0.0,0.0,0.0,0.0,1.6807,1.7582,1.6697,1.78,1.7955,0.0,0.0,0.0,0.0,0.0,0.0,0.0,0.0,0.0,2.1321,2.1278,2.2493,2.5033,2.7381,2.7625,2.5824,2.7024,2.7372,2.6981,2.7785,2.8424,2.8869,2.8521,2.6983,2.4741,2.5026,2.4284,2.3046,0.0,0.0,0.0,0.0,2.1891,2.2707,0.0,0.0,0.0,0.0,0.0,0.0,0.0,0.0,0.0,0.0,0.0,0.0,0.0,0.0,0.0,0.0,0.0,0.0,0.0,0.0,0.0,0.0,0.0,0.0,0.0,0.0,0.0,0.0,0.0,0.0,0.0,0.0,0.0,0.0,0.0,0.0,0.0,0.0,0.0,0.0,0.0,0.0,0.0,0.0,0.0,0.0,0.0,0.0,0.0,0.0,0.0,0.0,0.0,0.0,0.0,0.0,0.0,0.0,0.0,0.0,0.0,0.0,0.0,0.0,0.0,0.0,0.0,0.0,0.0,0.0,0.0,0.0,0.0,0.0,0.0,0.0,0.0,1.7437,1.8222,1.7349,1.838,1.8632,0.0,0.0,0.0,0.0,0.0,0.0,2.2041,2.2312,2.301,2.4263,2.4559,2.5665,2.766,2.8771,2.879,2.7707,2.7948,2.8277,2.8646,2.9052,2.9226,2.9255,2.9457,2.9187,2.8568,2.7528,2.586,2.405,2.4665,2.44,2.3584,2.3132,2.3669,2.4646,0.0,0.0,0.0,0.0,0.0,0.0,0.0,0.0,0.0,0.0,0.0,0.0,0.0,0.0,0.0,0.0,0.0,0.0,0.0,0.0,0.0,0.0,0.0,0.0,0.0,0.0,0.0,0.0,0.0,0.0,0.0,0.0,0.0,0.0,0.0,0.0,0.0,0.0,0.0,0.0,0.0,0.0,0.0,0.0,0.0,0.0,0.0,0.0,0.0,0.0,0.0,0.0,0.0,0.0,0.0,0.0,0.0,0.0,0.0,0.0,0.0,0.0,0.0,0.0,0.0,0.0,0.0,0.0,0.0,0.0,0.0,0.0,0.0,0.0,0.0,0.0,0.0,0.0,0.0,1.909,1.9055,0.0,0.0,0.0,0.0,2.1784,2.3256,2.3723,2.2968,2.597,2.7015,2.5466,2.6534,2.7634,2.8714,2.9902,2.994,2.8829,2.9921,3.0424,3.0374,3.0404,3.0402,3.0419,3.0439,3.0411,3.0258,2.8599,2.7406,2.6614,2.6583,2.608,2.5173,2.3514,2.3952,2.524,0.0,0.0,0.0,0.0,0.0,0.0,0.0,0.0,0.0,0.0,0.0,0.0,0.0,0.0,0.0,0.0,0.0,0.0,0.0,0.0,0.0,0.0,0.0,0.0,0.0,0.0,0.0,0.0,0.0,0.0,0.0,0.0,0.0,0.0,0.0,0.0,0.0,0.0,0.0,0.0,0.0,0.0,0.0,0.0,0.0,0.0,0.0,0.0,0.0,0.0,0.0,0.0,0.0,0.0,0.0,0.0,0.0,0.0,0.0,0.0,0.0,0.0,0.0,0.0,0.0,0.0,0.0,0.0,0.0,0.0,0.0,0.0,0.0,0.0,0.0,0.0,0.0,0.0,0.0,2.1385,2.2043,0.0,2.0751,2.1429,2.2396,2.347,2.5014,2.6022,2.6274,2.7388,2.8005,2.7951,2.8357,2.9013,2.9892,3.0317,3.0317,2.9941,3.1081,3.1804,3.2108,3.2459,3.2223,3.153,3.1357,3.0945,3.0389,2.9781,2.9071,2.8345,2.8363,2.786,2.702,2.6409,2.692,2.7868,0.0,0.0,0.0,0.0,0.0,0.0,0.0,0.0,0.0,0.0,0.0,0.0,0.0,0.0,0.0,0.0,0.0,0.0,0.0,0.0,0.0,0.0,0.0,0.0,0.0,0.0,0.0,0.0,0.0,0.0,0.0,0.0,0.0,0.0,0.0,0.0,0.0,0.0,0.0,0.0,0.0,0.0,1.4134,0.0,0.0,0.0,0.0,0.0,0.0,0.0,0.0,0.0,0.0,0.0,0.0,0.0,0.0,0.0,0.0,0.0,0.0,0.0,0.0,0.0,0.0,0.0,0.0,0.0,0.0,0.0,0.0,0.0,0.0,0.0,0.0,0.0,0.0,0.0,2.2042,2.3995,2.4474,2.443,2.3908,2.4605,2.5335,2.5945,2.7536,2.8745,2.931,2.9566,2.9852,3.0221,3.0441,3.0524,3.0469,3.1058,3.1193,3.0914,3.1976,3.2659,3.3003,3.3371,3.3115,3.2372,3.2179,3.1614,3.0856,3.1164,3.0802,2.9997,2.9429,2.8878,2.8405,2.8376,2.9284,3.0501,0.0,0.0,0.0,0.0,0.0,0.0,0.0,0.0,0.0,0.0,0.0,0.0,0.0,0.0,0.0,0.0,0.0,0.0,0.0,0.0,0.0,0.0,0.0,0.0,0.0,0.0,0.0,0.0,0.0,0.0,0.0,0.0,0.0,0.0,0.0,0.0,0.0,0.0,0.0,0.0,0.0,0.0,1.6407,0.0,0.0,0.0,0.0,0.0,0.0,0.0,0.0,0.0,0.0,0.0,0.0,0.0,0.0,0.0,0.0,0.0,0.0,0.0,0.0,0.0,0.0,0.0,0.0,0.0,0.0,0.0,0.0,0.0,0.0,0.0,0.0,0.0,2.1701,2.3937,2.5831,2.6773,2.6165,2.632,2.7985,2.7408,2.7633,2.9251,3.0914,3.1842,3.1831,3.258,3.2735,3.2184,3.2717,3.2204,3.0525,3.2181,3.2571,3.1761,3.2629,3.3041,3.3037,3.3075,3.3044,3.2949,3.2949,3.2487,3.1795,3.2659,3.2505,3.1564,2.9871,2.9259,2.9308,2.9228,3.0775,3.291,0.0,0.0,0.0,0.0,0.0,0.0,0.0,0.0,0.0,0.0,0.0,0.0,0.0,0.0,0.0,0.0,0.0,0.0,0.0,0.0,0.0,0.0,0.0,0.0,0.0,0.0,0.0,0.0,0.0,0.0,0.0,0.0,0.0,0.0,0.0,0.0,0.0,0.0,0.0,0.0,0.0,0.0,1.7658,0.0,0.0,0.0,0.0,0.0,0.0,0.0,0.0,0.0,0.0,0.0,0.0,0.0,0.0,0.0,0.0,0.0,0.0,0.0,0.0,0.0,0.0,0.0,0.0,0.0,0.0,0.0,0.0,0.0,0.0,0.0,0.0,2.4105,2.4348,2.5026,2.6275,2.8366,2.8964,2.9137,2.8977,2.9859,3.0625,3.109,3.2086,3.2677,3.2666,3.2871,3.3211,3.3667,3.3237,3.3045,3.314,3.2993,3.282,3.2589,3.3455,3.3878,3.3885,3.452,3.4462,3.3833,3.3833,3.3353,3.2583,3.2827,3.2788,3.2526,3.2093,3.1919,3.1884,3.1927,3.2338,3.2827,0.0,0.0,0.0,0.0,0.0,0.0,0.0,0.0,0.0,0.0,0.0,0.0,0.0,0.0,0.0,0.0,0.0,0.0,0.0,0.0,0.0,0.0,0.0,0.0,0.0,0.0,0.0,0.0,0.0,0.0,0.0,0.0,0.0,0.0,0.0,0.0,0.0,0.0,0.0,0.0,0.0,0.0,1.958,1.8236,1.7493,1.7115,1.6858,1.673,1.6534,1.5657,0.0,0.0,0.0,0.0,0.0,0.0,0.0,0.0,0.0,0.0,0.0,0.0,0.0,0.0,0.0,0.0,0.0,0.0,0.0,0.0,0.0,0.0,0.0,0.0,2.6191,2.8189,2.8492,2.8299,2.882,3.0665,3.1333,3.1448,3.0945,3.2416,3.3218,3.2832,3.3905,3.4427,3.4022,3.4019,3.4293,3.4787,3.4307,3.4045,3.4032,3.4,3.3814,3.3449,3.4334,3.4737,3.4757,3.5276,3.5218,0.0,3.5103,3.4564,3.3506,3.4199,3.4083,0.0,0.0,0.0,0.0,0.0,3.3814,3.341,0.0,0.0,0.0,0.0,0.0,0.0,0.0,0.0,0.0,0.0,0.0,0.0,0.0,0.0,0.0,0.0,0.0,0.0,0.0,0.0,0.0,0.0,0.0,0.0,0.0,0.0,0.0,0.0,0.0,0.0,0.0,0.0,0.0,0.0,0.0,0.0,0.0,0.0,0.0,0.0,0.0,0.0,2.1576,2.0301,1.9462,1.895,1.8851,1.8107,1.716,1.7011,0.0,0.0,0.0,0.0,0.0,0.0,0.0,0.0,0.0,0.0,0.0,0.0,0.0,0.0,0.0,0.0,0.0,0.0,0.0,0.0,0.0,0.0,0.0,0.0,2.9804,3.2224,3.3146,3.2724,3.2586,3.3272,3.3517,3.3585,3.3487,3.4913,3.5473,3.453,3.5919,3.6389,3.5458,0.0,0.0,0.0,0.0,3.5012,3.3993,3.4974,3.5122,3.4353,3.5141,3.5493,3.5493,3.5493,3.5493,3.5532,3.6257,3.5718,3.4449,3.5949,3.5738,3.4391,3.3526,3.366,3.443,3.5218,3.5053,3.441,0.0,0.0,0.0,0.0,0.0,0.0,0.0,0.0,0.0,0.0,0.0,0.0,0.0,0.0,0.0,0.0,0.0,0.0,0.0,0.0,0.0,0.0,0.0,0.0,0.0,0.0,0.0,0.0,0.0,0.0,0.0,0.0,0.0,0.0,0.0,0.0,0.0,0.0,0.0,0.0,0.0,0.0,2.1764,2.1483,2.1284,2.1031,1.9907,2.011,2.0621,1.8967,1.8713,1.8802,1.6906,0.0,0.0,0.0,0.0,0.0,0.0,0.0,0.0,0.0,0.0,0.0,0.0,0.0,0.0,0.0,0.0,0.0,0.0,0.0,0.0,2.9907,3.1552,3.3198,3.534,3.5615,3.5415,3.4917,3.6077,3.6619,3.5919,3.6826,3.7083,3.6195,3.6504,3.6351,3.5534,3.5501,0.0,3.5493,3.5493,3.5378,3.5166,3.5378,3.543,3.5257,0.0,0.0,3.5493,3.5493,3.5493,3.5526,3.5661,3.5565,3.5276,3.5603,3.593,3.6142,3.5334,3.5103,3.5276,3.5449,3.5391,3.5174,0.0,0.0,0.0,0.0,0.0,0.0,0.0,0.0,0.0,0.0,0.0,0.0,0.0,0.0,0.0,0.0,0.0,0.0,0.0,0.0,0.0,0.0,0.0,0.0,0.0,0.0,0.0,0.0,0.0,0.0,0.0,0.0,0.0,0.0,0.0,0.0,0.0,0.0,0.0,0.0,0.0,0.0,2.2811,2.2891,2.2891,2.2791,2.2092,2.2089,2.2172,2.0811,2.0418,2.0195,1.8409,1.8217,1.828,0.0,0.0,0.0,0.0,0.0,0.0,0.0,0.0,0.0,0.0,0.0,0.0,0.0,0.0,2.586,0.0,0.0,3.083,3.3306,3.4423,3.541,3.6595,3.7144,3.7232,3.6615,3.728,3.7624,3.7185,3.8012,3.8116,3.7089,3.7501,3.7198,3.5834,3.5801,3.5665,3.5273,3.5737,3.5998,3.5998,3.6498,3.6757,3.6757,3.6757,3.6757,3.6757,3.6757,3.6757,3.6776,3.7219,3.7161,3.6719,3.6276,3.6603,3.7276,3.643,3.6103,3.6065,3.5661,3.5757,3.6045,0.0,0.0,0.0,0.0,0.0,0.0,0.0,0.0,0.0,0.0,0.0,0.0,0.0,0.0,0.0,0.0,0.0,0.0,0.0,0.0,0.0,0.0,0.0,0.0,0.0,0.0,0.0,0.0,0.0,0.0,0.0,0.0,0.0,0.0,0.0,0.0,0.0,0.0,0.0,0.0,0.0,0.0,2.4428,2.4596,2.4365,2.3935,2.3835,2.3305,2.2592,2.2073,2.149,2.0851,1.9908,1.974,1.9556,1.7931,1.7989,0.0,0.0,0.0,0.0,0.0,0.0,0.0,0.0,0.0,2.4506,2.5195,2.73,2.9569,3.1459,3.3061,3.4567,3.6022,3.6875,3.74,3.7566,3.806,3.8328,3.8143,3.8146,3.814,3.8137,3.8842,3.882,3.7666,3.8368,3.8016,3.614,3.6281,3.6081,3.5285,3.6192,3.6716,3.6747,3.7567,3.7959,3.8007,3.8007,3.8007,3.8007,3.8007,3.8007,3.8046,3.8738,3.8642,3.795,3.7238,3.7469,3.8161,3.7296,3.7065,3.7103,3.6295,3.6411,3.6949,0.0,0.0,0.0,0.0,0.0,0.0,0.0,0.0,0.0,0.0,0.0,0.0,0.0,0.0,0.0,0.0,0.0,0.0,0.0,0.0,0.0,0.0,0.0,0.0,0.0,0.0,0.0,0.0,0.0,0.0,0.0,0.0,0.0,0.0,0.0,0.0,0.0,0.0,0.0,0.0,0.0,0.0,2.6656,2.6879,2.5638,2.3737,2.3223,2.2543,2.1897,2.186,2.1506,2.1198,2.1669,2.2014,2.1799,1.9677,0.0,1.9094,1.7055,1.7514,0.0,2.1601,2.2766,2.4093,0.0,0.0,3.0065,3.0108,3.2183,3.3847,3.3355,3.4542,3.5841,3.6677,3.6939,3.7515,3.8864,3.8646,3.8568,3.9226,3.9301,3.9306,3.9312,3.952,3.9276,3.8346,3.8501,3.7898,3.6287,3.6863,3.6923,3.6177,3.6973,3.7471,3.7647,3.7778,3.7881,3.8007,3.8007,3.8007,3.8007,3.8007,3.8007,3.8007,3.8104,3.8084,3.7988,3.7892,3.8373,3.9065,3.818,3.8334,3.8892,3.8046,3.7777,3.7853,0.0,0.0,0.0,0.0,0.0,0.0,0.0,0.0,0.0,0.0,0.0,0.0,0.0,0.0,0.0,0.0,0.0,0.0,0.0,0.0,0.0,0.0,0.0,0.0,0.0,0.0,0.0,0.0,0.0,0.0,0.0,0.0,0.0,0.0,0.0,0.0,0.0,0.0,0.0,0.0,0.0,0.0,2.7197,2.6839,2.5277,2.3177,2.2927,2.2132,0.0,0.0,2.0477,2.06,2.137,2.1489,2.1145,2.0205,2.005,0.0,2.0501,0.0,0.0,0.0,2.7131,2.8838,3.0375,3.16,3.2675,3.3595,3.5007,3.6268,3.6821,3.7398,3.7872,0.0,3.8212,3.8447,3.9099,3.8529,3.8189,3.8525,3.8562,3.8808,3.9438,3.9604,3.9475,3.8969,3.905,3.8583,3.7368,3.7622,3.7493,3.6784,3.7659,3.8186,3.8251,3.8842,3.9182,3.9216,3.9339,3.9407,3.9407,3.9435,3.945,3.945,3.945,3.945,3.9411,3.895,3.9546,4.0623,3.9277,3.9585,4.0527,3.8681,3.8315,3.8757,0.0,0.0,0.0,0.0,0.0,0.0,0.0,0.0,0.0,0.0,0.0,0.0,0.0,0.0,0.0,0.0,0.0,0.0,0.0,0.0,0.0,0.0,0.0,0.0,0.0,0.0,0.0,0.0,0.0,0.0,0.0,0.0,0.0,0.0,0.0,0.0,0.0,0.0,0.0,0.0,0.0,0.0,2.7297,2.6364,2.4464,2.2264,2.2247,2.1205,0.0,0.0,1.9052,1.9249,2.001,2.003,1.9815,1.982,2.0072,2.0807,2.2787,0.0,0.0,2.8387,3.0758,3.2798,3.3642,3.443,3.5379,3.6846,3.7379,3.7866,3.876,3.8867,3.8767,3.8711,3.9101,3.9305,3.9138,3.8599,3.8154,3.7931,3.7708,3.7955,3.8958,3.9352,3.9458,3.9265,3.9343,3.8998,3.8125,3.829,3.8083,3.7405,3.8517,3.9165,3.9211,3.9914,4.0437,4.0727,4.0635,4.0614,4.0705,4.0556,4.0489,4.0489,4.0489,4.0489,4.045,3.9873,4.0489,4.1681,4.045,4.0873,4.1931,4.0085,3.9642,3.9988,0.0,0.0,0.0,0.0,0.0,0.0,0.0,0.0,0.0,0.0,0.0,0.0,0.0,0.0,0.0,0.0,0.0,0.0,0.0,0.0,0.0,0.0,0.0,0.0,0.0,0.0,0.0,0.0,0.0,0.0,0.0,0.0,0.0,0.0,0.0,0.0,0.0,0.0,0.0,0.0,0.0,0.0,2.7244,2.5863,2.351,2.0966,2.0883,0.0,0.0,0.0,1.721,1.6995,1.7614,1.8007,0.0,1.8336,1.9145,0.0,0.0,0.0,2.7398,3.0073,3.254,3.4946,3.7386,3.8436,3.9184,4.0095,3.9612,3.8776,3.7904,3.7747,3.7728,3.7747,3.9039,3.9838,3.9185,3.9082,3.8767,3.7986,3.7209,3.7071,0.0,3.8665,3.9129,3.911,3.9101,3.8792,3.8047,3.8726,3.882,3.8091,3.9687,4.06,4.0722,4.0766,4.1302,4.2329,4.1468,4.1218,4.1437,4.079,4.0489,4.0489,4.0489,4.0489,4.0489,4.0469,4.0989,4.1797,4.1739,4.2277,4.3047,4.297,4.2431,4.172,0.0,0.0,0.0,0.0,0.0,0.0,0.0,0.0,0.0,0.0,0.0,0.0,0.0,0.0,0.0,0.0,0.0,0.0,0.0,0.0,0.0,0.0,0.0,0.0,0.0,0.0,0.0,0.0,0.0,0.0,0.0,0.0,0.0,0.0,0.0,0.0,0.0,0.0,0.0,0.0,0.0,0.0,2.6673,2.4278,2.2074,1.9991,0.0,0.0,0.0,0.0,0.0,1.6209,1.6983,0.0,0.0,1.9023,2.0843,2.2989,2.5418,0.0,3.1283,3.3348,3.5287,3.7229,3.9183,3.9807,4.0048,4.0327,3.8414,3.6612,3.63,3.5328,3.4939,3.6051,3.8035,3.936,3.9138,3.9602,3.925,3.732,3.7811,0.0,0.0,0.0,0.0,3.9064,3.9101,3.8998,3.8819,3.961,3.9974,3.977,4.0831,4.1417,4.148,4.1507,4.1691,4.2058,4.1863,4.1639,4.1437,4.18,4.1756,4.1393,4.197,4.222,4.222,4.222,4.2701,4.3412,4.2874,4.3162,4.3835,4.3297,4.3275,4.3442,0.0,0.0,0.0,0.0,0.0,0.0,0.0,0.0,0.0,0.0,0.0,0.0,0.0,0.0,0.0,0.0,0.0,0.0,0.0,0.0,0.0,0.0,0.0,0.0,0.0,0.0,0.0,0.0,0.0,0.0,0.0,0.0,0.0,0.0,0.0,0.0,0.0,0.0,0.0,0.0,0.0,0.0,2.4083,2.1671,1.9789,0.0,0.0,0.0,0.0,0.0,0.0,0.0,0.0,1.7773,1.9111,2.0153,2.2926,2.6151,2.8393,3.174,3.4944,3.6356,3.7978,3.9491,4.0568,4.0364,3.9844,3.9565,3.6642,3.4222,3.4476,3.2691,3.189,3.4179,3.607,3.7598,3.8544,3.9138,3.9027,3.771,3.8226,3.8257,0.0,0.0,0.0,3.9064,3.9388,3.9592,3.963,4.042,4.0921,4.0963,4.1742,4.2164,4.2164,4.2192,4.2221,4.2221,4.2438,4.2413,4.2172,4.2543,4.2527,4.2264,4.2838,4.3104,4.3104,4.3104,4.3566,4.4239,4.372,4.4047,4.4701,4.4182,4.4352,4.4713,0.0,0.0,0.0,0.0,0.0,0.0,0.0,0.0,0.0,0.0,0.0,0.0,0.0,0.0,0.0,0.0,0.0,0.0,0.0,0.0,0.0,0.0,0.0,0.0,0.0,0.0,0.0,0.0,0.0,0.0,0.0,0.0,0.0,0.0,0.0,0.0,0.0,0.0,0.0,0.0,0.0,0.0,1.9891,1.8318,0.0,0.0,0.0,0.0,0.0,0.0,0.0,0.0,0.0,1.9139,2.1918,2.1881,2.5476,2.9791,3.133,3.4803,3.8174,3.8999,4.0391,4.156,4.1505,4.0243,3.8813,3.7949,3.442,3.1737,0.0,0.0,2.8856,3.225,3.3585,3.5103,3.7662,3.8106,3.8404,0.0,0.0,0.0,0.0,0.0,0.0,3.9231,0.0,4.0431,4.0452,4.1223,4.1649,4.1649,4.2433,4.2853,4.2853,4.2853,4.2853,4.2872,4.3166,4.3371,4.3491,4.3028,4.291,4.3075,4.3184,4.322,4.322,4.3239,4.3682,4.4374,4.4374,4.4874,4.5622,4.5622,4.5603,4.5488,0.0,0.0,0.0,0.0,0.0,0.0,0.0,0.0,0.0,0.0,0.0,0.0,0.0,0.0,0.0,0.0,0.0,0.0,0.0,0.0,0.0,0.0,0.0,0.0,0.0,0.0,0.0,0.0,0.0,0.0,0.0,0.0,0.0,0.0,0.0,0.0,0.0,0.0,0.0,0.0,0.0,0.0,1.9281,0.0,0.0,0.0,0.0,0.0,0.0,0.0,0.0,0.0,0.0,2.2502,2.4331,2.738,3.0504,3.3469,3.5651,3.8396,4.0659,4.0665,4.099,4.1138,4.0498,3.9559,3.8232,3.6279,3.2103,2.9079,0.0,0.0,0.0,3.2307,3.5168,0.0,3.9491,4.0802,0.0,4.0188,0.0,4.1096,3.9885,4.0467,0.0,0.0,4.0614,4.0674,4.1263,4.2043,4.2477,4.2471,4.3287,4.3689,4.3689,4.3689,4.3689,4.3689,4.3781,4.3718,4.3529,4.398,4.4078,4.3923,4.4592,4.4879,4.4879,4.4934,4.5066,4.5276,4.5329,4.5464,4.5673,4.5668,4.5719,4.5715,0.0,0.0,0.0,0.0,0.0,0.0,0.0,0.0,0.0,0.0,0.0,0.0,0.0,0.0,0.0,0.0,0.0,0.0,0.0,0.0,0.0,0.0,0.0,0.0,0.0,0.0,0.0,0.0,0.0,0.0,0.0,0.0,0.0,0.0,0.0,0.0,0.0,0.0,0.0,0.0,0.0,0.0,0.0,0.0,0.0,0.0,0.0,0.0,0.0,0.0,0.0,2.3311,2.5088,2.7025,2.9101,3.1616,0.0,3.7038,3.863,4.0812,4.2526,4.2038,4.1852,4.1217,3.8969,3.7532,3.5717,3.2286,2.8455,0.0,0.0,0.0,0.0,0.0,0.0,0.0,3.8377,4.017,4.1107,0.0,4.2038,0.0,4.1046,4.1661,4.211,0.0,4.1699,4.1649,4.2087,4.2878,4.3324,4.333,4.3751,4.4005,4.4005,4.4005,4.4005,4.4005,4.4005,4.3938,4.3879,4.4461,4.4645,4.4629,0.0,4.5457,4.5513,4.5568,4.5586,4.5622,4.5671,4.569,4.5709,4.5684,4.5715,4.5765,0.0,0.0,0.0,0.0,0.0,0.0,0.0,0.0,0.0,0.0,0.0,0.0,0.0,0.0,0.0,0.0,0.0,0.0,0.0,0.0,0.0,0.0,0.0,0.0,0.0,0.0,0.0,0.0,0.0,0.0,0.0,0.0,0.0,0.0,0.0,0.0,0.0,0.0,0.0,0.0,0.0,0.0,0.0,0.0,0.0,0.0,0.0,0.0,0.0,0.0,2.4473,2.6968,2.8893,3.1795,3.4642,3.5324,3.7745,4.0299,4.0888,4.2528,4.3844,4.2971,4.2495,4.1249,3.7276,3.4911,3.2292,2.7805,0.0,2.3508,2.5467,2.3949,2.4024,2.905,0.0,3.247,3.6445,3.8321,3.9908,4.1545,4.2477,4.2712,4.2001,4.2532,4.2965,4.2965,4.2965,4.2965,4.2965,4.3621,4.4005,4.4005,4.4005,4.4005,4.4005,4.4005,4.4005,4.4005,4.4005,4.4091,4.4336,4.4591,4.4857,4.5125,0.0,0.0,4.5457,4.555,4.5586,4.5586,4.5668,4.5703,4.5706,4.57,4.5696,4.5731,0.0,0.0,0.0,0.0,0.0,0.0,0.0,0.0,0.0,0.0,0.5603,0.5821,0.0,0.0,0.0,0.0,0.0,0.0,0.0,0.0,0.0,0.0,0.0,0.0,0.0,0.0,0.0,0.0,0.0,0.0,0.0,0.0,0.0,0.0,0.0,0.0,0.0,0.0,0.0,0.0,0.0,0.0,0.0,0.0,0.0,0.0,0.0,0.0,0.0,0.0,2.6365,2.9846,3.2326,3.5009,3.7632,3.9774,4.1246,4.2443,4.3567,4.4146,4.4112,4.2791,4.1501,3.9607,3.6017,3.2892,0.0,0.0,0.0,2.2886,2.5964,2.567,2.6578,3.1492,0.0,0.0,0.0,0.0,4.0849,0.0,0.0,0.0,0.0,0.0,0.0,0.0,0.0,4.3788,4.3788,4.3931,4.4005,4.4005,4.4005,4.4005,4.4005,4.4005,4.4005,4.4005,4.4005,4.4158,4.4468,4.464,4.4846,4.5125,4.5298,0.0,4.5277,4.5438,4.5495,4.5457,4.5632,4.5715,4.5765,4.5771,4.5786,4.5786,0.0,0.0,0.0,0.0,0.0,0.0,0.0,0.442,0.4533,0.5497,0.5546,0.5506,0.5537,0.586,0.0,0.0,0.0,0.0,0.0,0.0,0.0,0.0,0.0,0.0,0.0,0.0,0.0,0.0,0.0,0.0,0.0,0.0,0.0,0.0,0.0,0.0,0.0,0.0,0.0,0.0,0.0,0.0,0.0,0.0,0.0,0.0,0.0,0.0,0.0,0.0,2.4563,2.9083,3.3293,3.6522,3.9076,4.0864,4.2049,4.312,4.4543,4.4695,4.425,4.3174,4.12,3.8311,3.3696,0.0,0.0,0.0,0.0,2.1411,2.3854,0.0,0.0,0.0,0.0,0.0,0.0,0.0,0.0,0.0,0.0,0.0,0.0,0.0,0.0,0.0,0.0,4.4061,4.4005,4.4005,4.4005,4.4005,4.4005,4.4005,4.4005,4.4055,4.4085,4.4085,4.4147,4.4237,4.4401,4.4659,4.4821,4.4943,4.5213,0.0,4.5317,4.5458,4.5495,4.5513,4.5684,4.5765,4.5795,4.5786,4.58,4.5814,0.0,0.0,0.0,0.0,0.0,0.0,0.0,0.4486,0.4546,0.5511,0.5328,0.5151,0.5304,0.5357,0.5403,0.0,0.0,0.0,0.0,0.0,0.0,0.0,0.0,0.0,0.0,0.0,0.0,0.0,0.0,0.0,0.0,0.0,0.0,0.0,0.0,0.0,0.0,0.0,0.0,0.0,0.0,0.0,0.0,0.0,0.0,0.0,0.0,0.0,0.0,0.0,2.2066,2.6289,3.1655,3.5803,3.891,3.9965,4.1435,4.3037,4.4534,4.4824,4.4449,4.3372,4.0746,3.7024,3.1797,2.8274,0.0,0.0,1.9843,2.0204,2.1816,0.0,0.0,0.0,0.0,0.0,0.0,0.0,0.0,0.0,0.0,0.0,0.0,0.0,0.0,0.0,0.0,0.0,4.4005,4.4023,4.4023,4.4036,4.4023,4.4055,4.4067,4.4135,4.4214,4.4214,4.4255,4.4314,4.4344,4.4613,4.4789,4.4846,4.5148,0.0,0.0,4.5457,4.5513,4.5586,4.5719,4.58,4.5795,4.5786,4.58,4.5814,0.0,0.0,0.0,0.0,0.0,0.0,0.0,0.4323,0.4614,0.4785,0.4775,0.4814,0.5022,0.5207,0.5311,0.0,0.0,0.0,0.0,0.0,0.0,0.0,0.0,0.0,0.0,0.0,0.0,0.0,0.0,0.0,0.0,0.0,0.0,0.0,0.0,0.0,0.0,0.0,0.0,0.0,0.0,0.0,0.0,0.0,0.0,0.0,0.0,0.0,0.0,0.0,0.0,2.1803,2.5981,3.1321,3.6215,3.7044,0.0,0.0,4.3825,4.4748,4.4819,4.2748,3.932,3.5433,3.1568,0.0,0.0,2.1282,2.0289,2.027,2.1826,2.2809,0.0,0.0,0.0,0.0,0.0,0.0,0.0,0.0,0.0,0.0,0.0,0.0,0.0,0.0,0.0,0.0,4.4005,4.4116,4.4178,4.4195,4.4178,4.4209,4.4285,4.4214,4.4244,4.4285,4.4285,4.4344,4.4383,4.4551,4.4745,4.4991,4.5148,0.0,0.0,4.5419,4.5476,4.5438,4.5632,4.575,4.5795,4.5786,4.58,4.58,0.0,0.0,0.0,0.0,0.0,0.0,0.4325,0.4131,0.4203,0.4961,0.5196,0.5177,0.4851,0.5752,0.5932,0.0,0.0,0.0,0.0,0.0,0.0,0.0,0.0,0.0,0.0,0.0,0.0,0.0,0.0,0.0,0.0,0.0,0.0,0.0,0.0,0.0,0.0,0.0,0.0,0.0,0.0,0.0,0.0,0.0,0.0,0.0,0.0,0.0,0.0,0.0,0.0,0.0,2.0258,2.4028,0.0,0.0,3.7718,4.0409,4.355,4.4572,4.4414,4.3043,3.9088,3.4632,3.1132,0.0,2.2948,2.079,2.0087,2.0044,2.0659,2.1493,2.2359,0.0,0.0,0.0,0.0,0.0,0.0,0.0,0.0,0.0,0.0,0.0,0.0,0.0,0.0,0.0,4.417,4.4246,4.4258,4.426,4.4269,4.4258,4.4306,4.4296,4.4344,4.4373,4.4401,4.4411,4.4487,4.4719,4.4895,4.5014,4.5237,0.0,0.0,4.5457,4.5495,4.5419,4.5668,4.5781,4.5805,4.58,4.58,4.5814,0.0,0.0,0.0,0.0,0.0,0.3876,0.4253,0.3921,0.3912,0.4748,0.521,0.5316,0.4921,0.5959,0.6181,0.4914,0.0,0.0,0.0,0.0,0.0,0.0,0.0,0.0,0.0,0.0,0.0,0.0,0.0,0.0,0.0,0.0,0.0,0.0,0.0,0.0,0.0,0.0,0.0,0.0,0.0,0.0,0.0,0.0,0.0,0.0,0.0,0.0,0.0,0.0,0.0,0.0,0.0,0.0,0.0,0.0,3.4487,3.7628,4.1648,4.3183,4.3448,4.2551,3.8368,3.3647,0.0,0.0,2.2403,2.0399,1.9993,1.9998,1.9996,2.0649,2.121,0.0,0.0,2.4879,0.0,0.0,0.0,0.0,0.0,0.0,0.0,0.0,0.0,0.0,0.0,0.0,0.0,4.4495,4.4458,4.4337,4.4327,4.4336,4.4364,4.4383,4.4411,4.4411,4.4487,4.4515,4.4515,4.4764,4.4895,4.4943,0.0,0.0,0.0,4.5495,4.5549,4.5438,4.5703,4.581,4.5786,4.5814,4.5827,4.5827,0.0,0.0,0.0,0.0,0.0,0.0,0.3432,0.3685,0.3878,0.3821,0.445,0.501,0.5269,0.5539,0.5789,0.5971,0.0,0.0,0.0,0.0,0.0,0.0,0.0,0.0,0.0,0.0,0.0,0.0,0.0,0.0,0.0,0.0,0.0,0.0,0.0,0.0,0.0,0.0,0.0,0.0,0.0,0.0,0.0,0.0,0.0,0.0,0.0,0.0,0.0,0.0,0.0,0.0,0.0,0.0,0.0,0.0,2.9332,3.4093,3.7443,4.0197,4.1865,4.0789,3.673,3.232,0.0,0.0,2.1273,2.037,2.0203,2.0209,2.0199,2.0852,2.1426,2.149,0.0,0.0,0.0,0.0,0.0,0.0,0.0,0.0,0.0,0.0,0.0,0.0,0.0,0.0,0.0,4.4909,4.4808,4.4421,4.4383,4.442,4.4515,4.444,4.444,4.4515,4.4515,4.4515,4.4515,4.4578,4.4685,0.0,0.0,0.0,0.0,4.553,4.5582,4.5438,4.5703,4.58,4.5815,4.5866,4.5893,4.5906,0.0,0.0,0.0,0.0,0.0,0.0,0.0,0.3371,0.3447,0.3697,0.4377,0.487,0.4947,0.5969,0.6547,0.6235,0.0,0.0,0.0,0.0,0.0,0.0,0.0,0.0,0.0,0.0,0.0,0.0,0.0,0.0,0.0,0.0,0.0,0.0,0.0,0.0,0.0,0.0,0.0,0.0,0.0,0.0,0.0,0.0,0.0,0.0,0.0,0.0,0.0,0.0,0.0,0.0,0.0,0.0,0.0,0.0,0.0,0.0,3.2914,3.4627,3.5181,3.4787,3.1743,2.8439,2.6947,0.0,2.1374,2.0448,2.0231,2.0192,2.02,2.0901,2.1872,2.3087,2.4403,0.0,0.0,0.0,0.0,0.0,0.0,0.0,0.0,0.0,0.0,0.0,0.0,0.0,0.0,4.4957,4.4933,4.4808,4.4726,4.4678,4.4684,4.4543,4.4487,4.4515,4.4515,4.4578,4.4712,4.4881,0.0,0.0,0.0,0.0,0.0,4.5599,4.5599,4.5362,4.568,4.5819,4.5866,4.5893,4.5899,4.5815,0.0,0.0,0.0,0.0,0.0,0.0,0.0,0.3109,0.3203,0.3802,0.4279,0.4751,0.5249,0.618,0.6704,0.6577,0.0,0.0,0.0,0.0,0.0,0.0,0.0,0.0,0.0,0.0,0.0,0.0,0.0,0.0,0.0,0.0,0.0,0.0,0.0,0.0,0.0,0.0,0.0,0.0,0.0,0.0,1.0538,0.0,0.0,0.0,0.0,0.0,0.0,0.0,0.0,0.0,0.0,0.0,0.0,0.0,0.0,0.0,0.0,3.0603,3.1106,3.1067,2.8709,0.0,0.0,0.0,2.1081,2.0501,2.0341,2.0311,2.0311,2.0764,2.1597,2.2997,2.4464,0.0,0.0,0.0,0.0,0.0,0.0,0.0,0.0,0.0,0.0,0.0,0.0,0.0,0.0,4.5199,4.5237,4.523,4.501,4.4903,4.4921,4.4813,4.4757,4.4758,4.4758,4.4833,4.4972,4.5115,0.0,0.0,0.0,0.0,0.0,4.5665,4.5648,4.54,4.5723,4.5854,4.5906,4.5932,4.5937,4.5875,0.0,0.0,0.0,0.0,0.0,0.0,0.0,0.0,0.3127,0.4029,0.417,0.4661,0.5878,0.6106,0.6376,0.6894,0.0,0.0,0.0,0.0,0.0,0.0,0.0,0.0,0.0,0.0,0.0,0.0,0.8043,0.8001,0.7929,0.0,0.0,0.0,0.0,0.0,0.0,0.0,0.0,0.0,0.0,0.0,0.0,0.0,0.0,0.0,0.0,0.0,0.0,0.0,0.0,0.0,0.0,0.0,0.0,0.0,0.0,0.0,0.0,0.0,0.0,0.0,0.0,0.0,0.0,0.0,0.0,0.0,2.0509,2.0514,2.0575,2.0542,2.0834,2.1893,2.4102,0.0,0.0,0.0,0.0,0.0,0.0,0.0,0.0,0.0,0.0,0.0,0.0,0.0,0.0,4.5599,4.5616,4.5603,4.5311,4.5156,4.5137,4.516,4.5201,4.5201,4.5201,4.5182,4.5222,4.5283,0.0,0.0,0.0,0.0,0.0,4.5727,4.5757,4.5541,4.5789,4.5893,4.5919,4.598,4.6005,4.6017,0.0,0.0,0.0,0.0,0.0,0.0,0.0,0.0,0.0,0.0,0.3898,0.4404,0.5111,0.5604,0.5991,0.0,0.0,0.0,0.0,0.0,0.0,0.0,0.0,0.0,0.0,0.0,0.0,0.7635,0.8131,0.8327,0.8208,0.836,0.0,0.0,0.0,0.0,0.0,0.0,0.0,0.0,0.0,0.0,0.0,0.0,0.0,0.0,1.0158,1.0363,0.0,0.0,0.0,0.0,0.0,0.0,0.0,0.0,1.6488,1.718,2.0214,0.0,2.1777,2.2371,2.2114,0.0,0.0,0.0,0.0,0.0,0.0,2.0681,2.1305,2.0908,2.1424,2.4258,2.5765,0.0,0.0,0.0,0.0,0.0,0.0,0.0,0.0,0.0,0.0,0.0,0.0,0.0,0.0,4.5648,4.568,4.5677,4.5703,4.5603,4.5419,4.5279,4.5135,4.5052,4.5144,4.5245,4.5362,4.5472,0.0,0.0,0.0,0.0,4.5591,4.58,4.58,4.5654,4.5835,4.5917,4.598,4.6046,4.6076,4.5987,0.0,0.0,0.0,0.0,0.0,0.0,0.0,0.0,0.0,0.0,0.0,0.0,0.0,0.0,0.0,0.0,0.0,0.0,0.0,0.0,0.0,0.0,0.0,0.0,0.0,0.0,0.0,0.0,0.0,0.8113,0.0,0.0,0.0,0.0,0.0,0.0,0.0,0.0,0.0,0.0,1.035,0.0,0.0,0.0,0.0,0.0,1.0667,1.0708,0.0,1.2209,1.2869,1.3486,0.0,0.0,0.0,0.0,1.5734,1.608,1.7514,1.8541,1.9403,2.0241,2.0472,2.0497,0.0,0.0,0.0,0.0,0.0,0.0,2.1037,0.0,0.0,0.0,2.5952,0.0,0.0,0.0,0.0,0.0,0.0,0.0,0.0,0.0,0.0,0.0,0.0,0.0,0.0,4.5822,4.5841,4.5835,4.5906,4.5852,4.5684,4.5594,4.5486,4.5416,4.5503,4.5555,4.5626,4.5699,4.5808,0.0,0.0,0.0,4.5835,4.5925,4.5905,4.5841,4.5956,4.6017,4.6047,4.6119,4.615,4.6073,0.0,0.0,0.0,0.0,0.0,0.0,0.0,0.0,0.0,0.0,0.0,0.0,0.0,0.0,0.0,0.0,0.0,0.0,0.0,0.0,0.0,0.0,0.0,0.0,0.0,0.0,0.0,0.0,0.0,0.0,0.0,0.0,0.0,0.0,0.0,0.0,0.0,0.0,0.0,0.0,1.0077,0.0,0.0,0.0,0.0,0.0,0.0,0.0,0.0,1.265,1.3047,1.3375,1.4205,0.0,0.0,0.0,0.0,0.0,1.6246,1.7882,1.9445,2.0089,2.0341,2.0437,0.0,0.0,0.0,0.0,0.0,0.0,0.0,0.0,0.0,0.0,0.0,0.0,0.0,0.0,0.0,0.0,0.0,0.0,0.0,0.0,0.0,0.0,0.0,0.0,0.0,4.5627,4.5636,4.5627,4.5638,4.5597,4.5564,4.5786,4.591,4.5886,4.5794,4.5735,4.5723,4.5747,4.5759,0.0,0.0,0.0,4.6035,4.6007,4.6017,4.6027,4.6091,4.6107,4.6115,4.6176,4.6206,4.6202,0.0,0.0,0.0,0.0,0.0,0.0,0.0,0.0,0.0,0.0,0.0,0.0,0.0,0.0,0.0,0.0,0.0,0.0,0.0,0.0,0.0,0.0,0.0,0.0,0.0,0.0,0.0,0.0,0.0,0.0,0.7738,0.7966,0.7789,0.0,0.0,0.0,0.7298,0.7514,0.8474,0.9848,0.9917,0.0,0.0,0.0,0.0,0.0,0.0,0.0,0.0,1.2498,1.3151,1.3913,1.4157,0.0,0.0,0.0,0.0,0.0,1.6782,1.8459,1.9592,1.9167,1.9613,2.0122,0.0,0.0,0.0,0.0,0.0,0.0,0.0,0.0,0.0,0.0,0.0,0.0,0.0,0.0,0.0,0.0,0.0,0.0,0.0,0.0,0.0,0.0,0.0,0.0,0.0,4.3938,4.3976,4.3974,4.3977,4.3953,4.395,4.5304,4.5964,4.5886,4.5269,4.4929,4.4888,4.5004,4.5056,0.0,0.0,4.6119,4.6154,4.6099,4.6127,4.6162,4.6169,4.6144,4.6119,4.6183,4.6202,4.6191,0.0,0.0,0.0,0.0,0.0,0.0,0.0,0.0,0.0,0.0,0.0,0.0,0.0,0.0,0.0,0.0,0.0,0.0,0.0,0.0,0.0,0.0,0.0,0.0,0.0,0.0,0.0,0.0,0.0,0.7604,0.7412,0.7103,0.6655,0.6143,0.0,0.0,0.7182,0.7629,0.8362,0.926,0.0,0.0,0.0,0.0,0.0,0.0,0.0,0.0,0.0,0.0,1.3235,1.3746,1.3848,0.0,0.0,0.0,0.0,0.0,1.673,1.8005,1.9001,1.9058,2.038,0.0,0.0,0.0,0.0,0.0,0.0,0.0,0.0,0.0,0.0,0.0,0.0,0.0,0.0,0.0,0.0,0.0,0.0,0.0,0.0,0.0,0.0,0.0,0.0,0.0,0.0,0.0,4.3512,4.3548,4.3551,4.3551,4.3609,4.4321,4.4695,4.4651,4.4308,4.4145,4.4109,4.4168,4.4455,4.4928,0.0,4.5743,4.6199,4.6175,4.6179,4.6209,4.6192,4.618,4.6168,4.6191,4.6182,4.6136,0.0,0.0,0.0,0.0,0.0,0.0,0.0,0.0,0.0,0.0,0.0,0.0,0.0,0.0,0.0,0.0,0.0,0.0,0.0,0.0,0.0,0.0,0.0,0.0,0.0,0.0,0.0,0.7231,0.7306,0.7166,0.6828,0.6268,0.5798,0.0,0.0,0.0,0.7411,0.8072,0.8594,0.9057,0.0,0.0,0.0,0.0,0.0,0.0,0.0,0.0,0.0,0.0,0.0,0.0,0.0,0.0,0.0,1.4775,1.519,1.5594,1.6653,1.7749,1.877,0.0,0.0,0.0,0.0,0.0,0.0,0.0,0.0,0.0,0.0,0.0,0.0,0.0,0.0,0.0,0.0,0.0,0.0,0.0,0.0,0.0,0.0,0.0,0.0,0.0,0.0,0.0,0.0,0.0,4.2649,4.2509,4.2705,4.276,4.2644,4.2648,4.2969,4.3603,4.3407,4.3319,4.3319,4.3305,4.3654,4.4298,4.4513,4.5091,4.5898,4.5898,4.6016,4.6191,4.6209,4.6184,4.6156,4.6143,4.6086,4.5977,0.0,0.0,0.0,0.0,0.0,0.0,0.0,0.0,0.0,0.0,0.0,0.0,0.0,0.0,0.0,0.0,0.0,0.0,0.0,0.0,0.0,0.0,0.0,0.0,0.0,0.5974,0.5934,0.5857,0.5967,0.6057,0.6078,0.602,0.6189,0.6591,0.0,0.0,0.8262,0.9044,0.9554,0.9837,1.0101,0.0,0.0,0.0,0.0,0.0,0.0,0.0,0.0,0.0,0.0,0.0,0.0,0.0,1.3681,1.4569,1.4876,1.5306,1.6923,1.8409,1.9638,2.0182,0.0,0.0,0.0,0.0,0.0,0.0,0.0,0.0,0.0,0.0,0.0,0.0,0.0,0.0,0.0,0.0,0.0,0.0,0.0,0.0,0.0,0.0,0.0,0.0,0.0,0.0,0.0,0.0,0.0,3.9615,4.04,4.0482,3.9791,3.9805,4.1076,4.3592,4.2832,4.248,4.248,4.2419,4.2435,4.2531,4.3349,4.4186,4.4989,4.4989,4.5479,4.6205,4.6204,4.6117,4.6018,4.5949,4.5852,4.5615,0.0,0.0,0.0,0.0,0.0,0.0,0.0,0.0,0.0,0.0,0.0,0.0,0.0,0.0,0.0,0.0,0.0,0.0,0.0,0.0,0.0,0.0,0.0,0.5482,0.5415,0.5724,0.593,0.6001,0.581,0.5789,0.5936,0.6224,0.0,0.0,0.0,0.0,0.953,0.9341,0.9761,1.0588,1.0634,1.0805,0.0,0.0,0.0,0.0,0.0,0.0,0.0,0.0,1.2565,1.2738,1.2783,1.2928,1.3319,1.4654,1.5236,1.5817,1.7383,1.9035,2.0337,0.0,0.0,0.0,0.0,0.0,0.0,0.0,0.0,0.0,0.0,0.0,0.0,0.0,0.0,0.0,0.0,0.0,0.0,0.0,0.0,0.0,0.0,0.0,0.0,0.0,0.0,0.0,0.0,0.0,0.0,3.9734,4.0058,3.989,3.9206,3.9187,3.9497,4.012,4.0524,4.073,4.0794,4.132,4.1841,4.2373,4.2678,4.3582,4.4902,4.4857,4.5358,4.6125,4.5994,4.5861,4.5674,4.5111,4.5063,4.5111,0.0,0.0,0.0,0.0,0.0,0.0,0.0,0.0,0.0,0.0,0.0,0.0,0.0,0.0,0.0,0.0,0.0,0.0,0.0,0.0,0.0,0.0,0.0,0.5263,0.5078,0.5357,0.5576,0.5786,0.5559,0.5509,0.567,0.0,0.0,0.0,0.0,0.0,0.0,0.0,0.996,1.0715,1.0753,1.0801,0.0,0.0,0.0,0.0,0.0,0.0,0.0,0.0,1.2282,1.2407,1.2416,1.2569,1.2993,1.4577,1.5184,1.5731,1.7277,1.8517,1.9539,0.0,0.0,0.0,0.0,0.0,0.0,0.0,0.0,0.0,0.0,0.0,0.0,0.0,0.0,0.0,0.0,0.0,0.0,0.0,0.0,0.0,0.0,0.0,0.0,0.0,0.0,0.0,0.0,0.0,0.0,0.0,3.9142,3.8855,3.8155,3.7976,3.7696,3.7333,3.8141,3.8902,3.9647,4.0505,4.1247,4.1789,4.1707,4.2509,4.3869,4.3818,4.4467,4.5483,4.5376,4.5368,4.5355,4.4705,4.4612,4.4672,0.0,0.0,0.0,0.0,0.0,0.0,0.0,0.0,0.0,0.0,0.0,0.0,0.0,0.0,0.0,0.0,0.0,0.0,0.0,0.0,0.0,0.0,0.0,0.5146,0.499,0.4733,0.4704,0.4893,0.503,0.5108,0.5166,0.8094,0.0,0.0,0.0,0.0,0.0,0.0,1.0211,1.0122,1.0386,1.0498,1.0523,0.0,0.0,0.0,0.0,0.0,0.0,0.0,1.22,1.221,1.2282,1.2388,1.2792,1.4187,1.4537,1.4837,1.6381,1.6675,0.0,0.0,0.0,0.0,0.0,0.0,0.0,0.0,0.0,0.0,0.0,0.0,0.0,0.0,0.0,0.0,0.0,0.0,0.0,0.0,0.0,0.0,0.0,0.0,0.0,0.0,0.0,0.0,0.0,0.0,0.0,0.0,3.7258,3.7013,3.627,3.5747,3.5583,3.5771,3.5913,3.7094,3.9212,4.0082,4.0492,4.0477,4.0361,4.0822,4.1678,4.1629,4.2624,4.4206,4.4264,4.4611,4.5025,4.4829,4.46,4.4177,0.0,0.0,0.0,0.0,0.0,0.0,0.0,0.0,0.0,0.0,0.0,0.0,0.0,0.0,0.0,0.0,0.0,0.0,0.0,0.0,0.0,0.0,0.0,0.0,0.0,0.0,0.4675,0.4684,0.5108,0.5385,0.0,0.0,0.0,0.7167,0.0,0.0,0.0,0.0,1.0161,1.0386,1.0374,1.0449,1.0572,0.0,0.0,0.0,0.0,0.0,0.0,0.0,0.0,0.0,1.1912,0.0,1.2674,1.3883,1.4412,1.4898,1.604,0.0,0.0,0.0,0.0,0.0,0.0,0.0,0.0,0.0,0.0,0.0,0.0,0.0,0.0,0.0,0.0,0.0,0.0,0.0,0.0,0.0,0.0,0.0,0.0,0.0,0.0,0.0,0.0,0.0,0.0,0.0,0.0,0.0,3.5032,3.4794,3.4213,3.4032,3.3785,3.3431,3.4008,3.5552,3.7893,3.8807,3.9536,4.0093,4.0132,4.0645,4.1451,4.1915,4.2311,4.2645,4.2399,4.2385,4.2352,4.1883,4.1908,4.203,0.0,0.0,0.0,0.0,0.0,0.0,0.0,0.0,0.0,0.0,0.0,0.0,0.0,0.0,0.0,0.0,0.0,0.0,0.0,0.0,0.0,0.0,0.0,0.0,0.0,0.4773,0.4744,0.0,0.0,0.0,0.0,0.0,0.0,0.6888,0.0,0.906,0.0,0.0,0.9944,1.0261,1.0236,1.0324,1.05,0.0,0.0,0.0,0.0,0.0,0.0,0.0,0.0,0.0,0.0,0.0,0.0,1.3289,1.3785,1.4256,1.5197,0.0,0.0,0.0,0.0,0.0,0.0,0.0,0.0,0.0,0.0,0.0,0.0,0.0,0.0,0.0,0.0,0.0,0.0,0.0,0.0,0.0,0.0,0.0,0.0,0.0,0.0,0.0,0.0,0.0,0.0,0.0,0.0,0.0,3.2693,3.2386,3.2094,3.185,3.1562,3.1301,3.1861,3.306,3.489,3.6552,3.7633,3.8221,3.8498,3.893,3.9432,4.0068,4.0449,4.0643,4.0443,4.0382,4.0359,3.9914,3.9846,3.9882,0.0,0.0,0.0,0.0,0.0,0.0,0.0,0.0,0.0,0.0,0.0,0.0,0.0,0.0,0.0,0.0,0.0,0.0,0.0,0.0,0.0,0.0,0.0,0.0,0.0,0.0,0.0,0.0,0.0,0.0,0.0,0.0,0.7623,0.7842,0.0,0.9066,0.0,0.0,0.9633,0.988,1.0021,1.0148,1.0326,1.0899,0.0,0.0,0.0,0.0,0.0,0.0,0.0,0.0,1.2049,0.0,1.2183,1.2637,1.2952,1.3355,0.0,0.0,0.0,0.0,0.0,0.0,0.0,0.0,0.0,0.0,0.0,0.0,0.0,0.0,0.0,0.0,0.0,0.0,0.0,0.0,0.0,0.0,0.0,0.0,0.0,0.0,0.0,0.0,0.0,0.0,0.0,0.0,0.0,3.0745,3.0087,2.9777,2.9903,2.9326,2.9166,0.0,2.9545,3.0015,3.0832,3.3582,3.5033,3.5377,3.5906,3.6127,3.6181,3.672,3.7415,3.8095,3.8149,3.8351,3.8538,3.8395,3.8018,3.7585,0.0,0.0,0.0,0.0,0.0,0.0,0.0,0.0,0.0,0.0,0.0,0.0,0.0,0.0,0.0,0.0,0.0,0.0,0.0,0.0,0.0,0.0,0.0,0.0,0.0,0.0,0.0,0.0,0.0,0.0,0.0,0.0,0.0,0.7223,0.0,0.8282,0.0,0.9004,0.9381,0.9607,0.9841,1.0021,1.0161,1.0404,1.0495,0.0,0.0,0.0,0.0,0.0,0.0,0.0,1.1631,1.1912,1.2245,1.2968,1.3616,0.0,0.0,0.0,0.0,0.0,0.0,0.0,0.0,0.0,0.0,0.0,0.0,0.0,0.0,0.0,0.0,0.0,0.0,0.0,0.0,0.0,0.0,0.0,0.0,0.0,0.0,0.0,0.0,0.0,0.0,0.0,0.0,0.0,0.0,2.668,2.6665,2.6692,2.6762,2.7004,2.7167,0.0,2.75,2.783,2.8229,3.0916,3.2552,3.3356,3.3842,3.3774,3.3434,3.4124,3.4225,3.4011,3.42,3.4329,3.4414,3.4603,3.4466,3.4276,0.0,0.0,0.0,0.0,0.0,0.0,0.0,0.0,0.0,0.0,0.0,0.0,0.0,0.0,0.0,0.0,0.0,0.0,0.0,0.0,0.0,0.0,0.0,0.0,0.0,0.0,0.0,0.0,0.0,0.0,0.0,0.0,0.0,0.7262,0.0,0.8262,0.0,0.8955,0.9313,0.9619,0.9828,0.997,1.0148,1.047,1.0546,1.0504,1.1043,0.0,0.0,0.0,0.0,0.0,0.0,0.0,1.2524,1.2794,1.3283,1.3768,0.0,0.0,0.0,0.0,0.0,0.0,0.0,0.0,0.0,0.0,0.0,0.0,0.0,0.0,0.0,0.0,0.0,0.0,0.0,0.0,0.0,0.0,0.0,0.0,0.0,0.0,0.0,0.0,0.0,0.0,0.0,2.4231,2.4327,2.4266,2.445,2.4584,2.4587,2.4758,2.4958,2.5077,2.517,2.5369,2.5694,2.8102,2.9681,3.0518,3.0752,3.0925,3.1006,3.1472,3.1473,3.1211,3.1296,3.1203,3.0968,3.1084,3.0807,3.0491,0.0,0.0,0.0,0.0,0.0,0.0,0.0,0.0,0.0,0.0,0.0,0.0,0.0,0.0,0.0,0.0,0.0,0.0,0.0,0.0,0.0,0.0,0.0,0.0,0.0,0.0,0.0,0.0,0.0,0.0,0.0,0.0,0.0,0.7548,0.0,0.0,0.0,0.0,0.9232,0.9632,0.9724,0.9841,1.0046,1.0548,1.0691,1.075,1.1433,1.1695,1.1751,1.21,0.0,0.0,0.0,0.0,1.2786,1.2582,1.2842,1.3238,0.0,0.0,0.0,0.0,0.0,0.0,0.0,0.0,0.0,0.0,0.0,0.0,0.0,0.0,0.0,0.0,0.0,0.0,0.0,0.0,0.0,0.0,0.0,0.0,0.0,0.0,0.0,0.0,0.0,0.0,2.2073,2.2503,2.2678,2.2507,2.2665,2.2726,2.2775,2.2695,2.2742,2.2874,2.285,2.291,2.3166,2.4764,2.6175,2.7243,2.7338,2.7669,2.8224,2.8498,2.8532,2.847,2.8567,2.8234,2.7662,2.7584,2.7105,2.6573,0.0,0.0,0.0,0.0,0.0,0.0,0.0,0.0,0.0,0.0,0.0,0.0,0.0,0.0,0.0,0.0,0.0,0.0,0.0,0.0,0.0,0.0,0.0,0.0,0.0,0.0,0.0,0.0,0.0,0.0,0.0,0.0,0.0,0.0,0.0,0.0,0.0,0.0,0.0,0.9259,0.9166,0.9316,0.9603,0.9912,1.02,1.0501,1.1069,1.1106,1.0966,1.1635,1.1491,0.0,0.0,0.0,1.2537,1.2981,1.3332,0.0,0.0,0.0,0.0,0.0,0.0,0.0,0.0,0.0,0.0,0.0,0.0,0.0,0.0,0.0,0.0,0.0,0.0,0.0,0.0,0.0,0.0,0.0,0.0,0.0,0.0,0.0,0.0,0.0,0.0,0.0,2.0446,2.0477,2.0486,2.0486,2.0515,2.0504,2.0495,2.0928,2.1147,2.1129,2.0974,2.0651,2.0222,2.007,2.1381,2.3878,2.4283,2.4213,2.3929,2.4834,2.4762,2.4285,2.4797,2.4496,2.3715,2.3561,2.3212,2.2853,0.0,0.0,0.0,0.0,0.0,0.0,0.0,0.0,0.0,0.0,0.0,0.0,0.0,0.0,0.0,0.0,0.0,0.0,0.0,0.0,0.0,0.0,0.4793,0.0,0.0,0.0,0.0,0.0,0.0,0.0,0.0,0.6456,0.6919,0.0,0.0,0.0,0.0,0.0,0.0,0.0,0.9374,0.9632,0.0,0.0,0.0,1.0182,1.0518,1.0803,1.1085,1.1703,1.1924,1.2051,1.2791,0.0,0.0,0.0,1.3268,0.0,0.0,0.0,0.0,0.0,0.0,0.0,0.0,0.0,0.0,0.0,0.0,0.0,0.0,0.0,0.0,0.0,0.0,0.0,0.0,0.0,0.0,0.0,0.0,0.0,0.0,0.0,0.0,0.0,0.0,1.8607,1.8337,1.8586,1.8633,1.8623,1.8772,1.8829,1.8772,1.8936,1.8946,1.8859,1.8874,1.8655,1.8332,1.7986,1.9214,2.1504,2.1397,2.1537,2.1734,2.1951,2.1755,2.1395,2.1657,2.1494,2.1019,2.0954,2.0485,1.9975,0.0,0.0,0.0,0.0,0.0,0.0,0.0,0.0,0.0,0.0,0.0,0.0,0.0,0.0,0.0,0.0,0.0,0.0,0.0,0.0,0.0,0.4735,0.5164,0.5461,0.5642,0.0,0.0,0.0,0.0,0.0,0.6721,0.6712,0.7095,0.0,0.8087,0.0,0.0,0.0,0.0,0.0,0.0,0.0,0.0,0.0,0.0,0.0,1.0118,1.0506,1.1102,1.1658,1.2059,1.2421,1.2973,1.3185,0.0,0.0,0.0,0.0,0.0,0.0,0.0,0.0,0.0,0.0,0.0,0.0,0.0,0.0,0.0,0.0,0.0,0.0,0.0,0.0,0.0,0.0,0.0,0.0,0.0,0.0,0.0,0.0,0.0,0.0,0.0,0.0,0.0,1.712,1.6724,1.6964,1.7033,1.6913,1.7092,1.7161,1.7042,1.7033,1.6954,1.6807,1.6867,1.6711,1.6513,1.6296,1.7058,1.8639,1.874,1.9174,1.9783,1.9533,1.9334,1.9094,1.9016,1.8779,1.8391,1.8311,1.784,1.7293,0.0,0.0,0.0,0.0,0.0,0.0,0.0,0.0,0.0,0.0,0.0,0.0,0.0,0.0,0.0,0.3948,0.0,0.0,0.0,0.0,0.0,0.5329,0.5388,0.0,0.6529,0.0,0.0,0.0,0.0,0.0,0.7362,0.7483,0.7596,0.7727,0.8131,0.8365,0.8493,0.0,0.0,0.0,0.0,0.8858,0.0,0.0,0.0,0.0,0.0,0.0,1.0548,1.114,1.1071,1.0952,1.2154,1.2627,1.2745,0.0,0.0,0.0,0.0,0.0,0.0,0.0,0.0,0.0,0.0,0.0,0.0,0.0,0.0,0.0,0.0,0.0,0.0,0.0,0.0,0.0,0.0,0.0,0.0,0.0,0.0,0.0,0.0,0.0,0.0,0.0,0.0,1.6298,1.607,1.5922,1.5711,1.5508,1.5376,1.5376,1.5305,1.5305,1.5296,1.5305,1.495,1.4665,1.4442,1.4106,1.4086,1.4403,1.634,1.7242,1.7389,1.7595,1.748,1.7155,1.6903,1.6257,1.5296,1.5054,1.481,1.4594,0.0,0.0,0.0,0.0,0.0,0.0,0.0,0.0,0.0,0.0,0.0,0.0,0.0,0.4227,0.4388,0.4446,0.4584,0.0,0.0,0.0,0.0,0.564,0.6069,0.6517,0.6963,0.0,0.0,0.0,0.0,0.7329,0.7608,0.8225,0.8424,0.8298,0.8353,0.8345,0.8302,0.8302,0.0,0.0,0.9037,0.9224,0.0,0.0,0.0,0.0,0.0,0.0,0.0,1.0989,1.071,1.0281,1.1768,1.2006,1.1827,1.2306,1.2884,1.3248,0.0,0.0,0.0,0.0,0.0,0.0,0.0,0.0,0.0,0.0,0.0,0.0,0.0,0.0,0.0,0.0,0.0,0.0,0.0,0.0,0.0,0.0,0.0,0.0,0.0,0.0,0.0,0.0,0.0,0.0,1.4402,1.433,1.4258,1.4194,1.4122,1.4049,1.3897,1.3825,1.368,1.3528,1.339,1.3237,1.3018,1.2659,1.2533,1.2835,1.3662,1.4392,1.511,1.4934,1.4816,1.4685,1.4399,1.402,1.3522,1.3444,1.3027,1.2448,0.0,0.0,0.0,0.0,0.0,0.0,0.0,0.0,0.0,0.0,0.0,0.0,0.0,0.0,0.4863,0.4864,0.4853,0.4922,0.5117,0.5506,0.583,0.6086,0.6664,0.7085,0.0,0.0,0.0,0.0,0.0,0.0,0.0,0.0,0.8621,0.8542,0.8507,0.8475,0.0,0.0,0.0,0.9394,0.0,0.9277,0.9941,0.0,0.0,0.0,0.0,0.0,0.0,0.0,0.945,0.9097,1.0762,1.1335,1.1498,1.2018,1.2527,1.2796,1.2419,0.0,0.0,0.0,0.0,0.0,0.0,0.0,0.0,0.0,0.0,0.0,0.0,0.0,0.0,0.0,0.0,0.0,0.0,0.0,0.0,0.0,0.0,0.0,0.0,0.0,0.0,0.0,0.0,0.0,1.3119,1.3193,1.3119,1.2973,1.29,1.282,1.2673,1.2452,1.215,1.1916,1.1774,1.1596,1.1377,1.1075,1.1071,1.1335,1.134,1.2128,1.3532,1.302,1.287,1.2766,1.232,1.1928,1.1729,1.1729,1.1391,1.0799,0.0,0.0,0.0,0.0,0.0,0.0,0.0,0.0,0.0,0.0,0.0,0.0,0.0,0.0,0.0,0.5194,0.5049,0.5078,0.5406,0.5817,0.6256,0.6701,0.0,0.0,0.0,0.0,0.0,0.0,0.0,0.0,0.0,0.0,0.8168,0.0,0.8648,0.8763,0.882,0.0,0.9208,0.9399,0.0,0.8873,0.9978,0.0,0.0,0.0,0.8476,0.8137,0.0,0.0,0.0,0.0,0.0,0.0,1.1811,1.2004,1.2077,1.2029,0.0,0.0,0.0,0.0,0.0,0.0,0.0,0.0,0.0,0.0,0.0,0.0,0.0,0.0,0.0,0.0,0.0,0.0,0.0,0.0,0.0,0.0,0.0,0.0,0.0,0.0,0.0,0.0,0.0,1.2673,1.2285,1.2432,1.2352,1.1903,1.1761,1.162,1.162,1.1254,1.0801,1.0415,1.004,0.9703,0.9448,0.9453,0.9577,0.9705,0.9471,1.0587,1.2419,1.2047,1.1804,1.1558,1.0605,1.0096,0.9845,0.9845,0.985,0.9854,0.0,0.0,0.0,0.0,0.0,0.0,0.0,0.0,0.0,0.0,0.0,0.0,0.0,0.0,0.0,0.5491,0.5795,0.6013,0.6034,0.6896,0.7375,0.7413,0.7866,0.8171,0.0,0.0,0.0,0.0,0.0,0.0,0.0,0.0,0.0,0.0,0.9264,0.9403,0.95,0.903,0.0,0.0,0.8964,0.8838,0.0,0.0,0.0,0.0,0.0,0.8721,0.8168,0.0,0.8044,0.705,0.0,0.0,0.0,1.118,1.133,1.1404,1.1132,0.0,0.0,0.0,0.0,0.0,0.0,0.0,0.0,0.0,0.0,0.0,0.0,0.0,0.0,0.0,0.0,0.0,0.0,0.0,0.0,0.0,0.0,0.0,0.0,0.0,0.0,0.0,1.2003,1.1911,1.1565,1.121,1.0744,1.0172,0.9997,0.9867,0.9569,0.9445,0.9301,0.9221,0.9074,0.9032,0.8937,0.8852,0.8955,0.9164,0.9059,0.9404,0.9914,0.9745,0.9742,0.9822,0.9424,0.9205,0.9097,0.9097,0.891,0.8746,0.0,0.0,0.0,0.0,0.0,0.0,0.0,0.0,0.0,0.0,0.0,0.0,0.0,0.0,0.0,0.5942,0.6329,0.6499,0.635,0.729,0.7758,0.7514,0.8123,0.8533,0.0,0.0,0.0,0.0,0.0,0.0,0.0,0.0,0.0,0.0,0.0,0.0,0.0,0.0,0.0,0.0,0.8823,0.0,0.0,0.8656,0.8487,0.0,0.0,0.0,0.7675,0.8094,0.7514,0.0,0.0,0.0,0.0,0.0,1.0591,1.0705,1.0601,0.0,0.0,0.0,0.0,0.0,1.0407,1.0911,0.0,0.0,0.0,0.0,0.0,0.0,0.0,0.0,0.0,0.0,0.0,0.0,0.0,0.0,0.0,0.0,0.0,0.0,0.0,1.0924,1.0755,1.0472,1.026,0.9828,0.9443,0.9193,0.8949,0.8799,0.8675,0.8435,0.8196,0.7961,0.7897,0.7748,0.7512,0.7454,0.7635,0.7883,0.7812,0.7861,0.7822,0.78,0.8092,0.8444,0.807,0.7878,0.7825,0.796,0.7802,0.7509,0.0,0.0,0.0,0.0,0.0,0.0,0.0,0.0,0.0,0.0,0.0,0.0,0.0,0.0,0.0,0.0,0.6729,0.6777,0.6554,0.7384,0.7733,0.7359,0.818,0.8628,0.8656,0.0,0.0,0.0,0.0,0.0,0.0,0.0,0.0,0.0,0.0,0.0,0.0,0.0,0.0,0.9096,0.8307,0.8373,0.0,0.0,0.7908,0.0,0.7664,0.7246,0.694,0.6396,0.637,0.0,0.0,0.0,0.0,0.0,0.9873,0.0,0.0,0.0,0.0,0.0,0.0,0.0,0.975,1.0154,1.0254,0.0,0.0,0.0,0.0,0.0,0.0,0.0,0.0,0.0,0.0,0.0,0.0,0.0,0.0,0.0,0.0,1.025,0.984,0.9759,0.9287,0.8862,0.8599,0.8424,0.8357,0.8413,0.8113,0.7989,0.8125,0.7794,0.7364,0.6782,0.6565,0.6244,0.5888,0.5904,0.6055,0.6306,0.6322,0.6312,0.6343,0.634,0.6782,0.7326,0.6744,0.6466,0.6415,0.6659,0.6602,0.6439,0.0,0.0,0.0,0.0,0.0,0.0,0.0,0.0,0.0,0.0,0.0,0.0,0.0,0.0,0.0,0.0,0.7174,0.7368,0.7375,0.8053,0.8415,0.8328,0.8667,0.8861,0.8928,0.8695,0.0,0.0,0.0,0.0,0.0,0.0,0.0,0.0,0.0,0.0,0.0,0.0,0.0,0.8814,0.8295,0.0,0.8633,0.7672,0.727,0.7273,0.7089,0.6823,0.6442,0.0,0.6091,0.6765,0.0,0.0,0.0,0.0,0.0,0.0,0.0,0.0,0.0,0.0,0.0,0.0,0.8981,0.9096,0.9111,0.0,0.0,0.0,0.0,0.0,0.0,0.0,0.0,0.0,0.0,0.0,0.0,0.0,0.0,0.0,0.0,0.899,0.8715,0.8754,0.8349,0.7873,0.748,0.7283,0.6856,0.6094,0.6192,0.6109,0.5837,0.5892,0.5937,0.5825,0.5777,0.5727,0.568,0.586,0.5921,0.608,0.6193,0.6228,0.6169,0.5899,0.6163,0.6609,0.6287,0.6318,0.6389,0.6255,0.6303,0.6348,0.0,0.0,0.0,0.0,0.0,0.0,0.0,0.0,0.0,0.0,0.0,0.0,0.0,0.0,0.0,0.0,0.0,0.0,0.0,0.0,0.8042,0.8107,0.8414,0.86,0.8594,0.8471,0.8404,0.0,0.0,0.0,0.0,0.0,0.0,0.0,0.0,0.0,0.0,0.0,0.8989,0.8187,0.824,0.0,0.8504,0.7711,0.7339,0.7227,0.6738,0.6218,0.5727,0.5281,0.5775,0.0,0.0,0.6892,0.7381,0.0,0.8286,0.8237,0.0,0.0,0.0,0.8415,0.0,0.0,0.0,0.8528,0.8604,0.7992,0.0,0.0,0.0,0.0,0.0,0.0,0.0,0.0,0.0,0.0,0.0,0.0,0.0,0.0,0.0,0.7779,0.714,0.68,0.6555,0.632,0.5973,0.587,0.5652,0.5261,0.5267,0.53,0.5225,0.5295,0.5324,0.5381,0.5446,0.5404,0.5329,0.5311,0.5439,0.5705,0.5605,0.5653,0.5916,0.5741,0.5681,0.5727,0.5634,0.5702,0.572,0.5876,0.5766,0.545,0.0,0.0,0.0,0.0,0.0,0.0,0.0,0.0,0.0,0.0,0.0,0.0,0.0,0.0,0.0,0.0,0.0,0.0,0.0,0.0,0.7434,0.742,0.7942,0.8176,0.8101,0.8101,0.8091,0.0,0.0,0.0,0.0,0.0,0.0,0.0,0.0,0.0,0.0,0.0,0.0,0.736,0.0,0.8288,0.8084,0.7421,0.7165,0.7052,0.6245,0.5656,0.5163,0.4837,0.0,0.6194,0.6213,0.6601,0.0,0.0,0.0,0.0,0.0,0.0,0.0,0.0,0.0,0.7454,0.0,0.0,0.0,0.7323,0.0,0.0,0.0,0.0,0.0,0.0,0.0,0.0,0.0,0.0,0.0,0.0,0.0,0.0,0.0,0.6314,0.5394,0.4964,0.4894,0.4824,0.4631,0.4697,0.4876,0.4915,0.4818,0.4807,0.4899,0.4925,0.4854,0.475,0.4794,0.4854,0.4781,0.4567,0.4763,0.5204,0.4979,0.4932,0.4842,0.5121,0.4818,0.4436,0.4991,0.5187,0.512,0.5303,0.4935,0.4256,0.7284,0.7422,0.0,0.0,0.0,0.0,0.0,0.0,0.0,0.0,0.0,0.0,0.0,0.0,0.0,0.0,0.0,0.0,0.744,0.0,0.0,0.6842,0.7472,0.7792,0.7676,0.7724,0.7724,0.7676,0.0,0.0,0.0,0.0,0.0,0.0,0.8707,0.0,0.0,0.0,0.7608,0.0,0.7681,0.7717,0.0,0.5855,0.551,0.5521,0.5164,0.5144,0.5156,0.0,0.514,0.6199,0.0,0.5725,0.5939,0.0,0.0,0.0,0.0,0.0,0.0,0.0,0.6343,0.0,0.0,0.0,0.6465,0.6087,0.0,0.0,0.0,0.0,0.0,0.0,0.0,0.0,0.0,0.0,0.0,0.0,0.0,0.0,0.0,0.0,0.3944,0.4353,0.4225,0.403,0.3902,0.4498,0.4703,0.4386,0.457,0.4355,0.386,0.3882,0.3681,0.3321,0.3328,0.3524,0.3923,0.3926,0.4104,0.4548,0.5074,0.4033,0.1965,0.2865,0.2811,0.2494,0.4537,0.5155,0.495,0.4577,0.3665,0.2764,0.7952,0.7878,0.0,0.0,0.0,0.0,0.0,0.0,0.0,0.0,0.0,0.0,0.0,0.0,0.0,0.0,0.0,0.5393,0.0,0.0,0.0,0.0,0.6615,0.6863,0.6658,0.6893,0.7145,0.7418,0.7605,0.0,0.0,0.0,0.0,0.0,0.8285,0.0,0.63,0.0,0.0,0.0,0.0,0.0,0.0,0.5153,0.5076,0.4618,0.4184,0.4027,0.3922,0.0,0.3823,0.0,0.0,0.0,0.0,0.0,0.0,0.0,0.0,0.0,0.0,0.0,0.0,0.0,0.5058,0.0,0.5572,0.0,0.0,0.0,0.0,0.0,0.0,0.0,0.3957,0.0,0.0,0.0,0.0,0.0,0.0,0.0,0.0,0.0,0.0,0.0,0.3493,0.336,0.3634,0.3758,0.3956,0.4097,0.3894,0.3578,0.3211,0.2993,0.2725,0.2413,0.2397,0.2503,0.2662,0.2612,0.2981,0.3628,0.2996,0.2386,0.1758,0.0792,0.0359,0.0462,0.1109,0.2045,0.2992,0.3052,0.2656,0.2184,0.822,0.0,0.0,0.0,0.0,0.0,0.0,0.0,0.0,0.0,0.0,0.0,0.5184,0.5229,0.0,0.0,0.4284,0.4229,0.0,0.0,0.4716,0.0,0.0,0.0,0.0,0.601,0.6405,0.6768,0.0,0.0,0.0,0.0,0.0,0.0,0.0,0.7073,0.5534,0.0,0.0,0.3673,0.3631,0.3184,0.2686,0.4072,0.4299,0.379,0.3299,0.2912,0.2587,0.2646,0.2787,0.0,0.3787,0.0,0.0,0.0,0.0,0.0,0.3357,0.0,0.0,0.0,0.0,0.0,0.0,0.0,0.0,0.0,0.0,0.0,0.0,0.0,0.0,0.0,0.0,0.0,0.0,0.0,0.0,0.0,0.0,0.0,0.0,0.0,0.0,0.2821,0.24,0.2351,0.2757,0.2818,0.3084,0.3489,0.3088,0.2751,0.2484,0.2115,0.1684,0.1354,0.1391,0.133,0.1252,0.1105,0.1358,0.1948,0.0899,0.0671,0.1043,-0.0696,-0.1156,-0.0917,-0.1284,-0.055,0.0823,0.1089,0.1172,0.1169,0.7892,0.775,0.0,0.0,0.0,0.0,0.0,0.0,0.0,0.0,0.0,0.0,0.0,0.0,0.0,0.0,0.0,0.3082,0.38,0.0,0.3677,0.0,0.0,0.5031,0.0,0.0,0.5517,0.5461,0.0,0.0,0.0,0.0,0.0,0.0,0.0,0.6959,0.641,0.6029,0.5324,0.4381,0.3406,0.2671,0.2136,0.0,0.2561,0.2905,0.2631,0.0,0.0,0.2017,0.2452,0.0,0.0,0.0,0.0,0.0,0.0,0.0,0.0,0.0,0.0,0.2876,0.0,0.0,0.0,0.0,0.4316,0.0,0.0,0.0,0.0,0.0,0.3293,0.2987,0.0,0.0,0.0,0.0,0.0,0.0,0.0,0.0,0.0,0.0,0.0,0.1045,0.0977,0.0941,0.0874,0.1678,0.2147,0.2147,0.2143,0.1873,0.134,0.1045,0.0578,0.0075,0.0077,-0.0079,-0.0314,-0.0322,-0.0651,-0.1141,-0.075,-0.0853,-0.1306,-0.1393,-0.141,-0.1347,-0.1437,-0.1347,-0.126,-0.1285,-0.1004,-0.063,0.0,0.0,0.0,0.0,0.0,0.0,0.0,0.5297,0.0,0.0,0.0,0.0,0.0,0.2979,0.275,0.0,0.0,0.1929,0.2614,0.2668,0.0,0.0,0.0,0.3674,0.0,0.0,0.0,0.0,0.0,0.0,0.0,0.0,0.0,0.0,0.0,0.6434,0.0,0.0,0.0,0.0,0.0,0.105,0.1118,0.0,0.0,0.2293,0.2127,0.1455,0.0,0.0728,0.0649,0.0564,0.0939,0.1062,0.1057,0.1106,0.0887,0.0,0.0,0.0,0.1579,0.1419,0.0,0.0,0.0,0.0,0.0,0.0,0.0,0.0,0.0,0.0,0.2642,0.2373,0.2148,0.0,0.0,0.0,0.0,0.0,0.0,0.0,0.0,0.0,0.0,0.1386,0.07,0.0202,0.0,0.0269,0.0806,0.1545,0.1208,0.0872,0.047,0.0068,-0.0353,-0.0823,-0.0851,-0.0943,-0.1021,-0.103,-0.1114,-0.1274,-0.1142,-0.1168,-0.1365,-0.1383,-0.1408,-0.1436,-0.1436,-0.1436,-0.1437,-0.1356,-0.1366,-0.1196,0.5472,0.0,0.0,0.0,0.0,0.0,0.0,0.0,0.0,0.0,0.3361,0.0,0.1996,0.0,0.1438,0.0,0.0453,0.0387,0.1134,0.1478,0.0,0.2415,0.2286,0.0,0.0,0.0,0.0,0.0,0.0,0.5819,0.0,0.0,0.0,0.0,0.0,0.0,0.0,0.0,0.4129,0.0,0.0,-0.0215,0.0,0.0,0.1371,0.1679,0.0,0.0565,-0.0115,-0.0116,-0.0421,-0.0757,-0.0386,-0.0321,-0.0445,-0.0445,-0.0557,-0.06,-0.06,-0.0119,0.0,0.0452,0.1392,0.0,0.2851,0.0,0.0,0.0,0.0,0.0,0.0,0.0,0.0,0.1344,0.1479,0.1526,0.0,0.1479,0.0,0.0,0.0,0.0,0.0,0.0,0.0792,0.0877,0.0119,-0.0379,0.0,0.0,-0.0336,0.0403,0.0269,0.0067,-0.0202,-0.0605,-0.0913,-0.1219,-0.1245,-0.1257,-0.1335,-0.1335,-0.1335,-0.1337,-0.1278,-0.1303,-0.1334,-0.1363,-0.1393,-0.1421,-0.1431,-0.1436,-0.1436,-0.1436,-0.1461,-0.1504,0.0,0.0,0.0,0.0,0.5716,0.0,0.0,0.0,0.1613,0.0,0.0784,0.0116,-0.0893,-0.0468,-0.047,-0.1255,-0.1575,0.0,-0.0629,0.0272,0.0,0.0,0.0483,0.097,0.1426,0.0,0.0,0.0,0.0,0.0,0.0,0.0,0.0,0.0,0.5486,0.0,0.6793,0.506,0.3837,0.2763,-0.0274,-0.0986,-0.016,-0.0276,0.0336,0.1011,0.0056,-0.0464,-0.0662,-0.0675,-0.0865,-0.0999,-0.0661,-0.0605,-0.0605,-0.0605,-0.0605,-0.0605,-0.0605,-0.0658,-0.0575,-0.0124,0.0,0.0,0.0,0.0,0.1229,0.0,0.0,0.0,0.0,0.0,0.0,0.0045,0.0763,0.1078,0.0,0.0,0.0,0.0,0.0,0.0,0.0,-0.0414,-0.0663,-0.0527,-0.069,0.0,0.0,0.0,-0.1136,-0.1143,-0.0806,-0.0605,-0.0672,-0.1008,-0.1204,-0.1248,-0.1254,-0.1257,-0.1335,-0.1335,-0.1335,-0.1414,-0.1337,-0.1356,-0.1305,-0.1337,-0.1366,-0.1393,-0.1423,-0.1436,-0.1438,-0.1439,-0.1477,-0.1533,0.3034,0.3998,0.4735,0.0,0.435,0.4137,0.0,0.0,0.0,0.0,0.0689,0.0388,-0.0736,-0.0762,-0.0901,-0.1391,-0.1399,0.0,0.0,0.0,0.0,-0.2526,-0.0811,-0.0202,-0.1074,0.0838,0.0,0.0372,0.0,0.0,0.3093,0.0,0.0,0.0,0.0,0.0,0.5601,0.4836,0.3064,0.0609,-0.1112,-0.15,0.0,0.0,-0.1294,-0.066,-0.0427,-0.0805,-0.151,-0.1497,-0.1645,-0.1848,-0.1808,-0.1817,-0.1884,-0.1884,-0.2018,-0.2154,-0.2154,-0.2043,-0.1994,-0.1851,-0.1931,-0.1944,0.0,0.0,0.0,0.0,0.0,0.0,0.0,0.0,0.0,0.0,0.0269,0.0,0.0,0.0,0.0,-0.0225,0.0,0.0,-0.0501,-0.0558,-0.0578,-0.0662,-0.0704,0.0,0.0,0.0,0.0,-0.2149,-0.2018,-0.2221,-0.2627,-0.2154,-0.198,-0.2178,-0.2044,-0.1959,-0.1961,-0.1961,-0.2196,-0.2588,-0.168,-0.1537,-0.1956,-0.1527,-0.1383,-0.1393,-0.1423,-0.1449,-0.1472,-0.1494,-0.1527,-0.1564,0.1288,0.0,0.0,0.2914,0.0,0.0,0.2204,0.0,0.0,-0.1501,-0.1215,0.0,-0.2542,-0.2688,-0.2692,-0.2737,-0.2718,0.0,-0.2475,0.0,0.0,-0.342,-0.2054,-0.1598,-0.227,-0.0739,0.0,-0.052,0.0,0.0,0.2576,0.0,0.0,0.0,0.0,0.4504,0.0,0.3562,0.1091,-0.2021,-0.2219,0.0,0.0,-0.2286,-0.2141,-0.1884,-0.1523,-0.1737,-0.2225,-0.2203,-0.2354,-0.2555,-0.2421,-0.2555,-0.2758,-0.2691,-0.2758,-0.2894,-0.2894,-0.286,-0.2825,-0.2825,-0.2857,-0.2949,-0.3079,-0.2784,-0.2584,0.0,0.0,0.0,0.0,0.0,0.0,0.0,0.0,0.0,0.0,0.0,0.0,0.0,-0.0972,0.0,-0.1036,-0.0734,-0.0662,-0.0883,-0.0874,-0.0736,0.0,0.0,0.0,-0.2622,-0.2753,-0.2815,-0.2815,-0.2597,-0.246,-0.236,-0.2546,-0.2665,-0.2737,-0.2818,-0.3052,-0.3368,-0.2701,-0.2559,-0.2887,-0.2603,-0.2565,-0.2575,-0.2681,-0.2758,-0.2815,-0.2394,-0.1944,-0.1576,0.0,0.0,0.0,0.0,0.0,0.0,0.0,-0.1438,0.0,-0.4029,0.0,-0.3989,-0.5096,-0.5091,-0.4874,-0.453,0.0,-0.4365,-0.3645,-0.2741,-0.2696,-0.3748,-0.3301,-0.3021,-0.3001,-0.2664,0.0,0.0,0.0,0.0,0.0,0.0,0.0,0.0,0.0,0.0,0.0,0.1605,-0.1379,0.0,-0.3449,-0.3237,-0.3421,-0.3043,-0.2916,-0.298,-0.317,-0.3027,-0.276,-0.2755,-0.2889,-0.3023,-0.282,-0.2956,-0.3226,-0.3157,-0.3226,-0.3293,-0.3362,-0.3362,-0.3362,-0.3362,-0.3362,-0.3426,-0.3632,-0.3699,-0.3832,-0.4503,-0.4443,-0.4326,0.0,0.0,0.0,0.0,0.0,0.0,0.0,0.0,0.0,0.0,0.0,0.0,-0.1673,-0.1136,-0.0963,-0.13,0.0,-0.1287,0.0,0.0,0.0,-0.3211,-0.3338,-0.3151,-0.2583,0.0,-0.2931,-0.2493,-0.3076,-0.345,-0.3583,-0.3826,-0.3986,-0.4064,-0.383,-0.383,-0.3923,-0.395,-0.4038,-0.4085,-0.433,-0.4473,-0.4273,-0.3495,-0.2548,-0.1576,0.0,0.0,0.0,0.0,0.0,-0.245,-0.3577,-0.3349,-0.3619,-0.5102,-0.4805,-0.4833,-0.5733,-0.5465,-0.5331,-0.5508,-0.532,0.0,0.0,0.0,0.0,-0.5739,-0.4571,-0.428,-0.5153,-0.4898,-0.4454,0.0,0.0,0.0,0.0,0.0,0.0,0.0,0.0,0.0,0.085,-0.0524,0.0,-0.4838,-0.4611,-0.4676,-0.4913,-0.483,-0.4823,-0.4844,-0.4844,-0.4069,-0.2958,-0.3092,-0.3159,-0.3159,-0.3151,-0.3286,-0.3489,-0.3625,-0.3758,-0.3894,-0.403,-0.41,-0.41,-0.41,-0.41,-0.4097,-0.4159,-0.4156,-0.4289,-0.4561,-0.4573,-0.4493,-0.4326,0.0,0.0,0.0,0.0,0.0,0.0,0.0,0.0,0.0,0.0,0.0,0.0,0.0,0.0,0.0,0.0,0.0,0.0,0.0,0.0,0.0,-0.5153,0.0,0.0,0.0,-0.4327,-0.4517,-0.4415,-0.4302,-0.4283,-0.4441,-0.4836,-0.5231,-0.4219,-0.4064,-0.4548,-0.4114,-0.411,-0.4255,-0.4284,-0.3883,-0.3171,-0.3093,-0.245,-0.1576,0.0,0.0,0.0,0.0,0.0,0.0,0.0,-0.5914,0.0,-0.7003,-0.6475,-0.6349,-0.7106,-0.6904,-0.6603,-0.644,-0.6386,-0.6301,-0.607,-0.5919,-0.6047,-0.6507,-0.5918,0.0,-0.6597,-0.6459,-0.6221,-0.606,0.0,0.0,0.0,0.0,0.0,0.0,0.0,0.0417,0.0,0.0,0.0,-0.5892,-0.5443,-0.5437,-0.5654,-0.5396,-0.5352,-0.5413,-0.5546,-0.5147,-0.4553,-0.435,-0.4353,-0.442,-0.4348,-0.4486,-0.4697,-0.4503,-0.4567,-0.4761,-0.4837,-0.4903,-0.5033,-0.516,-0.5292,-0.5422,-0.5547,-0.5352,-0.5153,-0.5352,-0.536,-0.5417,-0.5594,-0.5319,0.0,0.0,0.0,0.0,0.0,0.0,0.0,0.0,0.0,0.0,0.0,0.0,0.0,0.0,0.0,0.0,0.0,0.0,0.0,0.0,0.0,0.0,0.0,0.0,0.0,-0.4804,-0.5156,-0.5359,-0.5226,-0.5544,-0.5783,-0.5941,-0.5318,-0.524,-0.5494,-0.5429,-0.5499,-0.5733,-0.5918,-0.5583,-0.5007,-0.463,-0.4084,-0.3294,0.0,-0.5849,0.0,0.0,-0.6115,0.0,-0.7304,-0.8225,-0.8853,-0.8825,-0.827,-0.81,-0.8594,-0.8488,-0.8162,-0.7604,-0.7743,-0.7626,-0.7085,-0.7342,-0.7391,-0.7063,-0.7253,-0.7511,-0.7789,-0.7781,-0.7734,0.0,0.0,0.0,0.0,0.0,0.0,0.0,0.0,0.0,0.0,0.0,-0.5349,-0.6894,-0.6162,-0.6104,-0.6311,-0.5954,-0.5876,-0.6002,-0.6172,-0.6346,-0.647,-0.6005,-0.5807,-0.5745,-0.5606,-0.5752,-0.5903,-0.5575,-0.5572,-0.5693,-0.5701,-0.5826,-0.5947,-0.6207,-0.6404,-0.6544,-0.6736,-0.6412,-0.6148,-0.6272,-0.6272,-0.6404,-0.6924,-0.6604,0.0,0.0,0.0,0.0,0.0,0.0,0.0,0.0,0.0,0.0,0.0,0.0,0.0,0.0,0.0,0.0,0.0,0.0,0.0,0.0,0.0,-0.5741,-0.4928,0.0,-0.5696,0.0,-0.5926,-0.6169,-0.6089,-0.6416,-0.65,-0.6342,-0.6342,-0.6366,-0.6428,-0.6634,-0.6902,-0.7166,-0.7444,-0.7181,-0.6633,-0.6162,-0.5588,-0.4843,0.0,0.0,0.0,0.0,0.0,0.0,-0.9465,-0.9447,-0.9485,-0.9896,-0.9865,-0.9826,-0.9758,-0.9718,-0.964,-0.9372,-0.9341,-0.9159,-0.8805,-0.8635,-0.848,-0.825,-0.8493,-0.8643,-0.8666,-0.9149,-0.9156,0.0,0.0,0.0,0.0,0.0,0.0,0.0,0.0,0.0,0.0,-0.5241,-0.6134,-0.7173,-0.6939,-0.7087,-0.7442,-0.7399,-0.7404,-0.7428,-0.7688,-0.7837,-0.7787,-0.7787,-0.7125,-0.6334,-0.6334,-0.6334,-0.6404,-0.6544,-0.6552,-0.6622,-0.6736,-0.6776,-0.6759,-0.6837,-0.6841,-0.6846,-0.6859,-0.6859,-0.6798,-0.6793,-0.6793,-0.6924,-0.7321,-0.7692,-0.7792,0.0,0.0,0.0,0.0,0.0,0.0,0.0,0.0,0.0,0.0,-0.5811,0.0,0.0,0.0,0.0,0.0,0.0,0.0,-0.6037,0.0,-0.6369,-0.6412,-0.6506,-0.6638,-0.6898,-0.6839,-0.674,-0.6531,-0.6567,-0.6581,-0.6578,-0.6578,-0.6688,-0.6968,-0.6891,-0.7,-0.7156,-0.7326,-0.6753,-0.5869,-0.6127,-0.5441,-0.438,0.0,0.0,0.0,0.0,0.0,0.0,0.0,-1.0862,-1.1278,-1.1461,-1.1008,-1.0629,-1.0591,-1.0399,-1.0176,-0.9737,-0.9933,-0.9737,-0.9056,-0.935,-0.931,-0.8781,-0.9538,-0.9862,-0.9603,-1.0268,-1.0311,0.0,0.0,0.0,0.0,0.0,0.0,0.0,0.0,-0.6023,-0.7162,-0.7136,-0.7305,-0.7667,-0.7459,-0.7501,-0.7608,-0.7672,-0.7725,-0.7795,-0.7887,-0.811,-0.8337,-0.8196,-0.7823,-0.7391,-0.7391,-0.7391,-0.7326,-0.7195,-0.7195,-0.7195,-0.7256,-0.7302,-0.7418,-0.7627,-0.7772,-0.7842,-0.7847,-0.7591,-0.7396,-0.7396,-0.7521,-0.7907,-0.8565,-0.8818,-0.8796,0.0,0.0,0.0,0.0,0.0,0.0,0.0,0.0,0.0,0.0,0.0,0.0,0.0,0.0,0.0,0.0,0.0,0.0,-0.6029,0.0,-0.6603,-0.6614,-0.6836,-0.6945,-0.6949,-0.7019,-0.699,-0.6765,-0.6883,-0.6964,-0.6887,-0.7118,-0.7272,-0.7177,-0.7235,-0.7238,-0.7295,-0.7448,-0.7047,-0.6497,-0.6732,-0.6324,-0.5744,-1.3846,0.0,-1.2822,0.0,-1.1872,-1.2025,-1.1561,-1.213,-1.2615,-1.2544,-1.1957,-1.1468,-1.1345,-1.1169,-1.0881,-1.043,-1.0587,-1.0478,-0.9871,-1.0262,-1.0343,-0.9912,-1.0742,0.0,-1.0621,-1.1177,-1.1189,-1.063,-1.0103,0.0,0.0,0.0,0.0,0.0,-0.7285,-0.7883,-0.8738,-0.8522,-0.8416,-0.8293,-0.8084,-0.7991,-0.7993,-0.8055,-0.8158,-0.8291,-0.8368,-0.8628,-0.885,-0.8676,-0.8538,-0.8436,-0.8312,-0.8247,-0.8182,-0.7852,-0.7782,-0.7772,-0.7787,-0.7837,-0.7962,-0.8236,-0.8441,-0.8582,-0.8641,-0.8376,-0.8182,-0.8242,-0.8436,-0.8823,-0.9542,-0.9664,-0.9512,-0.9122,0.0,0.0,0.0,0.0,0.0,0.0,-0.7225,-0.6988,-0.6534,0.0,0.0,0.0,0.0,0.0,0.0,0.0,0.0,0.0,0.0,0.0,0.0,-0.7163,-0.7242,-0.7169,-0.7233,-0.7211,-0.708,-0.7192,-0.7297,-0.7331,-0.7642,-0.7716,-0.7596,-0.762,-0.761,-0.7598,-0.7705,-0.7571,-0.7161,-0.7429,-0.7289,-0.6945,-1.6005,-1.5395,-1.4965,-1.4354,-1.3581,-1.3091,-1.3079,-1.3148,-1.3126,-1.2931,-1.2768,-1.2556,-1.221,-1.2162,-1.2076,-1.181,-1.1591,-1.1572,-1.174,-1.1577,-1.1654,0.0,0.0,-1.2012,-1.1864,-1.1905,-1.1819,-1.1669,0.0,0.0,-0.9343,0.0,-0.7961,-0.831,-0.8875,-0.9198,-0.9274,-0.928,-0.923,-0.9047,-0.8706,-0.8689,-0.8873,-0.9033,-0.9104,-0.9227,-0.9567,-0.96,-0.9512,-0.9512,-0.9512,-0.939,-0.8958,-0.877,-0.877,-0.8576,-0.8517,-0.8517,-0.8517,-0.8517,-0.8517,-0.8517,-0.8641,-0.8835,-0.8958,-0.9145,-0.9338,-0.9454,-0.9472,-0.9606,-0.9926,-1.0002,-1.0066,-1.0275,0.0,0.0,0.0,0.0,0.0,0.0,-0.8538,-0.8803,-0.861,0.0,0.0,0.0,0.0,0.0,0.0,0.0,0.0,-0.6643,-0.6881,0.0,-0.7476,-0.748,-0.7565,-0.7804,-0.7573,-0.7488,-0.7403,-0.7403,-0.7535,-0.7746,-0.8074,-0.8214,-0.8203,-0.8158,-0.8005,-0.7889,-0.821,-0.796,-0.7585,-0.8201,-0.7941,-0.7434,-1.693,-1.6572,-1.6201,-1.5263,-1.452,-1.3954,-1.3689,-1.3656,-1.3522,-1.316,-1.3057,-1.2883,-1.2461,-1.2354,-1.2171,0.0,-1.2312,-1.2452,0.0,-1.2559,-1.2784,-1.2468,-1.291,-1.3007,-1.2645,-1.255,-1.2433,-1.2335,0.0,0.0,0.0,-0.9819,-0.9795,-1.0106,-1.0371,-1.0453,-1.0362,-1.0185,-0.9983,-0.9716,-0.9411,-0.9306,-0.939,-0.9443,-0.9454,-0.9505,-0.9596,-0.991,-1.0237,-1.0237,-1.0329,-1.0351,-1.0021,-0.9582,-0.9151,-0.9087,-0.8958,-0.8829,-0.8829,-0.8829,-0.8894,-0.9022,-0.9087,-0.9145,-0.9332,-0.9396,-0.9524,-0.9786,-0.9856,-0.9989,-1.0371,-1.0434,-1.0434,-1.0485,-1.0345,0.0,0.0,0.0,0.0,0.0,-0.8641,-0.827,0.0,-0.8348,0.0,0.0,0.0,0.0,0.0,0.0,0.0,0.0,-0.6797,0.0,-0.748,-0.761,-0.777,-0.7807,-0.7806,-0.7885,-0.8043,-0.8128,-0.8303,-0.8504,-0.8808,-0.8851,-0.8538,-0.8634,-0.8554,-0.8367,-0.8471,-0.8284,-0.8026,-0.8226,-0.8208,-0.8005,-1.7766,-1.7188,-1.6667,-1.5978,-1.51,-1.4406,-1.4117,-1.4163,-1.4065,-1.3669,-1.3568,-1.3319,-1.2836,-1.2743,0.0,-1.2339,-1.286,-1.3122,-1.2944,-1.3634,-1.3888,-1.3553,-1.3884,-1.3903,-1.3541,0.0,0.0,-1.2967,-1.2186,-1.1625,-1.127,-1.1142,-1.1115,-1.1149,-1.1253,-1.1166,-1.0981,-1.086,-1.0606,-1.0272,-1.0067,-1.0035,-1.0035,-1.0087,-1.0112,-1.0128,-1.0303,-1.065,-1.0959,-1.1078,-1.1156,-1.1233,-1.1094,-1.0654,-1.0161,-0.9524,-0.9268,-0.9204,-0.9204,-0.9204,-0.9204,-0.9332,-0.9402,-0.9536,-0.9786,-0.9907,-1.0034,-1.0174,-1.0244,-1.0378,-1.0561,-1.0624,-1.0624,-1.0624,-1.0624,-1.0624,-1.0624,0.0,0.0,0.0,0.0,0.0,0.0,-0.9169,-0.9369,0.0,0.0,0.0,0.0,0.0,0.0,-0.6933,-0.7285,0.0,-0.7679,-0.7797,-0.7894,-0.7893,-0.7918,-0.8141,-0.8324,-0.8518,-0.8719,-0.8894,-0.9235,-0.9217,-0.8996,-0.9061,-0.8979,-0.8749,-0.8871,-0.8676,-0.8445,-0.8573,-0.8581,-0.8441,-1.849,-1.7391,0.0,0.0,-1.5435,0.0,-1.4438,-1.4592,-1.462,-1.4332,-1.4144,-1.3855,-1.3387,-1.3323,-1.3313,-1.3297,0.0,0.0,0.0,-1.4698,-1.4903,-1.5108,-1.4903,-1.4674,-1.4466,-1.4057,-1.3763,-1.3621,-1.3218,-1.2909,-1.2667,-1.2304,-1.1968,-1.1569,-1.1669,-1.1519,-1.1175,-1.1276,-1.1124,-1.0769,-1.0769,-1.0769,-1.0769,-1.0922,-1.0973,-1.104,-1.155,-1.1678,-1.1613,-1.1959,-1.2089,-1.205,-1.205,-1.1926,-1.1545,-1.0091,-0.9646,-0.9582,-0.9582,-0.9582,-0.9518,-0.9518,-0.9722,-0.9932,-1.0244,-1.0555,-1.0744,-1.0624,-1.0701,-1.0771,-1.0631,-1.0624,-1.0624,-1.0624,-1.0624,-1.0624,-1.0624,0.0,0.0,0.0,0.0,0.0,0.0,-1.0451,-1.0969,0.0,0.0,0.0,0.0,0.0,-0.8312,-0.8206,-0.8421,-0.8387,-0.8094,-0.8106,-0.8097,-0.8054,-0.8005,-0.8109,-0.8404,-0.8508,-0.8806,-0.9114,-0.932,-0.9422,-0.9422,-0.9422,-0.9291,-0.9196,-0.9352,-0.9168,-0.8765,-0.9096,-0.9018,-0.8709,0.0,0.0,-1.7204,-1.7001,-1.587,-1.498,-1.4825,-1.4873,-1.478,-1.4365,-1.4292,-1.4117,-1.3669,-1.4059,-1.4426,-1.4557,-1.4237,-1.4281,-1.4834,-1.5257,-1.548,-1.5582,-1.5424,-1.5244,-1.5074,-1.4605,-1.4082,-1.3621,-1.3515,-1.342,-1.3362,-1.2977,-1.2677,-1.2482,-1.2166,-1.1877,-1.1728,-1.1628,-1.1569,-1.1477,-1.1477,-1.1477,-1.1477,-1.1528,-1.153,-1.155,-1.1833,-1.2091,-1.2408,-1.268,-1.2699,-1.2613,-1.2613,-1.2305,-1.1864,-1.1358,-1.0919,-1.0478,-1.0478,-1.0168,-0.9913,-1.0047,-1.0238,-1.0434,-1.0498,-1.0561,-1.0624,-1.0624,-1.0624,-1.0694,-1.0764,-1.0694,-1.0624,-1.0764,-1.0771,-1.0701,-1.0624,-1.0059,0.0,0.0,-1.023,-1.0296,-1.0627,-1.1149,-1.1648,0.0,0.0,0.0,0.0,-1.1471,-1.0484,-0.9003,-0.9404,-0.9389,-0.8841,-0.8901,-0.8815,-0.8479,-0.8448,-0.8656,-0.887,-0.9001,-0.9213,-0.9525,-0.9525,-0.9525,-0.9525,-0.9525,-0.9493,-0.9445,-0.9559,-0.9449,-0.9204,-0.9292,-0.9296,-0.9168,-1.9741,-1.8593,-1.7584,-1.7301,-1.614,-1.5224,-1.5027,-1.4996,-1.489,-1.4637,-1.4592,-1.4529,-1.4453,-1.4727,-1.5118,-1.5659,-1.5268,-1.5155,-1.5453,-1.5768,-1.5848,-1.5715,-1.5659,-1.5558,-1.539,-1.5108,-1.4777,-1.4373,-1.4186,-1.4046,-1.3952,-1.36,-1.3304,-1.3064,-1.289,-1.2696,-1.2501,-1.2353,-1.2323,-1.2311,-1.1986,-1.1904,-1.1931,-1.1778,-1.1802,-1.1999,-1.229,-1.2604,-1.3046,-1.3334,-1.3425,-1.3346,-1.3346,-1.3155,-1.2903,-1.2842,-1.2104,-1.1303,-1.1185,-1.0926,-1.0744,-1.0681,-1.0751,-1.0814,-1.0814,-1.087,-1.087,-1.0807,-1.087,-1.0996,-1.1136,-1.1087,-1.1108,-1.134,-1.1199,-1.0975,-1.0926,-1.0388,0.0,-1.0873,-1.0725,-1.0837,-1.1376,-1.1854,-1.2179,-1.2278,-1.2263,0.0,-1.2625,-1.238,-1.1579,-1.0327,-1.0492,-1.0259,-0.9363,-0.9132,-0.8896,-0.8568,-0.8568,-0.8748,-0.8958,-0.9104,-0.9217,-0.9525,-0.9529,-0.9628,-0.9628,-0.9628,-0.9628,-0.9628,-0.9628,-0.9567,-0.9478,-0.9478,-0.9478,-0.9478,-1.9993,-1.8888,-1.7862,-1.7433,-1.6318,-1.5418,-1.5225,-1.5134,-1.5043,-1.5025,-1.4932,-1.5001,-1.5351,-1.5435,-1.5774,-1.6556,-1.6388,-1.6214,-1.617,-1.6219,-1.6144,-1.5881,-1.5836,-1.5736,-1.5558,-1.5513,-1.5424,-1.5357,-1.4983,-1.4697,-1.4512,-1.4258,-1.3931,-1.3563,-1.3621,-1.3515,-1.3266,-1.317,-1.3123,-1.3115,-1.2548,-1.2417,-1.2538,-1.2104,-1.2217,-1.2618,-1.2823,-1.3153,-1.3557,-1.3927,-1.401,-1.401,-1.401,-1.401,-1.401,-1.401,-1.3208,-1.2228,-1.1872,-1.1622,-1.1498,-1.1247,-1.1129,-1.1122,-1.1122,-1.1185,-1.1247,-1.1185,-1.1247,-1.1435,-1.163,-1.1652,-1.1759,-1.1974,-1.1585,-1.1262,-1.1296,0.0,-1.0631,-1.1182,-1.1262,-1.1477,-1.1957,-1.2456,-1.2607,-1.2506,-1.2719,-1.2728,-1.2531,-1.2499,-1.229,-1.1867,-1.1623,-1.1043,-0.9946,-0.9257,-0.884,-0.8777,-0.8761,-0.8769,-0.8916,-0.9013,-0.9221,-0.9422,-0.9525,-0.9628,-0.9628,-0.9628,-0.9628,-0.9628,-0.9628,-0.9628,-0.9628,-0.9628,-0.9644,-0.9661,-1.9699,-1.8905,-1.813,-1.7288,-1.6396,-1.5755,-1.5638,-1.5463,-1.5314,-1.5178,-1.5147,-1.5298,-1.5684,-1.6287,-1.6775,-1.7068,-1.7538,-1.7599,-1.706,-1.6765,-1.6595,-1.6552,-1.6163,-1.5913,-1.5748,-1.5603,-1.5468,-1.5468,-1.5424,-1.5289,-1.5176,-1.4766,-1.4536,-1.4384,-1.3952,-1.3773,-1.3716,-1.3563,-1.3519,-1.3504,-1.3412,-1.3668,-1.4003,-1.3126,-1.3352,-1.4017,-1.3552,-1.357,-1.3875,-1.4087,-1.407,-1.401,-1.401,-1.401,-1.401,-1.401,-1.383,-1.3519,-1.2605,-1.1802,-1.1247,-1.1435,-1.131,-1.1122,-1.1122,-1.1122,-1.1185,-1.1498,-1.156,-1.17,-1.2111,-1.205,-1.2027,-1.2228,-1.1598,-1.1157,-1.129,0.0,-1.0982,-1.1012,-1.1923,-1.245,-1.222,-1.2774,-1.3237,-1.3338,-1.3607,-1.3667,-1.3503,-1.3477,-1.3328,-1.3159,-1.2729,-1.2151,-1.1413,-1.0636,-1.0119,-0.9669,-0.9544,-0.9411,-0.9328,-0.9144,-0.9254,-0.9529,-0.9628,-0.9628,-0.9628,-0.9628,-0.9628,-0.9628,-0.9628,-0.9628,-0.9628,-0.9628,-0.9721,-0.9823,-1.9384,-1.8724,-1.81,-1.7341,-1.6637,-1.608,-1.5881,-1.5924,-1.5854,-1.5595,-1.5905,-1.625,-1.6441,-1.6921,-1.7462,-1.8021,-1.8321,-1.8358,-1.8068,-1.7462,-1.7089,-1.7034,-1.668,-1.6349,-1.6013,-1.5792,-1.5647,-1.5647,-1.5558,-1.5468,-1.5379,-1.5232,-1.5096,-1.5062,-1.4743,-1.4558,-1.4512,-1.428,-1.4219,-1.4247,-1.4181,-1.443,-1.4702,-1.4266,-1.452,-1.5043,-1.4476,-1.4551,-1.4802,-1.4569,-1.4446,-1.4359,-1.4318,-1.4258,-1.4258,-1.4258,-1.401,-1.3631,-1.3147,-1.2589,-1.2158,-1.2343,-1.222,-1.2097,-1.2097,-1.205,-1.2058,-1.2182,-1.2182,-1.2182,-1.2583,-1.2605,-1.2642,-1.292,-1.225,0.0,0.0,-1.1631,-1.1465,-1.1954,-1.2445,-1.2798,-1.2885,-1.3245,-1.3557,-1.3796,-1.3936,-1.3919,-1.3893,-1.3737,-1.3652,-1.3398,-1.2705,-1.2186,-1.1843,-1.1189,-1.0686,-1.0517,-1.0445,-1.0413,-1.0491,-1.0327,-1.0251,-1.0044,-1.0044,-0.9937,-0.9628,-0.9525,-0.9525,-0.9628,-0.9525,-0.9525,-0.9628,-0.9525,-0.9573,-0.9734,-1.9127,-1.8607,-1.8083,-1.7408,-1.6835,-1.6483,-1.6444,-1.6561,-1.6595,-1.6479,-1.697,-1.7339,-1.7379,-1.7708,-1.8158,-1.8788,-1.8898,-1.886,-1.8836,-1.8201,-1.7707,-1.753,-1.7186,-1.682,-1.6448,-1.6219,-1.6044,-1.5957,-1.5824,-1.5691,-1.557,-1.557,-1.5513,-1.5513,-1.539,-1.53,-1.5198,-1.4971,-1.4971,-1.5096,-1.5078,-1.5237,-1.5566,-1.5405,-1.5666,-1.6028,-1.545,-1.5435,-1.5664,-1.5164,-1.489,-1.4803,-1.4684,-1.4565,-1.4565,-1.4565,-1.413,-1.37,-1.364,-1.3321,-1.3009,-1.307,-1.307,-1.3009,-1.3009,-1.2969,-1.2989,-1.3112,-1.3046,-1.3103,-1.3422,-1.3484,-1.3557,-1.3701,0.0,0.0,0.0,-1.2165,-1.1924,-1.2639,-1.297,-1.3194,-1.3404,-1.3626,-1.3796,-1.4116,-1.4097,-1.4084,-1.4146,-1.399,-1.3815,-1.3646,-1.279,-1.2357,-1.2357,-1.1817,-1.1526,-1.1399,-1.1405,-1.1387,-1.1441,-1.145,-1.1135,-1.0726,-1.0556,-1.0223,-0.982,-0.9493,-0.9525,-0.9628,-0.9422,-0.9527,-0.9602,-0.9465,-0.9525,-0.9632,-1.8919,-1.8643,-1.828,-1.7369,-1.6965,-1.6987,-1.7668,-1.7503,-1.7521,-1.8128,-1.8222,-1.8298,-1.8557,-1.8931,-1.9133,-1.9066,-1.931,-1.9325,-1.9031,-1.8798,-1.8514,-1.8149,-1.7585,-1.7256,-1.7115,-1.7115,-1.6892,-1.6436,-1.6423,-1.6175,-1.5671,-1.5671,-1.5614,-1.5513,-1.5468,-1.5468,-1.5468,-1.5468,-1.5643,-1.6016,-1.601,-1.648,-1.7157,-1.6321,-1.6565,-1.7236,-1.633,-1.6017,-1.6055,-1.5898,-1.5527,-1.5164,-1.4989,-1.4843,-1.4715,-1.4715,-1.4556,-1.4387,-1.407,-1.3502,-1.307,-1.339,-1.326,-1.3009,-1.3009,-1.3281,-1.36,-1.3924,-1.426,-1.4629,-1.4971,-1.5036,-1.4897,-1.438,0.0,0.0,-1.2843,-1.2465,-1.2315,-1.2476,-1.3306,-1.3696,-1.325,-1.3744,-1.4031,-1.4137,-1.4351,-1.4494,-1.4378,-1.4566,-1.4566,-1.4314,-1.3646,-1.3307,-1.3307,-1.3318,-1.3046,-1.2558,-1.2478,-1.2134,-1.1591,-1.1614,-1.1642,-1.1507,-1.083,-1.0613,-1.0646,-0.9799,-0.9525,-0.9628,-0.9422,-0.9518,-0.9571,-0.9485,-0.9628,-0.9838,-1.8336,-1.8501,-1.8566,-1.7437,-1.774,-1.8114,-1.815,-1.8033,-1.8155,-1.8686,-1.9026,-1.9202,-1.9144,-1.9495,-1.9745,-1.9773,-1.9645,-1.9515,-1.945,-1.9116,-1.8697,-1.8163,-1.8095,-1.7882,-1.7598,-1.738,-1.716,-1.6993,-1.6795,-1.6509,-1.6188,-1.6398,-1.6375,-1.6192,-1.6467,-1.6551,-1.6551,-1.6502,-1.659,-1.6757,-1.7041,-1.7345,-1.763,-1.7573,-1.7741,-1.7984,-1.7334,-1.7049,-1.6922,-1.6595,-1.6285,-1.6029,-1.5884,-1.5633,-1.541,-1.5177,-1.5128,-1.501,-1.4883,-1.4419,-1.395,-1.407,-1.401,-1.4012,-1.425,-1.4356,-1.4531,-1.4897,-1.5009,-1.505,-1.5189,-1.5189,-1.5015,-1.4504,0.0,-1.3561,-1.3279,-1.2935,-1.2903,-1.3404,-1.3793,-1.4001,-1.4015,-1.418,-1.4421,-1.4569,-1.4706,-1.4835,-1.481,-1.4741,-1.465,-1.4566,-1.4314,-1.4068,-1.3828,-1.3758,-1.3504,-1.3165,-1.3345,-1.3285,-1.3046,-1.3006,-1.2853,-1.2496,-1.1947,-1.1376,-1.0721,-1.0125,-0.9731,-0.9628,-0.9422,-0.9466,-0.956,-0.9429,-0.9525,-0.9731,-1.8404,-1.8926,-1.9235,-1.8095,-1.8427,-1.8882,-1.9059,-1.8868,-1.8985,-1.9751,-2.0166,-2.0272,-1.9956,-2.0217,-2.0398,-2.0277,-2.0035,-1.9874,-1.9797,-1.9302,-1.8827,-1.84,-1.8503,-1.845,-1.8108,-1.7868,-1.7787,-1.788,-1.756,-1.7368,-1.7244,-1.7413,-1.7325,-1.6965,-1.7279,-1.7339,-1.7242,-1.7231,-1.7265,-1.7427,-1.7706,-1.7966,-1.8089,-1.8371,-1.8484,-1.8406,-1.8112,-1.7847,-1.7639,-1.7247,-1.6946,-1.6778,-1.6539,-1.6275,-1.6046,-1.5642,-1.5584,-1.5526,-1.541,-1.5069,-1.4734,-1.4684,-1.4565,-1.4616,-1.501,-1.5131,-1.5269,-1.5669,-1.5728,-1.5752,-1.5752,-1.5752,-1.5588,-1.5027,-1.4738,-1.438,-1.3833,-1.3747,-1.3747,-1.3835,-1.4201,-1.437,-1.4218,-1.4409,-1.4705,-1.4779,-1.4889,-1.5005,-1.5159,-1.4999,-1.4908,-1.4908,-1.4824,-1.4657,-1.4419,-1.4196,-1.4031,-1.385,-1.4057,-1.4013,-1.3906,-1.3906,-1.3714,-1.3278,-1.2752,-1.2088,-1.1451,-1.0877,-1.0373,-0.9941,-0.9834,-0.9731,-0.9628,-0.9525,-0.9628,-0.9731,-1.9307,-2.0061,-2.0413,-1.9395,-1.8951,-1.9193,-2.0589,-2.0119,-2.0103,-2.1526,-2.1694,-2.1509,-2.1071,-2.1245,-2.1119,-2.0478,-2.0494,-2.0357,-2.0041,-1.9435,-1.9078,-1.9031,-1.8889,-1.8784,-1.8798,-1.875,-1.8852,-1.91,-1.8919,-1.8832,-1.8813,-1.8688,-1.8329,-1.7821,-1.7821,-1.769,-1.7424,-1.7424,-1.764,-1.7989,-1.801,-1.8231,-1.8602,-1.8612,-1.8585,-1.8616,-1.8608,-1.839,-1.8054,-1.7797,-1.7467,-1.717,-1.6922,-1.6694,-1.6513,-1.6046,-1.5931,-1.5816,-1.5526,-1.541,-1.5352,-1.5088,-1.4743,-1.4616,-1.501,-1.5414,-1.5817,-1.623,-1.6633,-1.6908,-1.6908,-1.6908,-1.6724,-1.62,-1.6087,-1.5711,-1.4486,-1.479,-1.4783,-1.3659,-1.4539,-1.4796,-1.3632,-1.4388,-1.4782,-1.4523,-1.4765,-1.5087,-1.5416,-1.5431,-1.5431,-1.5431,-1.5173,-1.509,-1.509,-1.4884,-1.4656,-1.4488,-1.4609,-1.4378,-1.3906,-1.3906,-1.3912,-1.3894,-1.2894,-1.278,-1.3006,-1.2104,-1.1317,-1.0771,-1.0564,-1.0147,-0.9628,-0.9735,-0.9937,-1.004,-1.9659,-2.078,-2.1574,-2.0103,-2.0153,-2.0528,-2.0883,-2.0738,-2.0894,-2.1724,-2.184,-2.1721,-2.1464,-2.1511,-2.1402,-2.1055,-2.0811,-2.0545,-2.017,-1.998,-1.9874,-1.9839,-1.9221,-1.9147,-1.9764,-1.9555,-1.9703,-2.0231,-2.002,-1.9861,-1.9707,-1.9752,-1.9614,-1.9357,-1.9613,-1.9509,-1.9057,-1.9057,-1.8941,-1.8698,-1.871,-1.8754,-1.8845,-1.8774,-1.8732,-1.8721,-1.8756,-1.8631,-1.8425,-1.8478,-1.8363,-1.8104,-1.7678,-1.7479,-1.7312,-1.6899,-1.6786,-1.6786,-1.6673,-1.6379,-1.5864,-1.5196,-1.5128,-1.5327,-1.5486,-1.5835,-1.6248,-1.6652,-1.6826,-1.6908,-1.6908,-1.6908,-1.6751,-1.6158,-1.6079,-1.5807,-1.5023,-1.5105,-1.5178,-1.5089,-1.5389,-1.5537,-1.5449,-1.588,-1.6213,-1.609,-1.6036,-1.5808,-1.5423,-1.5431,-1.5431,-1.5431,-1.5347,-1.5347,-1.5347,-1.4923,-1.4778,-1.4811,-1.5019,-1.491,-1.4465,-1.4848,-1.4652,-1.4165,-1.3906,-1.3508,-1.3102,-1.2579,-1.2076,-1.1649,-1.1589,-1.1189,-1.0771,-1.0771,-1.0538,-1.0288,-2.068,-2.1322,-2.1867,-2.0815,-2.0951,-2.1252,-2.149,-2.1288,-2.1328,-2.1948,-2.202,-2.1945,-2.1738,-2.1694,-2.1634,-2.1464,-2.1151,-2.0827,-2.0462,-2.0659,-2.0729,-2.0729,-2.018,-1.9885,-1.9987,-1.9883,-2.0177,-2.0809,-2.0855,-2.0923,-2.0985,-2.1015,-2.0887,-2.0569,-2.0735,-2.0597,-2.0207,-2.0016,-1.9786,-1.9485,-1.9348,-1.932,-1.932,-1.9243,-1.9158,-1.9125,-1.9081,-1.8975,-1.8821,-1.8792,-1.8732,-1.8553,-1.8302,-1.8127,-1.7975,-1.7579,-1.7468,-1.7468,-1.7357,-1.7067,-1.6648,-1.6036,-1.5809,-1.5913,-1.6305,-1.6581,-1.6816,-1.7101,-1.7116,-1.7116,-1.6908,-1.6908,-1.676,-1.6491,-1.6428,-1.6184,-1.5641,-1.5715,-1.5777,-1.5548,-1.5788,-1.6001,-1.6073,-1.6522,-1.6767,-1.6651,-1.6476,-1.6072,-1.5431,-1.5431,-1.5431,-1.5431,-1.5431,-1.5431,-1.5431,-1.5082,-1.5043,-1.5203,-1.5301,-1.5339,-1.5184,-1.5343,-1.524,-1.486,-1.4778,-1.4521,-1.4172,-1.3826,-1.3391,-1.3061,-1.2818,-1.2319,-1.18,-1.1865,-1.1649,-1.1194,-2.2053,-2.1836,-2.1668,-2.1635,-2.1524,-2.1632,-2.2248,-2.1773,-2.1559,-2.2169,-2.2242,-2.2152,-2.1928,-2.184,-2.1797,-2.1724,-2.1419,-2.1135,-2.0893,-2.1327,-2.1635,-2.1698,-2.149,-2.0942,-2.0014,-2.0059,-2.0436,-2.1116,-2.1528,-2.1967,-2.2417,-2.2324,-2.1969,-2.1527,-2.1369,-2.114,-2.0845,-2.0497,-2.0271,-2.0233,-1.9932,-1.985,-1.9809,-1.9837,-1.9716,-1.962,-1.9482,-1.9361,-1.9206,-1.8958,-1.8732,-1.8614,-1.8614,-1.8614,-1.8506,-1.8073,-1.7963,-1.7909,-1.7745,-1.7645,-1.76,-1.7477,-1.6949,-1.6624,-1.7223,-1.7439,-1.7453,-1.7522,-1.7539,-1.7401,-1.7047,-1.6978,-1.6978,-1.6978,-1.6978,-1.6802,-1.6278,-1.6558,-1.6549,-1.5506,-1.6035,-1.6374,-1.6017,-1.6587,-1.6876,-1.6571,-1.6535,-1.6312,-1.559,-1.5506,-1.5514,-1.5514,-1.5423,-1.5431,-1.5431,-1.5431,-1.5475,-1.5616,-1.5616,-1.5672,-1.5778,-1.5611,-1.5651,-1.5812,-1.5551,-1.5585,-1.5737,-1.5363,-1.4962,-1.4734,-1.4256,-1.3538,-1.2923,-1.3208,-1.2959,-1.2536,-2.2389,-2.265,-2.2935,-2.2708,-2.2625,-2.26,-2.273,-2.2635,-2.2522,-2.2508,-2.2515,-2.2388,-2.2027,-2.1969,-2.1911,-2.1797,-2.1648,-2.1542,-2.1419,-2.1534,-2.1875,-2.2443,-2.2061,-2.1995,-2.237,-2.1736,-2.1634,-2.2191,-2.2586,-2.2757,-2.2797,-2.2689,-2.2598,-2.2491,-2.2231,-2.1935,-2.1589,-2.1383,-2.1062,-2.0673,-2.0372,-2.022,-2.0118,-1.9889,-1.9775,-1.9737,-1.9724,-1.9709,-1.9656,-1.9349,-1.902,-1.8786,-1.8738,-1.8685,-1.856,-1.8506,-1.8452,-1.8546,-1.8923,-1.8792,-1.8771,-1.955,-1.9388,-1.8814,-1.7686,-1.7617,-1.7891,-1.792,-1.7881,-1.7872,-1.7803,-1.7735,-1.7666,-1.7401,-1.7401,-1.7245,-1.6802,-1.6821,-1.6821,-1.6558,-1.6724,-1.6908,-1.7093,-1.7852,-1.8177,-1.7914,-1.7874,-1.761,-1.7033,-1.6476,-1.6154,-1.6154,-1.5665,-1.5431,-1.5431,-1.5431,-1.5544,-1.5836,-1.5836,-1.5903,-1.6033,-1.6162,-1.6116,-1.5825,-1.594,-1.5954,-1.5825,-1.5737,-1.5471,-1.53,-1.5324,-1.4918,-1.4257,-1.449,-1.4256,-1.3829,-2.3076,-2.3006,-2.3012,-2.3177,-2.3126,-2.3028,-2.2902,-2.2893,-2.2868,-2.2764,-2.2659,-2.2525,-2.2298,-2.2175,-2.2032,-2.1869,-2.1827,-2.1917,-2.2188,-2.2551,-2.3078,-2.3786,-2.3551,-2.3576,-2.3842,-2.3242,-2.2878,-2.2731,-2.3238,-2.3363,-2.3201,-2.3127,-2.3082,-2.3037,-2.2783,-2.254,-2.2296,-2.2016,-2.1708,-2.1418,-2.117,-2.1028,-2.0934,-2.0824,-2.0695,-2.0558,-2.0489,-2.0244,-1.9926,-1.9695,-1.9457,-1.9238,-1.9153,-1.9035,-1.894,-1.8762,-1.8709,-1.8797,-1.9329,-1.9359,-1.9424,-2.0268,-2.0389,-1.9941,-1.8846,-1.8767,-1.8808,-1.8347,-1.8212,-1.8212,-1.8008,-1.8008,-1.7881,-1.7539,-1.7529,-1.7451,-1.6978,-1.6968,-1.7038,-1.6908,-1.6908,-1.7122,-1.7705,-1.8511,-1.8797,-1.8303,-1.8285,-1.8026,-1.7432,-1.7041,-1.6796,-1.6566,-1.6245,-1.5839,-1.5582,-1.5582,-1.5587,-1.5687,-1.5987,-1.6293,-1.6493,-1.6742,-1.6707,-1.6487,-1.6669,-1.6669,-1.6487,-1.6298,-1.6218,-1.634,-1.6224,-1.5934,-1.5631,-1.5765,-1.5406,-1.4988,-2.379,-2.3288,-2.2908,-2.3401,-2.3371,-2.3253,-2.3077,-2.3028,-2.302,-2.2952,-2.2816,-2.2685,-2.2659,-2.246,-2.2271,-2.2199,-2.2199,-2.2458,-2.3102,-2.3717,-2.4365,-2.5059,-2.5041,-2.5022,-2.4977,-2.4657,-2.4056,-2.3136,-2.3686,-2.3809,-2.3581,-2.3509,-2.3466,-2.3319,-2.3083,-2.2979,-2.2934,-2.254,-2.2377,-2.2295,-2.2039,-2.1908,-2.1841,-2.1793,-2.1657,-2.1445,-2.1349,-2.0881,-2.0348,-2.0079,-1.9907,-1.9825,-1.9519,-1.9413,-1.9356,-1.916,-1.9066,-1.9114,-1.9789,-1.9957,-2.007,-2.0721,-2.0895,-2.0754,-2.0289,-2.0064,-1.9802,-1.9008,-1.8818,-1.8684,-1.8405,-1.8279,-1.8076,-1.7735,-1.7794,-1.7647,-1.7176,-1.7245,-1.7235,-1.7107,-1.7209,-1.7587,-1.8205,-1.8955,-1.9167,-1.8655,-1.8488,-1.8214,-1.7755,-1.7602,-1.7367,-1.6976,-1.6894,-1.6476,-1.5899,-1.5899,-1.5741,-1.5521,-1.6095,-1.6544,-1.6784,-1.7047,-1.7223,-1.7326,-1.7326,-1.7326,-1.7232,-1.6864,-1.6958,-1.7246,-1.6834,-1.6697,-1.6692,-1.6692,-1.6362,-1.5967,-2.3998,-2.3885,-2.3787,-2.3756,-2.3725,-2.37,-2.3678,-2.3567,-2.343,-2.3265,-2.3168,-2.3052,-2.2893,-2.2842,-2.297,-2.3346,-2.3369,-2.3575,-2.4089,-2.4191,-2.4593,-2.5297,-2.5246,-2.5444,-2.5983,-2.5842,-2.5114,-2.3793,-2.3989,-2.3979,-2.3852,-2.3625,-2.3509,-2.3466,-2.3319,-2.3275,-2.3231,-2.3187,-2.3024,-2.277,-2.2498,-2.2296,-2.2137,-2.1902,-2.1793,-2.1732,-2.1732,-2.145,-2.1027,-2.0764,-2.045,-2.0091,-1.9826,-1.9581,-1.956,-2.0224,-2.0055,-1.9956,-2.1259,-2.1364,-2.1272,-2.1872,-2.1954,-2.1842,-2.1313,-2.0828,-2.0442,-2.0313,-1.9987,-1.9671,-1.9671,-1.9274,-1.8808,-1.8414,-1.8414,-1.8279,-1.7872,-1.7872,-1.7872,-1.7872,-1.8525,-1.9029,-1.9167,-1.9565,-1.9816,-1.9719,-1.9335,-1.9125,-1.9054,-1.8496,-1.8175,-1.8103,-1.7602,-1.7041,-1.6566,-1.6566,-1.6409,-1.6012,-1.6129,-1.63,-1.644,-1.6477,-1.6799,-1.7326,-1.7326,-1.7326,-1.7326,-1.7232,-1.7153,-1.7073,-1.716,-1.7059,-1.6965,-1.7131,-1.6901,-1.6476,-2.4134,-2.4095,-2.4074,-2.3955,-2.3915,-2.3891,-2.381,-2.3743,-2.3696,-2.3589,-2.3383,-2.3217,-2.3126,-2.2995,-2.3163,-2.3819,-2.386,-2.4265,-2.5207,-2.5244,-2.5488,-2.6051,-2.6,-2.6082,-2.6241,-2.6206,-2.5845,-2.5171,-2.501,-2.4744,-2.4446,-2.4245,-2.4051,-2.3925,-2.3711,-2.3566,-2.3566,-2.3451,-2.3319,-2.3216,-2.2963,-2.2783,-2.2661,-2.2509,-2.2385,-2.2352,-2.2091,-2.1908,-2.169,-2.1188,-2.0914,-2.0679,-2.0154,-1.9965,-1.9949,-2.0506,-2.0526,-2.0575,-2.1791,-2.203,-2.2048,-2.2591,-2.2726,-2.2653,-2.2396,-2.2025,-2.1526,-2.0764,-2.0453,-2.0194,-1.9933,-1.9736,-1.9341,-1.8617,-1.8617,-1.8539,-1.8076,-1.8076,-1.8232,-1.835,-1.9134,-1.9713,-1.9676,-2.0043,-2.0265,-2.0265,-2.0119,-2.006,-2.001,-1.9618,-1.9222,-1.8895,-1.8505,-1.7934,-1.7294,-1.7294,-1.7131,-1.6804,-1.655,-1.6384,-1.6292,-1.6566,-1.6799,-1.7069,-1.7252,-1.7326,-1.7326,-1.7326,-1.7239,-1.7153,-1.7239,-1.7239,-1.7153,-1.7239,-1.7217,-1.7001]},{"header":{"parameterUnit":"m.s-1","parameterCategory":1,"la1":30.6,"la2":28.766,"lo1":-90.7593,"lo2":-88.6598,"dy":0.0162,"dx":0.0183,"nx":116,"ny":114,"refTime":"2023-05-01T12:00:00:Z","depth":0,"parameterNumber":3,"parameterNumberName":"V-component_of_WINDS"},"data":[0.0,0.0,0.0,0.0,0.0,0.0,0.0,0.0,0.0,0.0,0.0,0.0,0.0,0.0,0.0,0.0,0.0,0.0,0.0,0.0,0.0,0.0,0.0,0.0,0.0,0.0,0.0,0.0,0.0,0.0,0.0,0.0,0.0,0.0,0.0,0.0,0.0,0.0,0.0,0.0,0.0,0.0,0.0,0.0,0.0,0.0,0.0,0.0,0.0,0.0,0.0,0.0,0.0,0.0,0.0,0.0,0.0,0.0,0.0,0.0,0.0,0.0,0.0,0.0,0.0,0.0,0.0,0.0,0.0,0.0,0.0,0.0,0.0,0.0,0.0,0.0,0.0,0.0,0.0,0.0,0.0,0.0,0.0,0.0,0.0,0.0,0.0,0.0,0.0,0.0,0.0,0.0,0.0,0.0,0.0,0.0,0.0,0.0,0.0,0.0,0.0,0.0,0.0,0.0,0.0,0.0,0.0,0.0,0.0,0.0,0.0,0.0,0.0,0.0,0.0,0.0,0.0,0.0,0.0,0.0,0.0,0.0,0.0,0.0,0.0,0.0,0.0,0.0,0.0,0.0,0.0,0.0,0.0,0.0,0.0,0.0,0.0,0.0,0.0,0.0,0.0,0.0,0.0,0.0,0.0,0.0,0.0,0.0,0.0,0.0,0.0,0.0,0.0,0.0,0.0,0.0,0.0,0.0,0.0,0.0,0.0,0.0,0.0,0.0,0.0,0.0,0.0,0.0,0.0,0.0,0.0,0.0,0.0,0.0,0.0,0.0,0.0,0.0,0.0,0.0,0.0,0.0,0.0,0.0,0.0,0.0,0.0,0.0,0.0,0.0,0.0,0.0,0.0,0.0,0.0,0.0,0.0,0.0,0.0,0.0,0.0,0.0,0.0,0.0,0.0,0.0,0.0,0.0,0.0,0.0,0.0,0.0,0.0,0.0,0.0,0.0,0.0,0.0,0.0,0.0,0.0,0.0,0.0,0.0,0.0,0.0,0.0,0.0,0.0,0.0,0.0,0.0,0.0,0.0,0.0,0.0,0.0,0.0,0.0,0.0,0.0,0.0,0.0,0.0,0.0,0.0,0.0,0.0,0.0,0.0,0.0,0.0,0.0,0.0,0.0,0.0,0.0,0.0,0.0,0.0,0.0,0.0,0.0,0.0,0.0,0.0,0.0,0.0,0.0,0.0,0.0,0.0,0.0,0.0,0.0,0.0,0.0,0.0,0.0,0.0,0.0,0.0,0.0,0.0,0.0,0.0,0.0,0.0,0.0,0.0,0.0,0.0,0.0,0.0,0.0,0.0,0.0,0.0,0.0,0.0,0.0,0.0,0.0,0.0,0.0,0.0,0.0,0.0,0.0,0.0,0.0,0.0,0.0,0.0,0.0,0.0,0.0,0.0,0.0,0.0,0.0,0.0,0.0,0.0,0.0,0.0,0.0,0.0,0.0,0.0,0.0,0.0,0.0,0.0,0.0,0.0,0.0,0.0,0.0,0.0,0.0,0.0,0.0,0.0,0.0,0.0,0.0,0.0,0.0,0.0,0.0,0.0,0.0,0.0,0.0,0.0,0.0,0.0,0.0,0.0,0.0,0.0,0.0,0.0,0.0,0.0,0.0,0.0,0.0,0.0,0.0,0.0,0.0,0.0,0.0,0.0,0.0,0.0,0.0,0.0,0.0,0.0,0.0,0.0,0.0,0.0,0.0,0.0,0.0,0.0,0.0,0.0,0.0,0.0,0.0,0.0,0.0,0.0,0.0,0.0,0.0,0.0,0.0,0.0,0.0,0.0,0.0,0.0,0.0,0.0,0.0,0.0,0.0,0.0,0.0,0.0,0.0,0.0,0.0,0.0,0.0,0.0,0.0,0.0,0.0,0.0,0.0,0.0,0.0,0.0,0.0,0.0,0.0,0.0,0.0,0.0,0.0,0.0,0.0,0.0,0.0,0.0,0.0,0.0,0.0,0.0,0.0,0.0,0.0,0.0,0.0,0.0,0.0,0.0,0.0,0.0,0.0,0.0,0.0,0.0,0.0,0.0,0.0,0.0,0.0,0.0,0.0,0.0,0.0,0.0,0.0,0.0,0.0,0.0,0.0,0.0,0.0,0.0,0.0,0.0,0.0,0.0,0.0,0.0,0.0,0.0,0.0,0.0,0.0,0.0,0.0,0.0,0.0,0.0,0.0,0.0,0.0,0.0,0.0,0.0,0.0,0.0,0.0,0.0,0.0,0.0,0.0,0.0,0.0,0.0,0.0,0.0,0.0,0.0,0.0,0.0,0.0,0.0,0.0,0.0,0.0,0.0,0.0,0.0,0.0,0.0,0.0,0.0,0.0,0.0,0.0,0.0,0.0,0.0,0.0,0.0,0.0,0.0,0.0,0.0,0.0,0.0,0.0,0.0,0.0,0.0,0.0,0.0,0.0,0.0,0.0,0.0,0.0,0.0,0.0,0.0,0.0,0.0,0.0,0.0,0.0,0.0,0.0,0.0,0.0,0.0,0.0,0.0,0.0,0.0,0.0,0.0,0.0,0.0,0.0,0.0,0.0,0.0,0.0,0.0,0.0,0.0,0.0,0.0,0.0,0.0,0.0,0.0,0.0,0.0,0.0,0.0,0.0,0.0,0.0,0.0,0.0,0.0,0.0,0.0,0.0,0.0,0.0,0.0,0.0,0.0,0.0,0.0,0.0,0.0,0.0,0.0,0.0,0.0,0.0,0.0,0.0,0.0,0.0,0.0,0.0,0.0,0.0,0.0,0.0,0.0,0.0,0.0,0.0,0.0,0.0,0.0,0.0,0.0,0.0,0.0,0.0,0.0,0.0,0.0,0.0,0.0,0.0,0.0,0.0,0.0,0.0,0.0,0.0,0.0,0.0,0.0,0.0,0.0,0.0,0.0,0.0,0.0,0.0,0.0,0.0,0.0,0.0,0.0,0.0,0.0,0.0,0.0,0.0,0.0,0.0,0.0,0.0,0.0,0.0,0.0,0.0,0.0,0.0,0.0,0.0,0.0,0.0,0.0,0.0,0.0,0.0,0.0,0.0,0.0,0.0,0.0,0.0,0.0,0.0,0.0,0.0,0.0,0.0,0.0,0.0,0.0,0.0,0.0,0.0,0.0,0.0,0.0,0.0,0.0,0.0,0.0,0.0,0.0,0.0,0.0,0.0,0.0,0.0,0.0,0.0,0.0,0.0,0.0,0.0,0.0,0.0,0.0,0.0,0.0,0.0,0.0,0.0,0.0,0.0,0.0,0.0,0.0,0.0,0.0,0.0,0.0,0.0,0.0,0.0,0.0,0.0,0.0,0.0,0.0,0.0,0.0,0.0,0.0,0.0,0.0,0.0,0.0,0.0,0.0,0.0,0.0,0.0,0.0,0.0,0.0,0.0,0.0,0.0,0.0,0.0,0.0,0.0,0.0,0.0,0.0,0.0,0.0,0.0,0.0,0.0,0.0,0.0,0.0,0.0,0.0,0.0,0.0,0.0,0.0,0.0,0.0,0.0,0.0,0.0,0.0,0.0,0.0,0.0,0.0,0.0,0.0,0.0,0.0,0.0,0.0,0.0,0.0,0.0,0.0,0.0,0.0,0.0,0.0,0.0,0.0,0.0,0.0,0.0,0.0,0.0,0.0,0.0,0.0,0.0,0.0,0.0,0.0,0.0,0.0,0.0,0.0,0.0,0.0,0.0,0.0,0.0,0.0,0.0,0.0,0.0,0.0,0.0,0.0,0.0,0.0,0.0,0.0,0.0,0.0,0.0,0.0,0.0,0.0,0.0,0.0,0.0,0.0,0.0,0.0,0.0,0.0,0.0,0.0,0.0,0.0,0.0,0.0,0.0,0.0,0.0,0.0,0.0,0.0,0.0,0.0,0.0,0.0,0.0,0.0,0.0,0.0,0.0,0.0,0.0,0.0,0.0,0.0,0.0,0.0,0.0,0.0,0.0,0.0,0.0,0.0,0.0,0.0,0.0,0.0,0.0,0.0,0.0,0.0,0.0,0.0,0.0,0.0,0.0,0.0,0.0,0.0,0.0,0.0,0.0,0.0,0.0,0.0,0.0,0.0,0.0,0.0,0.0,0.0,0.0,0.0,0.0,0.0,0.0,0.0,0.0,0.0,0.0,0.0,0.0,0.0,0.0,0.0,0.0,0.0,0.0,0.0,0.0,0.0,0.0,0.0,0.0,0.0,0.0,0.0,0.0,0.0,0.0,0.0,0.0,0.0,0.0,0.0,0.0,0.0,0.0,0.0,0.0,0.0,0.0,0.0,0.0,0.0,0.0,0.0,0.0,0.0,0.0,0.0,0.0,0.0,0.0,0.0,0.0,0.0,0.0,0.0,0.0,0.0,0.0,0.0,0.0,0.0,0.0,0.0,0.0,0.0,0.0,0.0,0.0,0.0,0.0,0.0,0.0,0.0,0.0,0.0,0.0,0.0,0.0,0.0,0.0,0.0,0.0,0.0,0.0,0.0,0.0,0.0,0.0,0.0,0.0,0.0,0.0,0.0,0.0,0.0,0.0,0.0,0.0,0.0,0.0,0.0,0.0,0.0,0.0,0.0,0.0,0.0,0.0,0.0,0.0,0.0,0.0,0.0,0.0,0.0,0.0,0.0,0.0,0.0,0.0,0.0,0.0,0.0,0.0,0.0,0.0,0.0,0.0,0.0,0.0,0.0,0.0,0.0,0.0,0.0,0.0,0.0,0.0,0.0,0.0,0.0,0.0,0.0,0.0,0.0,0.0,0.0,0.0,0.0,0.0,0.0,0.0,0.0,0.0,0.0,0.0,0.0,0.0,0.0,0.0,0.0,0.0,0.0,0.0,0.0,0.0,0.0,0.0,0.0,0.0,0.0,0.0,0.0,0.0,0.0,0.0,0.0,0.0,0.0,0.0,0.0,0.0,0.0,0.0,0.0,0.0,0.0,0.0,0.0,0.0,0.0,0.0,0.0,0.0,0.0,0.0,0.0,0.0,0.0,0.0,0.0,0.0,0.0,0.0,0.0,0.0,0.0,0.0,0.0,0.0,0.0,0.0,0.0,0.0,0.0,0.0,0.0,0.0,0.0,0.0,0.0,0.0,0.0,0.0,0.0,0.0,0.0,0.0,0.0,0.0,0.0,0.0,0.0,0.0,0.0,0.0,0.0,0.0,0.0,0.0,0.0,0.0,0.0,0.0,0.0,0.0,0.0,0.0,0.0,0.0,0.0,0.0,0.0,0.0,0.0,0.0,0.0,0.0,0.0,0.0,0.0,0.0,0.0,0.0,0.0,0.0,0.0,0.0,0.0,0.0,0.0,0.0,0.0,0.0,0.0,0.0,0.0,0.0,0.0,0.0,0.0,0.0,0.0,0.0,0.0,0.0,0.0,0.0,0.0,0.0,0.0,0.0,0.0,0.0,0.0,0.0,0.0,0.0,0.0,0.0,0.0,0.0,0.0,0.0,0.0,0.0,0.0,0.0,0.0,0.0,0.0,0.0,0.0,0.0,0.0,0.0,0.0,0.0,0.0,0.0,0.0,0.0,0.0,0.0,0.0,0.0,0.0,0.0,0.0,0.0,0.0,0.0,0.0,0.0,0.0,0.0,0.0,0.0,0.0,0.0,0.0,0.0,0.0,0.0,0.0,0.0,0.0,0.0,0.0,0.0,0.0,0.0,0.0,0.0,0.0,0.0,0.0,0.0,0.0,0.0,0.0,0.0,0.0,0.0,0.0,0.0,0.0,0.0,0.0,0.0,0.0,0.0,0.0,0.0,0.0,0.0,0.0,0.0,0.0,0.0,0.0,0.0,0.0,0.0,0.0,0.0,0.0,0.0,0.0,0.0,0.0,0.0,0.0,0.0,0.0,0.0,0.0,0.0,0.0,0.0,0.0,0.0,0.0,0.0,0.0,0.0,0.0,0.0,0.0,0.0,0.0,0.0,0.0,0.0,0.0,0.0,0.0,0.0,0.0,0.0,0.0,0.0,0.0,0.0,0.0,0.0,0.0,0.0,0.0,0.0,0.0,0.0,0.0,0.0,0.0,0.0,0.0,0.0,0.0,0.0,0.0,0.0,0.0,0.0,0.0,0.0,0.0,0.0,0.0,0.0,0.0,0.0,0.0,0.1749,0.0,0.0,0.0,0.0,0.0,0.0,0.0,0.0,0.0,0.0,0.0,0.0,0.0,0.0,0.0,0.0,0.0,0.0,0.0,0.0,0.0,0.0,0.0,0.0,0.0,0.0,0.0,0.0,0.0,0.0,0.0,0.0,0.0,0.0,0.0,0.0,0.0,0.0,0.0,0.0,0.0,0.0,0.0,0.0,0.0,0.0,0.0,0.0,0.0,0.0,0.0,0.0,0.0,0.0,0.0,0.0,0.0,0.0,0.0,0.0,0.0,0.0,0.0,0.0,0.0,0.0,0.0,0.0,0.0,0.0,0.0,0.0,0.0,0.0,0.0,0.0,0.0,0.0,0.0,0.0,0.0,0.0,0.0,0.0,0.0,0.0,0.0,0.0,0.0,0.0,0.0,0.0,0.0,0.0,0.0,0.0,0.0,0.0,0.0,0.0,0.0,0.0,0.0,0.0,0.0,0.0,0.0,0.0,0.0,0.0,0.0,0.0,0.0,0.0,0.0,0.0,0.1666,0.0,0.0,0.0,0.0,0.0,0.0,0.0,0.0,0.0,0.0,0.0,0.0,0.0,0.0,0.0,0.0,0.0,0.0,0.0,0.0,0.0,0.0,0.0,0.0,0.0,0.0,0.0,0.0,0.0,0.0,0.0,0.0,0.0,0.0,0.0,0.0,0.0,0.0,0.0,0.0,0.0,0.0,0.0,0.0,0.0,0.0,0.0,0.0,0.0,0.0,0.0,0.0,0.0,0.0,0.0,0.0,0.0,0.0,0.0,0.0,0.0,0.0,0.0,0.0,0.0,0.0,0.0,0.0,0.0,0.0,0.0,0.0,0.0,0.0,0.0,0.0,0.0,0.0,0.0,0.0,0.0,0.0,0.0,0.0,0.0,0.0,0.0,0.0,0.0,0.0,0.0,0.0,0.0,0.0,0.0,0.0,0.0,0.0,0.0,0.0,0.0,0.0,0.0,0.0,0.0,0.0,0.0,0.0,0.2078,0.2015,0.2106,0.2296,0.2186,0.1829,0.2368,0.2075,0.1255,0.0,0.0,0.0,0.0,0.0,0.0,0.0,0.0,0.0,0.0,0.0,0.0,0.0,0.0,0.0,0.0,0.0,0.0,0.0,0.0,0.0,0.0,0.0,0.0,0.0,0.0,0.0,0.0,0.0,0.0,0.0,0.0,0.0,0.0,0.0,0.0,0.0,0.0,0.0,0.0,0.0,0.0,0.0,0.0,0.0,0.0,0.0,0.0,0.0,0.0,0.0,0.0,0.0,0.0,0.0,0.0,0.0,0.0,0.0,0.0,0.0,0.0,0.0,0.0,0.0,0.0,0.0,0.0,0.0,0.0,0.0,0.0,0.0,0.0,0.0,0.0,0.0,0.0,0.0,0.0,0.0,0.0,0.0,0.0,0.0,0.0,0.0,0.1688,0.1918,0.0,0.0,0.0,0.0,0.0,0.0,0.0,0.0,0.0,0.0,0.0,0.0,0.0,0.0995,0.1235,0.177,0.2497,0.3376,0.2628,0.2615,0.3385,0.3417,0.3589,0.3912,0.349,0.0,0.2807,0.2861,0.0,0.0,0.0,0.0,0.0,0.0,0.0,0.0,0.0,0.0,0.0,0.0,0.0,0.0,0.0,0.0,0.0,0.0,0.0,0.0,0.0,0.0,0.0,0.0,0.0,0.0,0.0,0.0,0.0,0.0,0.0,0.0,0.0,0.0,0.0,0.0,0.0,0.0,0.0,0.0,0.0,0.0,0.0,0.0,0.0,0.0,0.0,0.0,0.0,0.0,0.0,0.0,0.0,0.0,0.0,0.0,0.0,0.0,0.0,0.0,0.0,0.0,0.0,0.0,0.0,0.0,0.0,0.0,0.0,0.0,0.0,0.0,0.0,0.0,0.0,0.0,0.0,0.0,0.0,0.0,0.0,0.0,0.0,0.0,0.0,0.2064,0.2003,0.1644,0.1596,0.161,0.0,0.0,0.0,0.0,0.0,0.0,0.0,0.0,0.0,0.0558,0.1955,0.2712,0.2852,0.312,0.3392,0.3744,0.3318,0.3361,0.3792,0.3967,0.4185,0.4379,0.4199,0.3912,0.3587,0.3239,0.2874,0.2524,0.0,0.0,0.0,0.0,0.2301,0.2387,0.0,0.0,0.0,0.0,0.0,0.0,0.0,0.0,0.0,0.0,0.0,0.0,0.0,0.0,0.0,0.0,0.0,0.0,0.0,0.0,0.0,0.0,0.0,0.0,0.0,0.0,0.0,0.0,0.0,0.0,0.0,0.0,0.0,0.0,0.0,0.0,0.0,0.0,0.0,0.0,0.0,0.0,0.0,0.0,0.0,0.0,0.0,0.0,0.0,0.0,0.0,0.0,0.0,0.0,0.0,0.0,0.0,0.0,0.0,0.0,0.0,0.0,0.0,0.0,0.0,0.0,0.0,0.0,0.0,0.0,0.0,0.0,0.0,0.0,0.0,0.0,0.0,0.2373,0.2399,0.1594,0.1689,0.1712,0.0,0.0,0.0,0.0,0.0,0.0,0.1735,0.1511,0.1609,0.2123,0.3342,0.4008,0.401,0.4107,0.411,0.3956,0.3928,0.3974,0.4153,0.4342,0.4498,0.4568,0.4666,0.4492,0.4142,0.3685,0.3175,0.2687,0.2974,0.2888,0.2635,0.2636,0.2749,0.2972,0.0,0.0,0.0,0.0,0.0,0.0,0.0,0.0,0.0,0.0,0.0,0.0,0.0,0.0,0.0,0.0,0.0,0.0,0.0,0.0,0.0,0.0,0.0,0.0,0.0,0.0,0.0,0.0,0.0,0.0,0.0,0.0,0.0,0.0,0.0,0.0,0.0,0.0,0.0,0.0,0.0,0.0,0.0,0.0,0.0,0.0,0.0,0.0,0.0,0.0,0.0,0.0,0.0,0.0,0.0,0.0,0.0,0.0,0.0,0.0,0.0,0.0,0.0,0.0,0.0,0.0,0.0,0.0,0.0,0.0,0.0,0.0,0.0,0.0,0.0,0.0,0.0,0.0,0.0,0.2386,0.2003,0.0,0.0,0.0,0.0,0.1762,0.1728,0.2232,0.3433,0.2101,0.2482,0.5123,0.4619,0.4315,0.4355,0.4336,0.4208,0.4116,0.4205,0.4411,0.4743,0.468,0.4815,0.4954,0.4957,0.4885,0.4725,0.4338,0.3852,0.3445,0.3677,0.3607,0.3314,0.32,0.3313,0.3547,0.0,0.0,0.0,0.0,0.0,0.0,0.0,0.0,0.0,0.0,0.0,0.0,0.0,0.0,0.0,0.0,0.0,0.0,0.0,0.0,0.0,0.0,0.0,0.0,0.0,0.0,0.0,0.0,0.0,0.0,0.0,0.0,0.0,0.0,0.0,0.0,0.0,0.0,0.0,0.0,0.0,0.0,0.0,0.0,0.0,0.0,0.0,0.0,0.0,0.0,0.0,0.0,0.0,0.0,0.0,0.0,0.0,0.0,0.0,0.0,0.0,0.0,0.0,0.0,0.0,0.0,0.0,0.0,0.0,0.0,0.0,0.0,0.0,0.0,0.0,0.0,0.0,0.0,0.0,0.3053,0.2853,0.0,0.264,0.2726,0.27,0.2415,0.285,0.3138,0.3168,0.306,0.3501,0.4677,0.4618,0.4595,0.4534,0.4599,0.4599,0.4475,0.4645,0.4824,0.5157,0.5432,0.5537,0.5418,0.5388,0.5248,0.5017,0.4984,0.4604,0.4047,0.3923,0.3853,0.3797,0.3653,0.3664,0.3793,0.0,0.0,0.0,0.0,0.0,0.0,0.0,0.0,0.0,0.0,0.0,0.0,0.0,0.0,0.0,0.0,0.0,0.0,0.0,0.0,0.0,0.0,0.0,0.0,0.0,0.0,0.0,0.0,0.0,0.0,0.0,0.0,0.0,0.0,0.0,0.0,0.0,0.0,0.0,0.0,0.0,0.0,0.8746,0.0,0.0,0.0,0.0,0.0,0.0,0.0,0.0,0.0,0.0,0.0,0.0,0.0,0.0,0.0,0.0,0.0,0.0,0.0,0.0,0.0,0.0,0.0,0.0,0.0,0.0,0.0,0.0,0.0,0.0,0.0,0.0,0.0,0.0,0.0,0.354,0.3426,0.3385,0.3271,0.3201,0.3294,0.3279,0.3128,0.3625,0.3721,0.3275,0.3761,0.4129,0.4315,0.4821,0.504,0.4894,0.4919,0.4941,0.4827,0.4993,0.5173,0.5375,0.5659,0.5765,0.5708,0.5674,0.5503,0.5302,0.5355,0.5155,0.4751,0.4464,0.4316,0.4309,0.4241,0.4377,0.4558,0.0,0.0,0.0,0.0,0.0,0.0,0.0,0.0,0.0,0.0,0.0,0.0,0.0,0.0,0.0,0.0,0.0,0.0,0.0,0.0,0.0,0.0,0.0,0.0,0.0,0.0,0.0,0.0,0.0,0.0,0.0,0.0,0.0,0.0,0.0,0.0,0.0,0.0,0.0,0.0,0.0,0.0,0.9858,0.0,0.0,0.0,0.0,0.0,0.0,0.0,0.0,0.0,0.0,0.0,0.0,0.0,0.0,0.0,0.0,0.0,0.0,0.0,0.0,0.0,0.0,0.0,0.0,0.0,0.0,0.0,0.0,0.0,0.0,0.0,0.0,0.0,0.2042,0.3417,0.4207,0.3584,0.3561,0.3582,0.3498,0.3548,0.3638,0.3916,0.4001,0.398,0.3908,0.4217,0.4382,0.438,0.5182,0.5534,0.5382,0.5313,0.5232,0.5101,0.5241,0.5381,0.5528,0.5535,0.5604,0.581,0.581,0.5728,0.5606,0.5538,0.5512,0.5566,0.5267,0.5028,0.497,0.5088,0.5426,0.5803,0.0,0.0,0.0,0.0,0.0,0.0,0.0,0.0,0.0,0.0,0.0,0.0,0.0,0.0,0.0,0.0,0.0,0.0,0.0,0.0,0.0,0.0,0.0,0.0,0.0,0.0,0.0,0.0,0.0,0.0,0.0,0.0,0.0,0.0,0.0,0.0,0.0,0.0,0.0,0.0,0.0,0.0,1.125,0.0,0.0,0.0,0.0,0.0,0.0,0.0,0.0,0.0,0.0,0.0,0.0,0.0,0.0,0.0,0.0,0.0,0.0,0.0,0.0,0.0,0.0,0.0,0.0,0.0,0.0,0.0,0.0,0.0,0.0,0.0,0.0,0.2534,0.299,0.3796,0.4279,0.4176,0.4135,0.403,0.3751,0.3931,0.41,0.4162,0.4224,0.4229,0.4156,0.5206,0.5781,0.5785,0.5861,0.5827,0.562,0.5669,0.5639,0.56,0.5749,0.5821,0.5899,0.6009,0.5999,0.5966,0.5966,0.5881,0.5745,0.5714,0.5708,0.5735,0.537,0.5341,0.555,0.5414,0.5557,0.5714,0.0,0.0,0.0,0.0,0.0,0.0,0.0,0.0,0.0,0.0,0.0,0.0,0.0,0.0,0.0,0.0,0.0,0.0,0.0,0.0,0.0,0.0,0.0,0.0,0.0,0.0,0.0,0.0,0.0,0.0,0.0,0.0,0.0,0.0,0.0,0.0,0.0,0.0,0.0,0.0,0.0,0.0,1.2595,1.1506,1.1037,1.0903,1.0432,1.0003,0.9643,0.9131,0.0,0.0,0.0,0.0,0.0,0.0,0.0,0.0,0.0,0.0,0.0,0.0,0.0,0.0,0.0,0.0,0.0,0.0,0.0,0.0,0.0,0.0,0.0,0.0,0.3798,0.3899,0.4513,0.4609,0.4565,0.4515,0.4404,0.428,0.4211,0.4556,0.4742,0.4541,0.4765,0.4838,0.463,0.5693,0.6279,0.6291,0.6204,0.6003,0.5848,0.5919,0.5962,0.5898,0.6054,0.6125,0.6129,0.622,0.621,0.0,0.619,0.6095,0.5908,0.603,0.601,0.0,0.0,0.0,0.0,0.0,0.5734,0.5666,0.0,0.0,0.0,0.0,0.0,0.0,0.0,0.0,0.0,0.0,0.0,0.0,0.0,0.0,0.0,0.0,0.0,0.0,0.0,0.0,0.0,0.0,0.0,0.0,0.0,0.0,0.0,0.0,0.0,0.0,0.0,0.0,0.0,0.0,0.0,0.0,0.0,0.0,0.0,0.0,0.0,0.0,1.3679,1.2809,1.2161,1.1727,1.1552,1.0934,1.0158,0.9871,0.0,0.0,0.0,0.0,0.0,0.0,0.0,0.0,0.0,0.0,0.0,0.0,0.0,0.0,0.0,0.0,0.0,0.0,0.0,0.0,0.0,0.0,0.0,0.0,0.4721,0.5176,0.6143,0.5844,0.538,0.5047,0.486,0.4795,0.493,0.5296,0.5381,0.5084,0.5689,0.5845,0.522,0.0,0.0,0.0,0.0,0.6252,0.607,0.6246,0.6193,0.6057,0.6196,0.6338,0.6338,0.6338,0.6338,0.6345,0.6393,0.6298,0.6074,0.6339,0.6302,0.6064,0.5911,0.5935,0.6071,0.621,0.6023,0.5604,0.0,0.0,0.0,0.0,0.0,0.0,0.0,0.0,0.0,0.0,0.0,0.0,0.0,0.0,0.0,0.0,0.0,0.0,0.0,0.0,0.0,0.0,0.0,0.0,0.0,0.0,0.0,0.0,0.0,0.0,0.0,0.0,0.0,0.0,0.0,0.0,0.0,0.0,0.0,0.0,0.0,0.0,1.36,1.3424,1.33,1.3078,1.2259,1.2263,1.2513,1.1284,1.1023,1.091,0.9663,0.0,0.0,0.0,0.0,0.0,0.0,0.0,0.0,0.0,0.0,0.0,0.0,0.0,0.0,0.0,0.0,0.0,0.0,0.0,0.0,0.6221,0.6062,0.6078,0.663,0.7733,0.8095,0.7263,0.734,0.7118,0.6172,0.5833,0.5956,0.6627,0.7593,0.7561,0.6106,0.618,0.0,0.6338,0.6338,0.6318,0.628,0.6318,0.6247,0.6217,0.0,0.0,0.6338,0.6338,0.6338,0.6264,0.6288,0.6271,0.622,0.6278,0.6335,0.6373,0.623,0.619,0.622,0.6251,0.624,0.6123,0.0,0.0,0.0,0.0,0.0,0.0,0.0,0.0,0.0,0.0,0.0,0.0,0.0,0.0,0.0,0.0,0.0,0.0,0.0,0.0,0.0,0.0,0.0,0.0,0.0,0.0,0.0,0.0,0.0,0.0,0.0,0.0,0.0,0.0,0.0,0.0,0.0,0.0,0.0,0.0,0.0,0.0,1.4393,1.4304,1.4304,1.4242,1.3738,1.3669,1.3721,1.2691,1.2208,1.1778,1.0575,1.0202,0.9925,0.0,0.0,0.0,0.0,0.0,0.0,0.0,0.0,0.0,0.0,0.0,0.0,0.0,0.0,0.5144,0.0,0.0,0.7118,0.7766,0.7789,0.785,0.8365,0.9261,0.9629,0.896,0.9036,0.8686,0.7481,0.7217,0.6978,0.6623,0.7289,0.7315,0.6318,0.6716,0.7013,0.7176,0.6947,0.6834,0.6834,0.66,0.6481,0.6481,0.6481,0.6481,0.6481,0.6481,0.6481,0.6485,0.6563,0.6552,0.6474,0.6396,0.6454,0.6573,0.6424,0.6366,0.6359,0.6288,0.6305,0.6356,0.0,0.0,0.0,0.0,0.0,0.0,0.0,0.0,0.0,0.0,0.0,0.0,0.0,0.0,0.0,0.0,0.0,0.0,0.0,0.0,0.0,0.0,0.0,0.0,0.0,0.0,0.0,0.0,0.0,0.0,0.0,0.0,0.0,0.0,0.0,0.0,0.0,0.0,0.0,0.0,0.0,0.0,1.5637,1.5444,1.5225,1.5029,1.4894,1.4562,1.4117,1.3659,1.304,1.2282,1.1494,1.0999,1.0563,0.9584,0.9265,0.0,0.0,0.0,0.0,0.0,0.0,0.0,0.0,0.0,0.5042,0.5183,0.599,0.6759,0.6902,0.7785,0.8699,0.9316,0.9451,0.9759,1.0418,1.0466,1.0449,1.031,1.0221,0.9864,0.898,0.8878,0.8251,0.6726,0.6679,0.6874,0.7025,0.7795,0.8247,0.8308,0.8023,0.7721,0.7476,0.7047,0.6864,0.6702,0.6702,0.6702,0.6702,0.6702,0.6702,0.6709,0.6831,0.6814,0.6692,0.6566,0.6607,0.6729,0.6576,0.6536,0.6542,0.64,0.642,0.6515,0.0,0.0,0.0,0.0,0.0,0.0,0.0,0.0,0.0,0.0,0.0,0.0,0.0,0.0,0.0,0.0,0.0,0.0,0.0,0.0,0.0,0.0,0.0,0.0,0.0,0.0,0.0,0.0,0.0,0.0,0.0,0.0,0.0,0.0,0.0,0.0,0.0,0.0,0.0,0.0,0.0,0.0,1.7228,1.6877,1.6098,1.5122,1.4582,1.4086,1.3683,1.3594,1.305,1.2424,1.2701,1.2455,1.1836,1.0462,0.0,0.9056,0.7504,0.6245,0.0,0.5236,0.5571,0.6063,0.0,0.0,0.7775,0.7997,0.8323,0.8517,0.8471,0.9336,1.0277,1.069,1.0767,1.1024,1.1697,1.1264,1.0968,1.1155,1.1177,1.1086,1.0995,1.0221,0.9339,0.8413,0.7571,0.7797,0.9384,1.0396,1.0326,0.9104,0.9219,0.8823,0.7659,0.76,0.7278,0.6702,0.6702,0.6702,0.6702,0.6702,0.6702,0.6702,0.6719,0.6715,0.6698,0.6681,0.6766,0.6888,0.6732,0.6759,0.6858,0.6709,0.6661,0.6675,0.0,0.0,0.0,0.0,0.0,0.0,0.0,0.0,0.0,0.0,0.0,0.0,0.0,0.0,0.0,0.0,0.0,0.0,0.0,0.0,0.0,0.0,0.0,0.0,0.0,0.0,0.0,0.0,0.0,0.0,0.0,0.0,0.0,0.0,0.0,0.0,0.0,0.0,0.0,0.0,0.0,0.0,1.6995,1.6609,1.5718,1.4765,1.4466,1.3897,0.0,0.0,1.2487,1.2014,1.24,1.2034,1.1361,1.08,1.0382,0.0,0.9128,0.0,0.0,0.0,0.7844,0.8269,0.821,0.8541,0.8908,0.9317,0.9708,1.0058,1.0471,1.1078,1.1669,0.0,1.1957,1.2122,1.2328,1.2056,1.1767,1.187,1.1882,1.168,1.1123,1.089,1.0393,0.9446,1.0008,1.07,1.1514,1.1144,1.0751,1.0461,1.0003,0.9521,0.9007,0.8611,0.8239,0.7979,0.7558,0.7304,0.7304,0.7042,0.6956,0.6956,0.6956,0.6956,0.6949,0.6868,0.6973,0.7163,0.6926,0.698,0.7146,0.682,0.6756,0.6834,0.0,0.0,0.0,0.0,0.0,0.0,0.0,0.0,0.0,0.0,0.0,0.0,0.0,0.0,0.0,0.0,0.0,0.0,0.0,0.0,0.0,0.0,0.0,0.0,0.0,0.0,0.0,0.0,0.0,0.0,0.0,0.0,0.0,0.0,0.0,0.0,0.0,0.0,0.0,0.0,0.0,0.0,1.6646,1.6077,1.5065,1.398,1.3969,1.3315,0.0,0.0,1.1561,1.1113,1.1553,1.116,1.0536,1.0483,1.0338,1.0092,0.9849,0.0,0.0,0.9019,0.9551,1.0027,0.9726,0.9954,1.0396,1.074,1.1072,1.1487,1.2035,1.2348,1.2596,1.2765,1.2894,1.2961,1.2717,1.2542,1.2397,1.2324,1.2252,1.2058,1.1448,1.1563,1.1408,1.0797,1.1935,1.2577,1.2296,1.1433,1.11,1.1258,1.0863,1.0494,1.0323,0.9859,0.9522,0.9309,0.873,0.8355,0.8004,0.7425,0.7139,0.7139,0.7139,0.7139,0.7132,0.7031,0.7139,0.735,0.7132,0.7207,0.7394,0.7068,0.699,0.7051,0.0,0.0,0.0,0.0,0.0,0.0,0.0,0.0,0.0,0.0,0.0,0.0,0.0,0.0,0.0,0.0,0.0,0.0,0.0,0.0,0.0,0.0,0.0,0.0,0.0,0.0,0.0,0.0,0.0,0.0,0.0,0.0,0.0,0.0,0.0,0.0,0.0,0.0,0.0,0.0,0.0,0.0,1.6695,1.5772,1.4266,1.266,1.2797,0.0,0.0,0.0,1.0341,0.9664,1.0272,1.0136,0.0,0.9444,0.9132,0.0,0.0,0.0,0.8968,0.9122,0.9871,1.0684,1.1252,1.2027,1.2637,1.2931,1.2775,1.2693,1.2959,1.2997,1.2991,1.2997,1.3442,1.3523,1.2826,1.2699,1.2596,1.2343,1.227,1.2314,0.0,1.2656,1.2619,1.2613,1.2705,1.2324,1.136,1.1747,1.1776,1.1283,1.1944,1.2026,1.1389,1.1305,1.097,1.026,1.0243,0.9611,0.8525,0.756,0.7139,0.7139,0.7139,0.7139,0.7139,0.7136,0.7227,0.737,0.736,0.7455,0.759,0.7577,0.7482,0.7356,0.0,0.0,0.0,0.0,0.0,0.0,0.0,0.0,0.0,0.0,0.0,0.0,0.0,0.0,0.0,0.0,0.0,0.0,0.0,0.0,0.0,0.0,0.0,0.0,0.0,0.0,0.0,0.0,0.0,0.0,0.0,0.0,0.0,0.0,0.0,0.0,0.0,0.0,0.0,0.0,0.0,0.0,1.5712,1.4159,1.2938,1.1894,0.0,0.0,0.0,0.0,0.0,0.9031,0.9366,0.0,0.0,0.9023,0.9225,0.9522,0.9757,0.0,1.0467,1.0755,1.1295,1.1828,1.2448,1.2742,1.3012,1.3103,1.2481,1.1896,1.197,1.1735,1.1606,1.1975,1.2634,1.2979,1.2717,1.2868,1.2753,1.2306,1.2377,0.0,0.0,0.0,0.0,1.2693,1.2705,1.2577,1.224,1.2394,1.2604,1.273,1.2678,1.2564,1.2287,1.2196,1.2053,1.1763,1.1217,1.0285,0.8808,0.8599,0.8022,0.7299,0.74,0.7444,0.7444,0.7444,0.7529,0.7655,0.756,0.7611,0.7729,0.7634,0.7533,0.7367,0.0,0.0,0.0,0.0,0.0,0.0,0.0,0.0,0.0,0.0,0.0,0.0,0.0,0.0,0.0,0.0,0.0,0.0,0.0,0.0,0.0,0.0,0.0,0.0,0.0,0.0,0.0,0.0,0.0,0.0,0.0,0.0,0.0,0.0,0.0,0.0,0.0,0.0,0.0,0.0,0.0,0.0,1.3834,1.2386,1.131,0.0,0.0,0.0,0.0,0.0,0.0,0.0,0.0,0.8193,0.8162,0.8606,0.9263,0.9973,1.0616,1.124,1.1777,1.1988,1.2431,1.2831,1.3181,1.3115,1.2946,1.2856,1.1994,1.1285,1.1452,1.0938,1.0748,1.1353,1.1981,1.2398,1.2524,1.2717,1.2681,1.2435,1.2236,1.1879,0.0,0.0,0.0,1.2693,1.3083,1.3151,1.2972,1.3133,1.3296,1.3607,1.3362,1.3193,1.3193,1.3101,1.3009,1.3009,1.2069,1.0969,0.9736,0.9334,0.8652,0.7643,0.765,0.76,0.76,0.76,0.7682,0.7801,0.7709,0.7767,0.7882,0.779,0.7721,0.7583,0.0,0.0,0.0,0.0,0.0,0.0,0.0,0.0,0.0,0.0,0.0,0.0,0.0,0.0,0.0,0.0,0.0,0.0,0.0,0.0,0.0,0.0,0.0,0.0,0.0,0.0,0.0,0.0,0.0,0.0,0.0,0.0,0.0,0.0,0.0,0.0,0.0,0.0,0.0,0.0,0.0,0.0,1.1368,1.0576,0.0,0.0,0.0,0.0,0.0,0.0,0.0,0.0,0.0,0.7203,0.7494,0.829,0.921,1.0185,1.1171,1.2069,1.2773,1.2766,1.3221,1.3604,1.3586,1.3173,1.2705,1.233,1.1433,1.0773,0.0,0.0,1.0431,1.1262,1.1646,1.1916,1.2328,1.229,1.2386,0.0,0.0,0.0,0.0,0.0,0.0,1.2747,0.0,1.402,1.3535,1.3693,1.3835,1.3835,1.389,1.3924,1.3924,1.3924,1.3924,1.393,1.2786,1.1926,1.1248,0.9934,0.8828,0.7983,0.7712,0.7621,0.7621,0.7624,0.7702,0.7824,0.7824,0.7913,0.7942,0.7942,0.7939,0.7918,0.0,0.0,0.0,0.0,0.0,0.0,0.0,0.0,0.0,0.0,0.0,0.0,0.0,0.0,0.0,0.0,0.0,0.0,0.0,0.0,0.0,0.0,0.0,0.0,0.0,0.0,0.0,0.0,0.0,0.0,0.0,0.0,0.0,0.0,0.0,0.0,0.0,0.0,0.0,0.0,0.0,0.0,1.0414,0.0,0.0,0.0,0.0,0.0,0.0,0.0,0.0,0.0,0.0,0.7474,0.7788,0.8896,0.9838,1.0633,1.1756,1.2661,1.3407,1.4002,1.4314,1.4366,1.4242,1.3911,1.3445,1.258,1.1211,1.0155,0.0,0.0,0.0,1.0732,1.1597,0.0,1.2831,1.3159,0.0,1.2768,0.0,1.3452,1.3442,1.3051,0.0,0.0,1.3787,1.3609,1.3507,1.3762,1.4007,1.4211,1.4169,1.4195,1.4195,1.4195,1.4195,1.4195,1.3909,1.2846,1.1257,1.1067,1.0075,0.8438,0.8265,0.8217,0.8217,0.8024,0.7946,0.7882,0.7687,0.771,0.7643,0.7437,0.7241,0.7138,0.0,0.0,0.0,0.0,0.0,0.0,0.0,0.0,0.0,0.0,0.0,0.0,0.0,0.0,0.0,0.0,0.0,0.0,0.0,0.0,0.0,0.0,0.0,0.0,0.0,0.0,0.0,0.0,0.0,0.0,0.0,0.0,0.0,0.0,0.0,0.0,0.0,0.0,0.0,0.0,0.0,0.0,0.0,0.0,0.0,0.0,0.0,0.0,0.0,0.0,0.0,0.685,0.6958,0.7052,0.7526,0.9066,0.0,1.0708,1.1995,1.3064,1.392,1.427,1.4513,1.4495,1.3704,1.3199,1.2473,1.1038,0.9867,0.0,0.0,0.0,0.0,0.0,0.0,0.0,1.2469,1.2955,1.3357,0.0,1.3964,0.0,1.4334,1.3738,1.3682,0.0,1.4054,1.3835,1.3878,1.4036,1.4181,1.4288,1.4321,1.4298,1.4298,1.4298,1.4298,1.4298,1.4298,1.3538,1.2066,1.1706,1.0821,0.9385,0.0,0.8528,0.8333,0.8137,0.8038,0.7942,0.754,0.7543,0.7547,0.7338,0.7138,0.6942,0.0,0.0,0.0,0.0,0.0,0.0,0.0,0.0,0.0,0.0,0.0,0.0,0.0,0.0,0.0,0.0,0.0,0.0,0.0,0.0,0.0,0.0,0.0,0.0,0.0,0.0,0.0,0.0,0.0,0.0,0.0,0.0,0.0,0.0,0.0,0.0,0.0,0.0,0.0,0.0,0.0,0.0,0.0,0.0,0.0,0.0,0.0,0.0,0.0,0.0,0.565,0.6474,0.6472,0.6541,0.7048,0.8889,0.9674,1.0328,1.2015,1.3205,1.4034,1.4066,1.4322,1.4103,1.2744,1.1936,1.0962,0.9169,0.0,0.8037,0.8398,0.8013,0.8097,0.9509,0.0,1.055,1.1842,1.2451,1.3063,1.4204,1.4316,1.4291,1.4258,1.4334,1.4272,1.4272,1.4272,1.4272,1.4272,1.4279,1.4298,1.4298,1.4298,1.4298,1.4298,1.4298,1.4298,1.4298,1.4298,1.3902,1.3028,1.2052,1.1184,1.0314,0.0,0.0,0.863,0.8237,0.8038,0.8038,0.7437,0.7341,0.7444,0.7238,0.7135,0.7039,0.0,0.0,0.0,0.0,0.0,0.0,0.0,0.0,0.0,0.0,-0.3106,-0.2902,0.0,0.0,0.0,0.0,0.0,0.0,0.0,0.0,0.0,0.0,0.0,0.0,0.0,0.0,0.0,0.0,0.0,0.0,0.0,0.0,0.0,0.0,0.0,0.0,0.0,0.0,0.0,0.0,0.0,0.0,0.0,0.0,0.0,0.0,0.0,0.0,0.0,0.0,0.5006,0.6412,0.6577,0.6805,0.723,0.8273,0.8861,0.9604,1.1572,1.2346,1.2962,1.4422,1.4391,1.3832,1.3198,1.2134,0.0,0.0,0.0,0.8217,0.9003,0.8776,0.8957,1.0461,0.0,0.0,0.0,0.0,1.3076,0.0,0.0,0.0,0.0,0.0,0.0,0.0,0.0,1.4333,1.4333,1.4274,1.4298,1.4298,1.4298,1.4298,1.4298,1.4298,1.4298,1.4298,1.4298,1.3817,1.2856,1.217,1.1389,1.0314,0.9525,0.0,0.9624,0.873,0.8432,0.8528,0.7534,0.7138,0.6942,0.6637,0.6537,0.6537,0.0,0.0,0.0,0.0,0.0,0.0,0.0,-0.3153,-0.3264,-0.4161,-0.3688,-0.3275,-0.3261,-0.3366,0.0,0.0,0.0,0.0,0.0,0.0,0.0,0.0,0.0,0.0,0.0,0.0,0.0,0.0,0.0,0.0,0.0,0.0,0.0,0.0,0.0,0.0,0.0,0.0,0.0,0.0,0.0,0.0,0.0,0.0,0.0,0.0,0.0,0.0,0.0,0.0,0.3726,0.5128,0.6622,0.6687,0.6714,0.8686,0.8938,0.8871,1.0489,1.1663,1.248,1.3097,1.3387,1.3098,1.1685,0.0,0.0,0.0,0.0,0.7164,0.7866,0.0,0.0,0.0,0.0,0.0,0.0,0.0,0.0,0.0,0.0,0.0,0.0,0.0,0.0,0.0,0.0,1.4316,1.4298,1.4298,1.4298,1.4298,1.4298,1.4298,1.4298,1.4208,1.4112,1.4112,1.3919,1.363,1.3152,1.2175,1.1487,1.0998,0.992,0.0,0.9529,0.8733,0.8432,0.8333,0.7338,0.6942,0.6742,0.6537,0.6437,0.6337,0.0,0.0,0.0,0.0,0.0,0.0,0.0,-0.3521,-0.3665,-0.4645,-0.422,-0.3777,-0.3628,-0.3512,-0.3442,0.0,0.0,0.0,0.0,0.0,0.0,0.0,0.0,0.0,0.0,0.0,0.0,0.0,0.0,0.0,0.0,0.0,0.0,0.0,0.0,0.0,0.0,0.0,0.0,0.0,0.0,0.0,0.0,0.0,0.0,0.0,0.0,0.0,0.0,0.0,0.2319,0.3519,0.5938,0.6152,0.5902,0.8313,0.8336,0.7976,0.9364,1.0658,1.1599,1.1622,1.1876,1.1762,1.0025,0.9051,0.0,0.0,0.5972,0.6129,0.667,0.0,0.0,0.0,0.0,0.0,0.0,0.0,0.0,0.0,0.0,0.0,0.0,0.0,0.0,0.0,0.0,0.0,1.4298,1.4304,1.4304,1.4202,1.4304,1.4208,1.4106,1.4022,1.3835,1.3835,1.3636,1.3443,1.3346,1.2268,1.1688,1.1389,1.0216,0.0,0.0,0.863,0.8333,0.8038,0.7241,0.6845,0.6742,0.6537,0.6437,0.6337,0.0,0.0,0.0,0.0,0.0,0.0,0.0,-0.3927,-0.4359,-0.4347,-0.43,-0.4167,-0.3977,-0.3731,-0.3582,0.0,0.0,0.0,0.0,0.0,0.0,0.0,0.0,0.0,0.0,0.0,0.0,0.0,0.0,0.0,0.0,0.0,0.0,0.0,0.0,0.0,0.0,0.0,0.0,0.0,0.0,0.0,0.0,0.0,0.0,0.0,0.0,0.0,0.0,0.0,0.0,0.2003,0.3883,0.4751,0.517,0.5702,0.0,0.0,0.8221,0.8901,0.9527,1.1155,1.0444,0.9329,0.9576,0.0,0.0,0.6203,0.5914,0.5908,0.6569,0.6756,0.0,0.0,0.0,0.0,0.0,0.0,0.0,0.0,0.0,0.0,0.0,0.0,0.0,0.0,0.0,0.0,1.4298,1.4334,1.4142,1.3829,1.4142,1.4045,1.3539,1.3835,1.3738,1.3539,1.3539,1.3346,1.3147,1.2565,1.178,1.0801,1.0216,0.0,0.0,0.8726,0.8531,0.8627,0.7534,0.7042,0.6742,0.6537,0.6437,0.6437,0.0,0.0,0.0,0.0,0.0,0.0,-0.3895,-0.3989,-0.4277,-0.4983,-0.4909,-0.4641,-0.4273,-0.4534,-0.4329,0.0,0.0,0.0,0.0,0.0,0.0,0.0,0.0,0.0,0.0,0.0,0.0,0.0,0.0,0.0,0.0,0.0,0.0,0.0,0.0,0.0,0.0,0.0,0.0,0.0,0.0,0.0,0.0,0.0,0.0,0.0,0.0,0.0,0.0,0.0,0.0,0.0,0.1728,0.2525,0.0,0.0,0.5553,0.5499,0.6703,0.7359,0.7931,0.8562,0.8308,0.7836,0.7618,0.0,0.6042,0.5571,0.5476,0.5559,0.5826,0.5961,0.6201,0.0,0.0,0.0,0.0,0.0,0.0,0.0,0.0,0.0,0.0,0.0,0.0,0.0,0.0,0.0,1.3715,1.4057,1.3955,1.3216,1.3323,1.3426,1.3335,1.3437,1.3346,1.3249,1.3152,1.305,1.2861,1.1878,1.1194,1.0703,0.9719,0.0,0.0,0.863,0.8432,0.8726,0.7437,0.6842,0.6539,0.6437,0.6437,0.6337,0.0,0.0,0.0,0.0,0.0,-0.3662,-0.4143,-0.4168,-0.4441,-0.5344,-0.5395,-0.5179,-0.4773,-0.5112,-0.4873,-0.357,0.0,0.0,0.0,0.0,0.0,0.0,0.0,0.0,0.0,0.0,0.0,0.0,0.0,0.0,0.0,0.0,0.0,0.0,0.0,0.0,0.0,0.0,0.0,0.0,0.0,0.0,0.0,0.0,0.0,0.0,0.0,0.0,0.0,0.0,0.0,0.0,0.0,0.0,0.0,0.0,0.454,0.4454,0.5206,0.5973,0.659,0.6644,0.6679,0.654,0.0,0.0,0.5327,0.4803,0.4985,0.5125,0.4893,0.5101,0.519,0.0,0.0,0.6376,0.0,0.0,0.0,0.0,0.0,0.0,0.0,0.0,0.0,0.0,0.0,0.0,0.0,1.318,1.3169,1.2818,1.292,1.3028,1.3141,1.3147,1.305,1.305,1.2861,1.2764,1.2764,1.1785,1.1194,1.0998,0.0,0.0,0.0,0.8432,0.8134,0.8627,0.7341,0.6642,0.6537,0.6337,0.6237,0.6237,0.0,0.0,0.0,0.0,0.0,0.0,-0.3795,-0.453,-0.5099,-0.5093,-0.5569,-0.5789,-0.5528,-0.5257,-0.501,-0.4792,0.0,0.0,0.0,0.0,0.0,0.0,0.0,0.0,0.0,0.0,0.0,0.0,0.0,0.0,0.0,0.0,0.0,0.0,0.0,0.0,0.0,0.0,0.0,0.0,0.0,0.0,0.0,0.0,0.0,0.0,0.0,0.0,0.0,0.0,0.0,0.0,0.0,0.0,0.0,0.0,0.2437,0.3358,0.4183,0.4847,0.5512,0.6278,0.5817,0.5191,0.0,0.0,0.428,0.3913,0.4433,0.4759,0.3972,0.4195,0.4311,0.3644,0.0,0.0,0.0,0.0,0.0,0.0,0.0,0.0,0.0,0.0,0.0,0.0,0.0,0.0,0.0,1.1614,1.1693,1.2737,1.3147,1.3158,1.2764,1.2953,1.2953,1.2764,1.2764,1.2764,1.2764,1.2467,1.2078,0.0,0.0,0.0,0.0,0.8131,0.7832,0.8627,0.7341,0.6845,0.6745,0.6242,0.6042,0.5942,0.0,0.0,0.0,0.0,0.0,0.0,0.0,-0.4181,-0.4617,-0.516,-0.5627,-0.5882,-0.5843,-0.6345,-0.6462,-0.5943,0.0,0.0,0.0,0.0,0.0,0.0,0.0,0.0,0.0,0.0,0.0,0.0,0.0,0.0,0.0,0.0,0.0,0.0,0.0,0.0,0.0,0.0,0.0,0.0,0.0,0.0,0.0,0.0,0.0,0.0,0.0,0.0,0.0,0.0,0.0,0.0,0.0,0.0,0.0,0.0,0.0,0.0,0.2735,0.3106,0.3465,0.4194,0.3827,0.3492,0.4027,0.0,0.3385,0.3239,0.3476,0.3697,0.3426,0.3498,0.3611,0.3553,0.3865,0.0,0.0,0.0,0.0,0.0,0.0,0.0,0.0,0.0,0.0,0.0,0.0,0.0,0.0,1.1105,1.1203,1.1693,1.1775,1.2181,1.2813,1.2878,1.2861,1.2764,1.2764,1.2467,1.198,1.1086,0.0,0.0,0.0,0.0,0.0,0.7733,0.7733,0.892,0.7235,0.6439,0.6242,0.6042,0.5839,0.5727,0.0,0.0,0.0,0.0,0.0,0.0,0.0,-0.4089,-0.4553,-0.561,-0.5944,-0.6276,-0.678,-0.7333,-0.7446,-0.6871,0.0,0.0,0.0,0.0,0.0,0.0,0.0,0.0,0.0,0.0,0.0,0.0,0.0,0.0,0.0,0.0,0.0,0.0,0.0,0.0,0.0,0.0,0.0,0.0,0.0,0.0,-0.394,0.0,0.0,0.0,0.0,0.0,0.0,0.0,0.0,0.0,0.0,0.0,0.0,0.0,0.0,0.0,0.0,0.1939,0.2312,0.2786,0.2828,0.0,0.0,0.0,0.2822,0.2426,0.2453,0.2539,0.2539,0.2688,0.2795,0.2773,0.3166,0.0,0.0,0.0,0.0,0.0,0.0,0.0,0.0,0.0,0.0,0.0,0.0,0.0,0.0,0.971,0.9719,1.0027,1.0806,1.1404,1.1722,1.1903,1.1888,1.1575,1.1575,1.1282,1.0797,1.0002,0.0,0.0,0.0,0.0,0.0,0.7335,0.7434,0.8619,0.6833,0.6037,0.5942,0.5741,0.5539,0.5227,0.0,0.0,0.0,0.0,0.0,0.0,0.0,0.0,-0.4816,-0.6233,-0.6421,-0.6845,-0.8017,-0.814,-0.798,-0.759,0.0,0.0,0.0,0.0,0.0,0.0,0.0,0.0,0.0,0.0,0.0,0.0,-0.6455,-0.6537,-0.6624,0.0,0.0,0.0,0.0,0.0,0.0,0.0,0.0,0.0,0.0,0.0,0.0,0.0,0.0,0.0,0.0,0.0,0.0,0.0,0.0,0.0,0.0,0.0,0.0,0.0,0.0,0.0,0.0,0.0,0.0,0.0,0.0,0.0,0.0,0.0,0.0,0.0,0.1254,0.1165,0.1123,0.1617,0.1869,0.1339,0.2162,0.0,0.0,0.0,0.0,0.0,0.0,0.0,0.0,0.0,0.0,0.0,0.0,0.0,0.0,0.7733,0.7633,0.7939,0.9838,1.0529,0.9903,1.0426,1.0332,0.9608,0.9608,0.9604,0.9509,0.9213,0.0,0.0,0.0,0.0,0.0,0.6936,0.6736,0.7723,0.6232,0.5737,0.5842,0.534,0.4937,0.4634,0.0,0.0,0.0,0.0,0.0,0.0,0.0,0.0,0.0,0.0,-0.6178,-0.6781,-0.7578,-0.8116,-0.8322,0.0,0.0,0.0,0.0,0.0,0.0,0.0,0.0,0.0,0.0,0.0,0.0,-0.6845,-0.7257,-0.7564,-0.7722,-0.7528,0.0,0.0,0.0,0.0,0.0,0.0,0.0,0.0,0.0,0.0,0.0,0.0,0.0,0.0,-0.4312,-0.3849,0.0,0.0,0.0,0.0,0.0,0.0,0.0,0.0,-0.2391,-0.2071,-0.1547,0.0,0.0048,0.0732,0.0821,0.0,0.0,0.0,0.0,0.0,0.0,-0.0948,-0.163,-0.0639,0.0234,0.0106,0.135,0.0,0.0,0.0,0.0,0.0,0.0,0.0,0.0,0.0,0.0,0.0,0.0,0.0,0.0,0.7434,0.7235,0.7132,0.7341,0.7939,0.8829,0.9521,1.0006,1.0194,0.9596,0.9205,0.892,0.812,0.0,0.0,0.0,0.0,0.7425,0.6437,0.6437,0.7027,0.6034,0.5536,0.534,0.4738,0.4437,0.4124,0.0,0.0,0.0,0.0,0.0,0.0,0.0,0.0,0.0,0.0,0.0,0.0,0.0,0.0,0.0,0.0,0.0,0.0,0.0,0.0,0.0,0.0,0.0,0.0,0.0,0.0,0.0,0.0,0.0,-0.8184,0.0,0.0,0.0,0.0,0.0,0.0,0.0,0.0,0.0,0.0,-0.7147,0.0,0.0,0.0,0.0,0.0,-0.5174,-0.4712,0.0,-0.4656,-0.4557,-0.4382,0.0,0.0,0.0,0.0,-0.3094,-0.2944,-0.2657,-0.2031,-0.1399,-0.1149,-0.1207,-0.1119,0.0,0.0,0.0,0.0,0.0,0.0,-0.3003,0.0,0.0,0.0,-0.051,0.0,0.0,0.0,0.0,0.0,0.0,0.0,0.0,0.0,0.0,0.0,0.0,0.0,0.0,0.6134,0.6137,0.6034,0.5942,0.6342,0.7338,0.7528,0.7816,0.8212,0.7717,0.7521,0.7329,0.6728,0.6234,0.0,0.0,0.0,0.6034,0.5639,0.5636,0.5832,0.5033,0.4634,0.4535,0.3731,0.3328,0.302,0.0,0.0,0.0,0.0,0.0,0.0,0.0,0.0,0.0,0.0,0.0,0.0,0.0,0.0,0.0,0.0,0.0,0.0,0.0,0.0,0.0,0.0,0.0,0.0,0.0,0.0,0.0,0.0,0.0,0.0,0.0,0.0,0.0,0.0,0.0,0.0,0.0,0.0,0.0,0.0,-0.7944,0.0,0.0,0.0,0.0,0.0,0.0,0.0,0.0,-0.5632,-0.5504,-0.5268,-0.517,0.0,0.0,0.0,0.0,0.0,-0.3416,-0.3073,-0.2819,-0.2868,-0.2904,-0.2918,0.0,0.0,0.0,0.0,0.0,0.0,0.0,0.0,0.0,0.0,0.0,0.0,0.0,0.0,0.0,0.0,0.0,0.0,0.0,0.0,0.0,0.0,0.0,0.0,0.0,0.4796,0.4897,0.4796,0.4696,0.4893,0.5191,0.5318,0.5434,0.5634,0.542,0.5413,0.5513,0.5313,0.5214,0.0,0.0,0.0,0.4839,0.4734,0.4634,0.4533,0.383,0.3629,0.3528,0.2622,0.2017,0.1613,0.0,0.0,0.0,0.0,0.0,0.0,0.0,0.0,0.0,0.0,0.0,0.0,0.0,0.0,0.0,0.0,0.0,0.0,0.0,0.0,0.0,0.0,0.0,0.0,0.0,0.0,0.0,0.0,0.0,0.0,-0.906,-0.8886,-0.828,0.0,0.0,0.0,-0.7203,-0.6977,-0.7399,-0.8227,-0.8175,0.0,0.0,0.0,0.0,0.0,0.0,0.0,0.0,-0.6403,-0.6273,-0.6158,-0.5937,0.0,0.0,0.0,0.0,0.0,-0.4301,-0.4517,-0.4478,-0.3207,-0.2887,-0.2917,0.0,0.0,0.0,0.0,0.0,0.0,0.0,0.0,0.0,0.0,0.0,0.0,0.0,0.0,0.0,0.0,0.0,0.0,0.0,0.0,0.0,0.0,0.0,0.0,0.0,0.4618,0.4622,0.2786,0.2401,0.2111,0.1727,0.3864,0.5135,0.5634,0.4658,0.4524,0.4916,0.3937,0.3546,0.0,0.0,0.3731,0.3531,0.3729,0.363,0.343,0.333,0.2822,0.2215,0.1613,0.0907,0.0202,0.0,0.0,0.0,0.0,0.0,0.0,0.0,0.0,0.0,0.0,0.0,0.0,0.0,0.0,0.0,0.0,0.0,0.0,0.0,0.0,0.0,0.0,0.0,0.0,0.0,0.0,0.0,0.0,0.0,-0.9474,-0.9402,-0.885,-0.7827,-0.6502,0.0,0.0,-0.7373,-0.7563,-0.7901,-0.8338,0.0,0.0,0.0,0.0,0.0,0.0,0.0,0.0,0.0,0.0,-0.7224,-0.6966,-0.6717,0.0,0.0,0.0,0.0,0.0,-0.5395,-0.5505,-0.5583,-0.56,-0.4799,0.0,0.0,0.0,0.0,0.0,0.0,0.0,0.0,0.0,0.0,0.0,0.0,0.0,0.0,0.0,0.0,0.0,0.0,0.0,0.0,0.0,0.0,0.0,0.0,0.0,0.0,0.0,0.1424,0.076,0.057,0.057,0.0571,0.1741,0.2832,0.371,0.3584,0.3668,0.3859,0.3379,0.2914,0.2551,0.0,0.2297,0.1714,0.1814,0.1713,0.1412,0.131,0.1008,0.0604,-0.0101,-0.0907,-0.1813,0.0,0.0,0.0,0.0,0.0,0.0,0.0,0.0,0.0,0.0,0.0,0.0,0.0,0.0,0.0,0.0,0.0,0.0,0.0,0.0,0.0,0.0,0.0,0.0,0.0,0.0,0.0,-0.9907,-0.9828,-0.964,-0.9355,-0.8627,-0.759,0.0,0.0,0.0,-0.8017,-0.8469,-0.8669,-0.8784,0.0,0.0,0.0,0.0,0.0,0.0,0.0,0.0,0.0,0.0,0.0,0.0,0.0,0.0,0.0,-0.7087,-0.6843,-0.6499,-0.6644,-0.668,-0.7018,0.0,0.0,0.0,0.0,0.0,0.0,0.0,0.0,0.0,0.0,0.0,0.0,0.0,0.0,0.0,0.0,0.0,0.0,0.0,0.0,0.0,0.0,0.0,0.0,0.0,0.0,0.0,0.0,0.0,-0.3263,-0.2042,-0.2051,-0.168,-0.1024,-0.0837,0.0094,0.1618,0.2085,0.227,0.227,0.2175,0.1811,0.1257,0.1263,0.0787,0.0,0.0,-0.0,-0.0202,-0.0403,-0.0806,-0.1209,-0.2116,-0.3122,-0.4022,0.0,0.0,0.0,0.0,0.0,0.0,0.0,0.0,0.0,0.0,0.0,0.0,0.0,0.0,0.0,0.0,0.0,0.0,0.0,0.0,0.0,0.0,0.0,0.0,0.0,-0.8453,-0.8553,-0.8724,-0.8602,-0.8491,-0.8404,-0.8325,-0.8102,-0.7855,0.0,0.0,-0.9716,-0.9699,-0.9807,-0.9967,-0.984,0.0,0.0,0.0,0.0,0.0,0.0,0.0,0.0,0.0,0.0,0.0,0.0,0.0,-0.7467,-0.7544,-0.7457,-0.7424,-0.7936,-0.8584,-0.9367,-1.0339,0.0,0.0,0.0,0.0,0.0,0.0,0.0,0.0,0.0,0.0,0.0,0.0,0.0,0.0,0.0,0.0,0.0,0.0,0.0,0.0,0.0,0.0,0.0,0.0,0.0,0.0,0.0,0.0,0.0,-0.6452,-0.6489,-0.596,-0.4446,-0.3745,-0.2153,0.038,0.0093,-0.0093,-0.0093,-0.0463,-0.0741,-0.0835,-0.0946,-0.1061,-0.0982,-0.0982,-0.0893,-0.0706,-0.0806,-0.1812,-0.3521,-0.4526,-0.5427,-0.6208,0.0,0.0,0.0,0.0,0.0,0.0,0.0,0.0,0.0,0.0,0.0,0.0,0.0,0.0,0.0,0.0,0.0,0.0,0.0,0.0,0.0,0.0,0.0,-0.8689,-0.8708,-0.916,-0.9353,-0.9284,-0.8779,-0.8463,-0.8361,-0.8149,0.0,0.0,0.0,0.0,-1.0866,-1.0328,-1.0286,-1.0542,-1.0496,-1.0572,0.0,0.0,0.0,0.0,0.0,0.0,0.0,0.0,-0.8921,-0.8673,-0.8501,-0.8315,-0.8282,-0.8718,-0.8489,-0.8234,-0.8905,-0.949,-1.0029,0.0,0.0,0.0,0.0,0.0,0.0,0.0,0.0,0.0,0.0,0.0,0.0,0.0,0.0,0.0,0.0,0.0,0.0,0.0,0.0,0.0,0.0,0.0,0.0,0.0,0.0,0.0,0.0,0.0,0.0,-0.8174,-0.815,-0.7483,-0.6034,-0.5769,-0.4937,-0.351,-0.1858,-0.0978,-0.0712,-0.0811,-0.1096,-0.1572,-0.177,-0.2093,-0.2648,-0.2744,-0.2874,-0.3124,-0.3822,-0.482,-0.5912,-0.6139,-0.7137,-0.8463,0.0,0.0,0.0,0.0,0.0,0.0,0.0,0.0,0.0,0.0,0.0,0.0,0.0,0.0,0.0,0.0,0.0,0.0,0.0,0.0,0.0,0.0,0.0,-0.8846,-0.893,-0.9468,-0.9658,-0.9488,-0.894,-0.8648,-0.8567,0.0,0.0,0.0,0.0,0.0,0.0,0.0,-1.0821,-1.1048,-1.1038,-1.0991,0.0,0.0,0.0,0.0,0.0,0.0,0.0,0.0,-0.9339,-0.9139,-0.9062,-0.8883,-0.8888,-0.9648,-0.9534,-0.9313,-1.0075,-1.0583,-1.0998,0.0,0.0,0.0,0.0,0.0,0.0,0.0,0.0,0.0,0.0,0.0,0.0,0.0,0.0,0.0,0.0,0.0,0.0,0.0,0.0,0.0,0.0,0.0,0.0,0.0,0.0,0.0,0.0,0.0,0.0,0.0,-1.0123,-0.9418,-0.8371,-0.7899,-0.7413,-0.6919,-0.4768,-0.3318,-0.2512,-0.2566,-0.2884,-0.3472,-0.3741,-0.4187,-0.4708,-0.4992,-0.5165,-0.5383,-0.6075,-0.7084,-0.7997,-0.8084,-0.9178,-1.0622,0.0,0.0,0.0,0.0,0.0,0.0,0.0,0.0,0.0,0.0,0.0,0.0,0.0,0.0,0.0,0.0,0.0,0.0,0.0,0.0,0.0,0.0,0.0,-0.8869,-0.9002,-0.914,-0.9133,-0.9011,-0.8936,-0.8891,-0.8948,-1.114,0.0,0.0,0.0,0.0,0.0,0.0,-1.1541,-1.1593,-1.1384,-1.1307,-1.1285,0.0,0.0,0.0,0.0,0.0,0.0,0.0,-0.9446,-0.9497,-0.9339,-0.9166,-0.9209,-1.0213,-1.0562,-1.078,-1.1577,-1.2004,0.0,0.0,0.0,0.0,0.0,0.0,0.0,0.0,0.0,0.0,0.0,0.0,0.0,0.0,0.0,0.0,0.0,0.0,0.0,0.0,0.0,0.0,0.0,0.0,0.0,0.0,0.0,0.0,0.0,0.0,0.0,0.0,-1.2738,-1.2116,-1.1872,-1.025,-0.9451,-0.9501,-0.8788,-0.7631,-0.6123,-0.6618,-0.6776,-0.6864,-0.7298,-0.7382,-0.7255,-0.7528,-0.7516,-0.7298,-0.7308,-0.8268,-0.9776,-1.0556,-1.1638,-1.2876,0.0,0.0,0.0,0.0,0.0,0.0,0.0,0.0,0.0,0.0,0.0,0.0,0.0,0.0,0.0,0.0,0.0,0.0,0.0,0.0,0.0,0.0,0.0,0.0,0.0,0.0,-0.9126,-0.9143,-0.8891,-0.8703,0.0,0.0,0.0,-0.9468,0.0,0.0,0.0,0.0,-1.1586,-1.1384,-1.1421,-1.1353,-1.1239,0.0,0.0,0.0,0.0,0.0,0.0,0.0,0.0,0.0,-0.9776,0.0,-1.0541,-1.0846,-1.1311,-1.1798,-1.2142,0.0,0.0,0.0,0.0,0.0,0.0,0.0,0.0,0.0,0.0,0.0,0.0,0.0,0.0,0.0,0.0,0.0,0.0,0.0,0.0,0.0,0.0,0.0,0.0,0.0,0.0,0.0,0.0,0.0,0.0,0.0,0.0,0.0,-1.5141,-1.4501,-1.4523,-1.4096,-1.3564,-1.2917,-1.2885,-1.1039,-0.7623,-0.7631,-0.7775,-0.7975,-0.7983,-0.7901,-0.8057,-0.8814,-0.9477,-0.9943,-1.0867,-1.1754,-1.2847,-1.3811,-1.4943,-1.6239,0.0,0.0,0.0,0.0,0.0,0.0,0.0,0.0,0.0,0.0,0.0,0.0,0.0,0.0,0.0,0.0,0.0,0.0,0.0,0.0,0.0,0.0,0.0,0.0,0.0,-0.912,-0.9113,0.0,0.0,0.0,0.0,0.0,0.0,-0.9481,0.0,-1.1807,0.0,0.0,-1.1747,-1.1497,-1.1519,-1.1466,-1.1359,0.0,0.0,0.0,0.0,0.0,0.0,0.0,0.0,0.0,0.0,0.0,0.0,-1.1654,-1.2303,-1.3006,-1.3211,0.0,0.0,0.0,0.0,0.0,0.0,0.0,0.0,0.0,0.0,0.0,0.0,0.0,0.0,0.0,0.0,0.0,0.0,0.0,0.0,0.0,0.0,0.0,0.0,0.0,0.0,0.0,0.0,0.0,0.0,0.0,0.0,0.0,-1.7475,-1.722,-1.7516,-1.7473,-1.7226,-1.6556,-1.6498,-1.5153,-1.2527,-1.1175,-1.0614,-1.0689,-1.0858,-1.098,-1.1214,-1.1964,-1.2657,-1.3206,-1.3926,-1.4798,-1.5796,-1.6635,-1.7636,-1.8916,0.0,0.0,0.0,0.0,0.0,0.0,0.0,0.0,0.0,0.0,0.0,0.0,0.0,0.0,0.0,0.0,0.0,0.0,0.0,0.0,0.0,0.0,0.0,0.0,0.0,0.0,0.0,0.0,0.0,0.0,0.0,0.0,-1.0588,-1.1199,0.0,-1.2364,0.0,0.0,-1.2003,-1.1826,-1.1681,-1.1571,-1.157,-1.2105,0.0,0.0,0.0,0.0,0.0,0.0,0.0,0.0,-1.1534,0.0,-1.1817,-1.2582,-1.353,-1.4385,0.0,0.0,0.0,0.0,0.0,0.0,0.0,0.0,0.0,0.0,0.0,0.0,0.0,0.0,0.0,0.0,0.0,0.0,0.0,0.0,0.0,0.0,0.0,0.0,0.0,0.0,0.0,0.0,0.0,0.0,0.0,0.0,0.0,-2.0253,-2.0009,-2.0085,-2.0456,-2.0534,-2.0422,0.0,-1.9835,-1.9585,-1.936,-1.6289,-1.469,-1.4473,-1.5334,-1.5708,-1.5732,-1.6445,-1.6756,-1.6862,-1.6885,-1.7579,-1.8692,-1.9248,-2.0108,-2.1265,0.0,0.0,0.0,0.0,0.0,0.0,0.0,0.0,0.0,0.0,0.0,0.0,0.0,0.0,0.0,0.0,0.0,0.0,0.0,0.0,0.0,0.0,0.0,0.0,0.0,0.0,0.0,0.0,0.0,0.0,0.0,0.0,0.0,-1.0912,0.0,-1.1773,0.0,-1.2168,-1.2226,-1.2024,-1.1833,-1.1681,-1.1586,-1.1657,-1.1707,0.0,0.0,0.0,0.0,0.0,0.0,0.0,-1.1682,-1.2336,-1.3017,-1.3488,-1.4729,0.0,0.0,0.0,0.0,0.0,0.0,0.0,0.0,0.0,0.0,0.0,0.0,0.0,0.0,0.0,0.0,0.0,0.0,0.0,0.0,0.0,0.0,0.0,0.0,0.0,0.0,0.0,0.0,0.0,0.0,0.0,0.0,0.0,0.0,-2.4771,-2.318,-2.2397,-2.2556,-2.3475,-2.3616,0.0,-2.3075,-2.2738,-2.1956,-1.9225,-1.7859,-1.7642,-1.8471,-1.8433,-1.7871,-1.9801,-2.0362,-2.0034,-2.1267,-2.187,-2.2242,-2.334,-2.4022,-2.4562,0.0,0.0,0.0,0.0,0.0,0.0,0.0,0.0,0.0,0.0,0.0,0.0,0.0,0.0,0.0,0.0,0.0,0.0,0.0,0.0,0.0,0.0,0.0,0.0,0.0,0.0,0.0,0.0,0.0,0.0,0.0,0.0,0.0,-1.1399,0.0,-1.2191,0.0,-1.2325,-1.2302,-1.2039,-1.1869,-1.1725,-1.1623,-1.1938,-1.2131,-1.2245,-1.2265,0.0,0.0,0.0,0.0,0.0,0.0,0.0,-1.3849,-1.421,-1.5213,-1.6263,0.0,0.0,0.0,0.0,0.0,0.0,0.0,0.0,0.0,0.0,0.0,0.0,0.0,0.0,0.0,0.0,0.0,0.0,0.0,0.0,0.0,0.0,0.0,0.0,0.0,0.0,0.0,0.0,0.0,0.0,0.0,-2.7874,-2.7137,-2.7428,-2.5991,-2.5458,-2.6023,-2.6666,-2.6531,-2.5742,-2.5951,-2.5592,-2.4705,-2.2054,-2.0879,-2.0975,-2.2036,-2.2263,-2.2117,-2.3824,-2.4369,-2.4166,-2.5005,-2.5494,-2.587,-2.6549,-2.7136,-2.7696,0.0,0.0,0.0,0.0,0.0,0.0,0.0,0.0,0.0,0.0,0.0,0.0,0.0,0.0,0.0,0.0,0.0,0.0,0.0,0.0,0.0,0.0,0.0,0.0,0.0,0.0,0.0,0.0,0.0,0.0,0.0,0.0,0.0,-1.2257,0.0,0.0,0.0,0.0,-1.2363,-1.2054,-1.1955,-1.1833,-1.1763,-1.2515,-1.2854,-1.2983,-1.3506,-1.3513,-1.3282,-1.3205,0.0,0.0,0.0,0.0,-1.4452,-1.4862,-1.551,-1.6347,0.0,0.0,0.0,0.0,0.0,0.0,0.0,0.0,0.0,0.0,0.0,0.0,0.0,0.0,0.0,0.0,0.0,0.0,0.0,0.0,0.0,0.0,0.0,0.0,0.0,0.0,0.0,0.0,0.0,0.0,-2.9831,-2.8544,-2.813,-2.8938,-2.824,-2.8316,-2.915,-2.9311,-2.8978,-2.8247,-2.8217,-2.7916,-2.7244,-2.5201,-2.4195,-2.4209,-2.5382,-2.6143,-2.6551,-2.7762,-2.8284,-2.8346,-2.8443,-2.8856,-2.9405,-2.9451,-2.9971,-3.0703,0.0,0.0,0.0,0.0,0.0,0.0,0.0,0.0,0.0,0.0,0.0,0.0,0.0,0.0,0.0,0.0,0.0,0.0,0.0,0.0,0.0,0.0,0.0,0.0,0.0,0.0,0.0,0.0,0.0,0.0,0.0,0.0,0.0,0.0,0.0,0.0,0.0,0.0,0.0,-1.2343,-1.2388,-1.2251,-1.2127,-1.2976,-1.3173,-1.3084,-1.373,-1.3473,-1.2954,-1.3384,-1.3277,0.0,0.0,0.0,-1.4875,-1.547,-1.6245,0.0,0.0,0.0,0.0,0.0,0.0,0.0,0.0,0.0,0.0,0.0,0.0,0.0,0.0,0.0,0.0,0.0,0.0,0.0,0.0,0.0,0.0,0.0,0.0,0.0,0.0,0.0,0.0,0.0,0.0,0.0,-3.0028,-2.9794,-2.9669,-2.9669,-2.9435,-2.9419,-2.9544,-3.0028,-2.9922,-2.9215,-2.9134,-2.922,-2.9424,-2.9339,-2.8373,-2.6753,-2.7568,-2.8225,-2.8771,-3.0126,-3.099,-3.1365,-3.1882,-3.236,-3.2792,-3.2879,-3.315,-3.3564,0.0,0.0,0.0,0.0,0.0,0.0,0.0,0.0,0.0,0.0,0.0,0.0,0.0,0.0,0.0,0.0,0.0,0.0,0.0,0.0,0.0,0.0,-0.9614,0.0,0.0,0.0,0.0,0.0,0.0,0.0,0.0,-1.2603,-1.3221,0.0,0.0,0.0,0.0,0.0,0.0,0.0,-1.3082,-1.3257,0.0,0.0,0.0,-1.4209,-1.4952,-1.4869,-1.4512,-1.5047,-1.4923,-1.4619,-1.5043,0.0,0.0,0.0,-1.6096,0.0,0.0,0.0,0.0,0.0,0.0,0.0,0.0,0.0,0.0,0.0,0.0,0.0,0.0,0.0,0.0,0.0,0.0,0.0,0.0,0.0,0.0,0.0,0.0,0.0,0.0,0.0,0.0,0.0,0.0,-3.0814,-3.0975,-3.0781,-3.0707,-3.069,-3.0484,-3.0427,-3.0484,-3.075,-3.0767,-3.0476,-3.0352,-3.0442,-3.066,-3.0842,-3.06,-3.0148,-3.0701,-3.1483,-3.2528,-3.3322,-3.3822,-3.4074,-3.4325,-3.4565,-3.481,-3.4873,-3.5127,-3.5487,0.0,0.0,0.0,0.0,0.0,0.0,0.0,0.0,0.0,0.0,0.0,0.0,0.0,0.0,0.0,0.0,0.0,0.0,0.0,0.0,0.0,-0.9446,-0.9973,-1.0435,-1.0781,0.0,0.0,0.0,0.0,0.0,-1.2508,-1.3915,-1.4793,0.0,-1.521,0.0,0.0,0.0,0.0,0.0,0.0,0.0,0.0,0.0,0.0,0.0,-1.6271,-1.6256,-1.5855,-1.6419,-1.6297,-1.5899,-1.5807,-1.5784,0.0,0.0,0.0,0.0,0.0,0.0,0.0,0.0,0.0,0.0,0.0,0.0,0.0,0.0,0.0,0.0,0.0,0.0,0.0,0.0,0.0,0.0,0.0,0.0,0.0,0.0,0.0,0.0,0.0,0.0,0.0,0.0,0.0,-3.1531,-3.1787,-3.1571,-3.1534,-3.1642,-3.1479,-3.1442,-3.1551,-3.1534,-3.1554,-3.161,-3.1556,-3.1595,-3.1721,-3.1811,-3.2251,-3.2944,-3.2954,-3.3718,-3.4967,-3.542,-3.5796,-3.6101,-3.6143,-3.6266,-3.6486,-3.6527,-3.6781,-3.7084,0.0,0.0,0.0,0.0,0.0,0.0,0.0,0.0,0.0,0.0,0.0,0.0,0.0,0.0,0.0,-0.9357,0.0,0.0,0.0,0.0,0.0,-1.0129,-1.0186,0.0,-1.2344,0.0,0.0,0.0,0.0,0.0,-1.356,-1.5343,-1.6198,-1.6201,-1.5958,-1.5815,-1.5724,0.0,0.0,0.0,0.0,-1.5499,0.0,0.0,0.0,0.0,0.0,0.0,-1.6089,-1.6751,-1.6492,-1.5935,-1.6202,-1.6234,-1.6166,0.0,0.0,0.0,0.0,0.0,0.0,0.0,0.0,0.0,0.0,0.0,0.0,0.0,0.0,0.0,0.0,0.0,0.0,0.0,0.0,0.0,0.0,0.0,0.0,0.0,0.0,0.0,0.0,0.0,0.0,0.0,0.0,-3.1986,-3.2057,-3.2109,-3.2213,-3.2332,-3.2417,-3.2417,-3.2451,-3.2451,-3.2433,-3.2451,-3.2616,-3.2745,-3.2822,-3.3032,-3.3592,-3.4348,-3.3318,-3.3477,-3.4498,-3.529,-3.6239,-3.7212,-3.7306,-3.7613,-3.8099,-3.8216,-3.8332,-3.8519,0.0,0.0,0.0,0.0,0.0,0.0,0.0,0.0,0.0,0.0,0.0,0.0,0.0,-0.8477,-0.8899,-0.9218,-0.9194,0.0,0.0,0.0,0.0,-1.0071,-1.1062,-1.1818,-1.2307,0.0,0.0,0.0,0.0,-1.3087,-1.3446,-1.5469,-1.6269,-1.6026,-1.7222,-1.7399,-1.6834,-1.6834,0.0,0.0,-1.6473,-1.6727,0.0,0.0,0.0,0.0,0.0,0.0,0.0,-1.7845,-1.7649,-1.711,-1.6652,-1.6602,-1.6658,-1.6405,-1.7021,-1.7822,0.0,0.0,0.0,0.0,0.0,0.0,0.0,0.0,0.0,0.0,0.0,0.0,0.0,0.0,0.0,0.0,0.0,0.0,0.0,0.0,0.0,0.0,0.0,0.0,0.0,0.0,0.0,0.0,0.0,0.0,-3.2925,-3.2957,-3.2988,-3.3037,-3.3068,-3.3099,-3.3142,-3.3172,-3.3232,-3.3273,-3.335,-3.339,-3.3476,-3.3634,-3.4202,-3.5027,-3.5132,-3.562,-3.6255,-3.6053,-3.6902,-3.8255,-3.7758,-3.8004,-3.8722,-3.877,-3.8933,-3.9183,0.0,0.0,0.0,0.0,0.0,0.0,0.0,0.0,0.0,0.0,0.0,0.0,0.0,0.0,-0.905,-0.9005,-0.9033,-0.9018,-0.8908,-0.9586,-1.0098,-1.0333,-1.1601,-1.2396,0.0,0.0,0.0,0.0,0.0,0.0,0.0,0.0,-1.5877,-1.5897,-1.7538,-1.8072,0.0,0.0,0.0,-1.7302,0.0,-1.7916,-1.8405,0.0,0.0,0.0,0.0,0.0,0.0,0.0,-1.9164,-1.8966,-1.7823,-1.7207,-1.6887,-1.6617,-1.6776,-1.7136,-1.7411,0.0,0.0,0.0,0.0,0.0,0.0,0.0,0.0,0.0,0.0,0.0,0.0,0.0,0.0,0.0,0.0,0.0,0.0,0.0,0.0,0.0,0.0,0.0,0.0,0.0,0.0,0.0,0.0,0.0,-3.352,-3.3491,-3.352,-3.3577,-3.3605,-3.3615,-3.3671,-3.3753,-3.3842,-3.3884,-3.3954,-3.416,-3.4501,-3.4599,-3.5112,-3.5951,-3.6522,-3.705,-3.7434,-3.7284,-3.7914,-3.8999,-3.8486,-3.8712,-3.9282,-3.9282,-3.9402,-3.9609,0.0,0.0,0.0,0.0,0.0,0.0,0.0,0.0,0.0,0.0,0.0,0.0,0.0,0.0,0.0,-0.8818,-0.8925,-0.893,-0.8736,-0.9446,-1.0208,-1.0989,0.0,0.0,0.0,0.0,0.0,0.0,0.0,0.0,0.0,0.0,-1.5122,0.0,-1.6791,-1.7673,-1.8492,0.0,-1.8368,-1.8249,0.0,-1.9029,-1.9269,0.0,0.0,0.0,-2.0462,-2.0789,0.0,0.0,0.0,0.0,0.0,0.0,-1.6789,-1.6675,-1.6623,-1.6633,0.0,0.0,0.0,0.0,0.0,0.0,0.0,0.0,0.0,0.0,0.0,0.0,0.0,0.0,0.0,0.0,0.0,0.0,0.0,0.0,0.0,0.0,0.0,0.0,0.0,0.0,0.0,0.0,0.0,-3.3671,-3.3752,-3.3698,-3.3707,-3.3847,-3.3917,-3.3986,-3.3986,-3.413,-3.4255,-3.4334,-3.4445,-3.4988,-3.5886,-3.5905,-3.6377,-3.7192,-3.7293,-3.7539,-3.7941,-3.8798,-3.9219,-3.9333,-3.958,-3.9754,-3.9857,-3.9857,-3.9876,-3.9895,0.0,0.0,0.0,0.0,0.0,0.0,0.0,0.0,0.0,0.0,0.0,0.0,0.0,0.0,0.0,-0.866,-0.9184,-0.9485,-0.9426,-1.0519,-1.1303,-1.158,-1.2288,-1.2765,0.0,0.0,0.0,0.0,0.0,0.0,0.0,0.0,0.0,0.0,-1.6458,-1.7319,-1.8153,-1.8413,0.0,0.0,-1.9224,-1.9282,0.0,0.0,0.0,0.0,0.0,-2.1185,-2.0734,0.0,-2.1951,-2.077,0.0,0.0,0.0,-1.7216,-1.7117,-1.7068,-1.7224,0.0,0.0,0.0,0.0,0.0,0.0,0.0,0.0,0.0,0.0,0.0,0.0,0.0,0.0,0.0,0.0,0.0,0.0,0.0,0.0,0.0,0.0,0.0,0.0,0.0,0.0,0.0,-3.3895,-3.3637,-3.3117,-3.2558,-3.2344,-3.2508,-3.3216,-3.358,-3.3646,-3.435,-3.4713,-3.4714,-3.4773,-3.4925,-3.5191,-3.5837,-3.6596,-3.745,-3.8098,-3.8798,-3.9397,-3.8372,-3.8715,-3.9762,-3.9256,-3.9869,-4.1035,-4.1035,-4.1475,-4.2049,0.0,0.0,0.0,0.0,0.0,0.0,0.0,0.0,0.0,0.0,0.0,0.0,0.0,0.0,0.0,-0.902,-0.9746,-1.0055,-0.9686,-1.0961,-1.1611,-1.1352,-1.2331,-1.2832,0.0,0.0,0.0,0.0,0.0,0.0,0.0,0.0,0.0,0.0,0.0,0.0,0.0,0.0,0.0,0.0,-1.9138,0.0,0.0,-2.0768,-2.1006,0.0,0.0,0.0,-2.229,-2.3674,-2.3126,0.0,0.0,0.0,0.0,0.0,-1.7539,-1.7469,-1.7555,0.0,0.0,0.0,0.0,0.0,-1.9573,-2.1884,0.0,0.0,0.0,0.0,0.0,0.0,0.0,0.0,0.0,0.0,0.0,0.0,0.0,0.0,0.0,0.0,0.0,0.0,0.0,-3.3128,-3.3348,-3.3212,-3.2542,-3.2144,-3.2137,-3.2596,-3.2825,-3.3129,-3.3545,-3.4149,-3.4469,-3.4483,-3.4899,-3.5312,-3.5723,-3.6233,-3.7113,-3.8319,-3.8831,-3.9519,-4.0243,-3.9212,-3.9332,-4.0157,-4.0114,-4.053,-4.1217,-4.1927,-4.2096,-4.205,0.0,0.0,0.0,0.0,0.0,0.0,0.0,0.0,0.0,0.0,0.0,0.0,0.0,0.0,0.0,0.0,-1.0511,-1.0689,-0.9902,-1.1156,-1.1628,-1.0962,-1.2128,-1.2792,-1.2773,0.0,0.0,0.0,0.0,0.0,0.0,0.0,0.0,0.0,0.0,0.0,0.0,0.0,0.0,-1.8445,-1.8878,-1.9488,0.0,0.0,-2.2332,0.0,-2.3242,-2.3886,-2.4606,-2.4733,-2.4195,0.0,0.0,0.0,0.0,0.0,-1.7997,0.0,0.0,0.0,0.0,0.0,0.0,0.0,-2.0213,-2.1901,-2.3441,0.0,0.0,0.0,0.0,0.0,0.0,0.0,0.0,0.0,0.0,0.0,0.0,0.0,0.0,0.0,0.0,-3.1314,-3.1691,-3.192,-3.2386,-3.2505,-3.2091,-3.1996,-3.2316,-3.3128,-3.2539,-3.265,-3.3521,-3.376,-3.3917,-3.4098,-3.4995,-3.5867,-3.6659,-3.6755,-3.77,-3.9262,-3.9359,-3.9855,-4.0621,-4.0602,-4.053,-4.0515,-4.1407,-4.1412,-4.1084,-4.2647,-4.2281,-4.1238,0.0,0.0,0.0,0.0,0.0,0.0,0.0,0.0,0.0,0.0,0.0,0.0,0.0,0.0,0.0,0.0,-1.1316,-1.1678,-1.1466,-1.2166,-1.2535,-1.2405,-1.2552,-1.2655,-1.2632,-1.277,0.0,0.0,0.0,0.0,0.0,0.0,0.0,0.0,0.0,0.0,0.0,0.0,0.0,-1.8582,-1.9543,0.0,-2.1916,-2.2765,-2.2712,-2.2383,-2.3933,-2.4193,-2.3832,0.0,-2.4206,-2.3986,0.0,0.0,0.0,0.0,0.0,0.0,0.0,0.0,0.0,0.0,0.0,0.0,-1.8935,-2.043,-2.1594,0.0,0.0,0.0,0.0,0.0,0.0,0.0,0.0,0.0,0.0,0.0,0.0,0.0,0.0,0.0,0.0,-3.1354,-3.1695,-3.2109,-3.1995,-3.1874,-3.1768,-3.0931,-3.0609,-3.0988,-3.1487,-3.2179,-3.3103,-3.3846,-3.4552,-3.5284,-3.547,-3.5656,-3.5861,-3.6485,-3.7385,-3.8389,-3.9102,-3.9888,-4.0668,-4.0688,-4.0629,-4.0579,-4.0847,-4.1652,-4.2748,-4.3143,-4.3471,-4.378,0.0,0.0,0.0,0.0,0.0,0.0,0.0,0.0,0.0,0.0,0.0,0.0,0.0,0.0,0.0,0.0,0.0,0.0,0.0,0.0,-1.287,-1.2365,-1.2653,-1.2811,-1.2862,-1.292,-1.294,0.0,0.0,0.0,0.0,0.0,0.0,0.0,0.0,0.0,0.0,0.0,-1.8953,-2.0011,-1.9651,0.0,-2.1315,-2.2236,-2.2588,-2.2747,-2.4298,-2.494,-2.5057,-2.5115,-2.5266,0.0,0.0,-2.2544,-2.206,0.0,-1.9759,-1.9885,0.0,0.0,0.0,-1.868,0.0,0.0,0.0,-2.0462,-2.1296,-2.1095,0.0,0.0,0.0,0.0,0.0,0.0,0.0,0.0,0.0,0.0,0.0,0.0,0.0,0.0,0.0,-3.0629,-3.0925,-3.1321,-3.1174,-3.1063,-3.1092,-3.0554,-3.0496,-3.1022,-3.106,-3.1669,-3.2987,-3.3431,-3.4098,-3.4959,-3.5384,-3.5628,-3.5659,-3.6076,-3.6945,-3.817,-3.8658,-3.9598,-4.0804,-4.0848,-4.1074,-4.1403,-4.1396,-4.1899,-4.2724,-4.3176,-4.3073,-4.2838,0.0,0.0,0.0,0.0,0.0,0.0,0.0,0.0,0.0,0.0,0.0,0.0,0.0,0.0,0.0,0.0,0.0,0.0,0.0,0.0,-1.3073,-1.2289,-1.2771,-1.3085,-1.3155,-1.3155,-1.3138,0.0,0.0,0.0,0.0,0.0,0.0,0.0,0.0,0.0,0.0,0.0,0.0,-2.1076,0.0,-1.9885,-2.106,-2.1861,-2.2725,-2.3618,-2.459,-2.5513,-2.6255,-2.6098,0.0,-2.6051,-2.4921,-2.4214,0.0,0.0,0.0,0.0,0.0,0.0,0.0,0.0,0.0,-1.9294,0.0,0.0,0.0,-2.1419,0.0,0.0,0.0,0.0,0.0,0.0,0.0,0.0,0.0,0.0,0.0,0.0,0.0,0.0,0.0,-3.0027,-3.0206,-3.0477,-3.0469,-3.046,-3.053,-3.0519,-3.0788,-3.1474,-3.0856,-3.1234,-3.278,-3.2954,-3.3478,-3.4341,-3.5222,-3.5667,-3.5716,-3.5902,-3.6802,-3.8241,-3.8468,-3.9458,-4.0906,-4.097,-4.1479,-4.2209,-4.2167,-4.2241,-4.2466,-4.3191,-4.2488,-4.1364,-0.5124,-0.601,0.0,0.0,0.0,0.0,0.0,0.0,0.0,0.0,0.0,0.0,0.0,0.0,0.0,0.0,0.0,0.0,-1.4446,0.0,0.0,-1.3502,-1.3343,-1.3295,-1.3362,-1.3312,-1.3312,-1.3362,0.0,0.0,0.0,0.0,0.0,0.0,-1.7089,0.0,0.0,0.0,-1.982,0.0,-2.0273,-2.1944,0.0,-2.3702,-2.4105,-2.4903,-2.5099,-2.5283,-2.534,0.0,-2.5264,-2.607,0.0,-2.4797,-2.5469,0.0,0.0,0.0,0.0,0.0,0.0,0.0,-1.9379,0.0,0.0,0.0,-1.975,-1.9911,0.0,0.0,0.0,0.0,0.0,0.0,0.0,0.0,0.0,0.0,0.0,0.0,0.0,0.0,0.0,0.0,-3.0468,-3.0492,-3.0549,-3.0615,-3.0671,-3.055,-3.0558,-3.0724,-3.0578,-3.0984,-3.2014,-3.2798,-3.3608,-3.4489,-3.5371,-3.5784,-3.5821,-3.6587,-3.7471,-3.8423,-3.9204,-4.0051,-4.091,-4.0974,-4.1506,-4.229,-4.2277,-4.2757,-4.3449,-4.3549,-4.2969,-4.2175,-0.5568,-0.6127,0.0,0.0,0.0,0.0,0.0,0.0,0.0,0.0,0.0,0.0,0.0,0.0,0.0,0.0,0.0,-1.5887,0.0,0.0,0.0,0.0,-1.4349,-1.3994,-1.4609,-1.3979,-1.3873,-1.4326,-1.4228,0.0,0.0,0.0,0.0,0.0,-1.7666,0.0,-1.8693,0.0,0.0,0.0,0.0,0.0,0.0,-2.3484,-2.3881,-2.5225,-2.534,-2.5425,-2.5481,0.0,-2.6365,0.0,0.0,0.0,0.0,0.0,0.0,0.0,0.0,0.0,0.0,0.0,0.0,0.0,-1.9915,0.0,-1.9757,0.0,0.0,0.0,0.0,0.0,0.0,0.0,-2.1613,0.0,0.0,0.0,0.0,0.0,0.0,0.0,0.0,0.0,0.0,0.0,-3.0661,-3.0676,-3.0704,-3.061,-3.0565,-3.0606,-3.0613,-3.0808,-3.1202,-3.2578,-3.3679,-3.4506,-3.5388,-3.5791,-3.5819,-3.6214,-3.6852,-3.7677,-3.8066,-3.9009,-4.0274,-4.0324,-4.1151,-4.2361,-4.2368,-4.2568,-4.2786,-4.2312,-4.1928,-4.1681,-0.6451,0.0,0.0,0.0,0.0,0.0,0.0,0.0,0.0,0.0,0.0,0.0,-1.4242,-1.4869,0.0,0.0,-1.6564,-1.6961,0.0,0.0,-1.6447,0.0,0.0,0.0,0.0,-1.5161,-1.4998,-1.5565,0.0,0.0,0.0,0.0,0.0,0.0,0.0,-1.8791,-1.8833,0.0,0.0,-2.2554,-2.3253,-2.4186,-2.5032,-2.3696,-2.4072,-2.5363,-2.549,-2.5557,-2.569,-2.6273,-2.7083,0.0,-2.7829,0.0,0.0,0.0,0.0,0.0,-2.1813,0.0,0.0,0.0,0.0,0.0,0.0,0.0,0.0,0.0,0.0,0.0,0.0,0.0,0.0,0.0,0.0,0.0,0.0,0.0,0.0,0.0,0.0,0.0,0.0,0.0,0.0,-2.9985,-3.0492,-3.073,-3.0736,-3.0671,-3.0626,-3.0622,-3.0665,-3.0678,-3.07,-3.2274,-3.3532,-3.4466,-3.5402,-3.5854,-3.5857,-3.6155,-3.6596,-3.7175,-3.745,-3.8432,-3.983,-3.9877,-4.0745,-4.2041,-4.2031,-4.2008,-4.1925,-4.1587,-4.1311,-4.1214,-0.7824,-0.7354,0.0,0.0,0.0,0.0,0.0,0.0,0.0,0.0,0.0,0.0,0.0,0.0,0.0,0.0,0.0,-1.6631,-1.598,0.0,-1.7489,0.0,0.0,-1.7839,0.0,0.0,-1.6854,-1.6934,0.0,0.0,0.0,0.0,0.0,0.0,0.0,-1.925,-1.9439,-2.0519,-2.1157,-2.1531,-2.2458,-2.3442,-2.4418,0.0,-2.5438,-2.5499,-2.5568,0.0,0.0,-2.5624,-2.6684,0.0,0.0,0.0,0.0,0.0,0.0,0.0,0.0,0.0,0.0,-2.3005,0.0,0.0,0.0,0.0,-2.0088,0.0,0.0,0.0,0.0,0.0,-2.0222,-2.0289,0.0,0.0,0.0,0.0,0.0,0.0,0.0,0.0,0.0,0.0,0.0,-2.8164,-2.9847,-3.0806,-3.0808,-3.0735,-3.0706,-3.0706,-3.0648,-3.0626,-3.0693,-3.1916,-3.312,-3.4316,-3.5449,-3.5996,-3.6014,-3.6874,-3.7279,-3.7346,-3.8196,-3.9073,-3.99,-3.9897,-4.0385,-4.115,-4.1147,-4.115,-4.125,-4.2051,-4.1824,-4.1226,0.0,0.0,0.0,0.0,0.0,0.0,0.0,-1.271,0.0,0.0,0.0,0.0,0.0,-1.6074,-1.6887,0.0,0.0,-1.9161,-1.8902,-1.9289,0.0,0.0,0.0,-1.9123,0.0,0.0,0.0,0.0,0.0,0.0,0.0,0.0,0.0,0.0,0.0,-1.9801,0.0,0.0,0.0,0.0,0.0,-2.4059,-2.4388,0.0,0.0,-2.5561,-2.5595,-2.5623,0.0,-2.5673,-2.7023,-2.8725,-2.8695,-2.8613,-2.8476,-2.8162,-2.7095,0.0,0.0,0.0,-2.493,-2.406,0.0,0.0,0.0,0.0,0.0,0.0,0.0,0.0,0.0,0.0,-2.0416,-2.0429,-2.0434,0.0,0.0,0.0,0.0,0.0,0.0,0.0,0.0,0.0,0.0,-2.6448,-2.9152,-3.08,0.0,-3.078,-3.0771,-3.0762,-3.0738,-3.073,-3.0778,-3.1172,-3.2361,-3.4306,-3.5458,-3.6003,-3.6001,-3.6313,-3.6448,-3.6482,-3.7365,-3.8224,-3.9078,-3.9605,-4.0327,-4.1108,-4.1108,-4.1108,-4.1147,-4.1423,-4.1716,-4.217,-1.1282,0.0,0.0,0.0,0.0,0.0,0.0,0.0,0.0,0.0,-1.5479,0.0,-1.5969,0.0,-1.7774,0.0,-1.8881,-1.9684,-1.9968,-2.0494,0.0,-2.0404,-2.0871,0.0,0.0,0.0,0.0,0.0,0.0,-1.9033,0.0,0.0,0.0,0.0,0.0,0.0,0.0,0.0,-2.2833,0.0,0.0,-2.4667,0.0,0.0,-2.5119,-2.5609,0.0,-2.5912,-2.6328,-2.6523,-2.7575,-2.8896,-2.9509,-2.9432,-2.9118,-2.9118,-2.8354,-2.7513,-2.7513,-2.7285,0.0,-2.5914,-2.5489,0.0,-2.409,0.0,0.0,0.0,0.0,0.0,0.0,0.0,0.0,-2.0503,-2.0513,-2.0529,0.0,-2.0513,0.0,0.0,0.0,0.0,0.0,0.0,-2.4206,-2.5102,-2.7246,-2.8923,0.0,0.0,-3.0799,-3.0798,-3.08,-3.0801,-3.08,-3.0795,-3.2174,-3.4901,-3.5642,-3.5994,-3.5991,-3.5991,-3.5991,-3.603,-3.6599,-3.7321,-3.8199,-3.9039,-3.9878,-4.0678,-4.0971,-4.1108,-4.1108,-4.1108,-4.1849,-4.3079,0.0,0.0,0.0,0.0,-1.2763,0.0,0.0,0.0,-1.5345,0.0,-1.7111,-1.7734,-1.779,-1.7884,-1.7963,-1.7944,-1.7998,0.0,-1.9208,-2.0799,0.0,0.0,-2.2143,-2.2225,-2.0399,0.0,0.0,0.0,0.0,0.0,0.0,0.0,0.0,0.0,-1.9781,0.0,-2.0752,-2.1282,-2.2329,-2.3785,-2.5096,-2.5098,-2.4394,-2.5311,-2.5681,-2.5742,-2.582,-2.6558,-2.757,-2.8136,-2.8327,-2.8615,-3.0286,-3.0795,-3.0795,-3.0795,-3.0795,-3.0795,-3.0795,-3.0169,-2.9291,-2.8476,0.0,0.0,0.0,0.0,-2.5595,0.0,0.0,0.0,0.0,0.0,0.0,-2.0508,-2.0552,-2.0577,0.0,0.0,0.0,0.0,0.0,0.0,0.0,-2.109,-2.1689,-2.4154,-2.4307,0.0,0.0,0.0,-3.0623,-3.0799,-3.079,-3.0795,-3.0793,-3.0804,-3.2458,-3.574,-3.5916,-3.5994,-3.5991,-3.5991,-3.5991,-3.5988,-3.603,-3.6537,-3.7379,-3.8277,-3.9117,-3.9897,-4.0756,-4.1127,-4.1166,-4.1205,-4.2298,-4.3899,-1.443,-1.4295,-1.4151,0.0,-1.517,-1.5856,0.0,0.0,0.0,0.0,-1.7545,-1.7769,-1.7739,-1.8363,-1.8767,-1.8718,-1.9403,0.0,0.0,0.0,0.0,-2.1748,-2.3228,-2.3183,-2.1379,-2.2582,0.0,-2.1286,0.0,0.0,-2.0095,0.0,0.0,0.0,0.0,0.0,-2.1085,-2.1374,-2.2152,-2.3273,-2.4252,-2.4524,0.0,0.0,-2.6942,-2.7512,-2.7985,-2.8367,-2.8808,-2.9806,-3.0131,-3.0217,-3.065,-3.0806,-3.0802,-3.0802,-3.0793,-3.0804,-3.0804,-3.0165,-2.9444,-2.9219,-2.8509,-2.7803,0.0,0.0,0.0,0.0,0.0,0.0,0.0,0.0,0.0,0.0,-2.0565,0.0,0.0,0.0,0.0,-2.0604,0.0,0.0,-2.0892,-2.1301,-2.2082,-2.333,-2.3056,0.0,0.0,0.0,0.0,-3.0726,-3.0793,-3.0799,-3.0806,-3.0804,-3.1246,-3.2153,-3.4666,-3.5884,-3.5923,-3.5923,-3.5909,-3.5883,-3.6641,-3.7058,-3.7331,-3.8876,-3.9605,-3.9897,-4.0756,-4.1498,-4.2142,-4.2786,-4.3723,-4.4797,-1.5101,0.0,0.0,-1.4993,0.0,0.0,-1.6198,0.0,0.0,-1.8063,-1.8534,0.0,-1.8675,-1.9128,-1.9463,-1.9477,-1.9972,0.0,-2.0909,0.0,0.0,-2.1903,-2.2896,-2.2854,-2.16,-2.2586,0.0,-2.1654,0.0,0.0,-2.0247,0.0,0.0,0.0,0.0,-2.0527,0.0,-2.2177,-2.2708,-2.3095,-2.4744,0.0,0.0,-2.6797,-2.7985,-2.8747,-2.9062,-2.946,-2.9937,-3.0546,-3.0769,-3.0753,-3.0764,-3.0753,-3.0755,-3.0761,-3.0755,-3.0763,-3.0763,-3.0393,-3.0024,-3.0024,-2.9667,-2.9285,-2.9292,-2.8909,-2.881,0.0,0.0,0.0,0.0,0.0,0.0,0.0,0.0,0.0,0.0,0.0,0.0,0.0,-2.1208,0.0,-2.0638,-2.1022,-2.167,-2.2463,-2.2248,-2.2488,0.0,0.0,0.0,-3.0748,-3.0697,-3.0633,-3.0633,-3.2102,-3.2152,-3.0847,-3.4261,-3.5858,-3.5774,-3.5807,-3.5788,-3.5799,-3.6345,-3.659,-3.6683,-3.8427,-3.9135,-3.9291,-4.0908,-4.2078,-4.2955,-4.3841,-4.4528,-4.5129,0.0,0.0,0.0,0.0,0.0,0.0,0.0,-1.7304,0.0,-1.8752,0.0,-2.0056,-1.9885,-1.9866,-1.992,-2.0021,0.0,-2.0318,-2.1213,-2.1545,-2.157,-2.1254,-2.1763,-2.1843,-2.1353,-2.1693,0.0,0.0,0.0,0.0,0.0,0.0,0.0,0.0,0.0,0.0,0.0,-2.2952,-2.3377,0.0,-2.5766,-2.6364,-2.5987,-2.7783,-2.8955,-2.9596,-2.9537,-3.0063,-3.0775,-3.0716,-3.0704,-3.0691,-3.0691,-3.0698,-3.069,-3.0678,-3.069,-3.0683,-3.0695,-3.0695,-3.0695,-3.0695,-3.0695,-3.0668,-3.0684,-3.0676,-3.066,-3.0588,-2.9294,-2.8106,0.0,0.0,0.0,0.0,0.0,0.0,0.0,0.0,0.0,0.0,0.0,0.0,-2.1262,-2.0809,-2.1013,-2.2051,0.0,-2.1818,0.0,0.0,0.0,-3.0554,-3.0482,-3.062,-3.1084,0.0,-3.3505,-3.0817,-3.4296,-3.583,-3.5582,-3.5655,-3.5676,-3.5668,-3.5693,-3.5693,-3.5821,-3.7586,-3.8421,-3.8868,-4.1199,-4.2558,-4.3384,-4.4413,-4.4869,-4.5129,0.0,0.0,0.0,0.0,0.0,-1.5689,-1.6651,-1.7853,-1.8835,-1.9379,-1.9635,-1.9749,-1.967,-1.9705,-1.9722,-1.9693,-1.9684,0.0,0.0,0.0,0.0,-1.9851,-2.0833,-2.1273,-2.1058,-2.256,-2.2652,0.0,0.0,0.0,0.0,0.0,0.0,0.0,0.0,0.0,-2.1643,-2.1849,0.0,-2.4049,-2.5822,-2.6862,-2.7514,-2.9252,-3.0025,-3.016,-3.016,-3.0393,-3.0717,-3.0704,-3.0697,-3.0697,-3.062,-3.0625,-3.0622,-3.0626,-3.061,-3.0613,-3.0615,-3.0625,-3.0625,-3.0625,-3.0625,-3.0606,-3.0558,-3.0539,-3.052,-3.052,-2.9709,-2.8772,-2.8106,0.0,0.0,0.0,0.0,0.0,0.0,0.0,0.0,0.0,0.0,0.0,0.0,0.0,0.0,0.0,0.0,0.0,0.0,0.0,0.0,0.0,-2.999,0.0,0.0,0.0,-3.1284,-3.0685,-3.411,-3.5679,-3.5524,-3.5524,-3.5532,-3.5535,-3.565,-3.5668,-3.5747,-3.7568,-3.9101,-4.048,-4.1636,-4.2263,-4.2675,-4.4228,-4.4874,-4.5129,0.0,0.0,0.0,0.0,0.0,0.0,0.0,-1.7298,0.0,-1.8984,-1.9212,-1.9254,-1.9133,-1.9228,-1.9313,-1.9388,-1.9365,-1.9393,-1.9548,-1.9513,-1.9473,-1.9448,-2.047,0.0,-2.1409,-2.2713,-2.2819,-2.1668,0.0,0.0,0.0,0.0,0.0,0.0,0.0,-2.1246,0.0,0.0,0.0,-2.4778,-2.6458,-2.7335,-2.779,-2.9113,-2.9598,-2.9567,-2.9562,-2.9952,-3.0462,-3.0472,-3.0492,-3.0482,-3.0453,-3.0472,-3.0519,-3.0588,-3.0559,-3.049,-3.0537,-3.0527,-3.0486,-3.0425,-3.0402,-3.0359,-3.0297,-3.0352,-3.0386,-3.0352,-3.0013,-2.9586,-2.9116,-2.8015,0.0,0.0,0.0,0.0,0.0,0.0,0.0,0.0,0.0,0.0,0.0,0.0,0.0,0.0,0.0,0.0,0.0,0.0,0.0,0.0,0.0,0.0,0.0,0.0,0.0,-3.313,-3.3018,-3.3836,-3.5496,-3.5507,-3.5509,-3.5502,-3.5581,-3.5593,-3.5693,-3.744,-3.9127,-4.079,-4.2106,-4.2407,-4.2302,-4.4054,-4.4442,-4.4331,0.0,-1.6866,0.0,0.0,-1.6355,0.0,-1.631,-1.6588,-1.719,-1.8295,-1.8574,-1.8628,-1.8534,-1.8626,-1.8771,-1.8941,-1.8927,-1.8995,-1.9204,-1.9127,-1.913,-1.9274,-2.0202,-2.0919,-2.14,-2.2439,-2.2621,0.0,0.0,0.0,0.0,0.0,0.0,0.0,0.0,0.0,0.0,0.0,-2.544,-2.5955,-2.6961,-2.7535,-2.7889,-2.8626,-2.8881,-2.8855,-2.9039,-2.9541,-3.0114,-3.019,-3.0228,-3.026,-3.0247,-3.0299,-3.0369,-3.0451,-3.0432,-3.0349,-3.0388,-3.0324,-3.0241,-3.0169,-3.0128,-3.0138,-3.0075,-3.0166,-3.0221,-3.0155,-3.0155,-3.0128,-2.9992,-2.9484,0.0,0.0,0.0,0.0,0.0,0.0,0.0,0.0,0.0,0.0,0.0,0.0,0.0,0.0,0.0,0.0,0.0,0.0,0.0,0.0,0.0,-3.1751,-3.1116,0.0,-3.8112,0.0,-3.2769,-3.2883,-3.5438,-3.5479,-3.5504,-3.5512,-3.5512,-3.5647,-3.5993,-3.7623,-3.9142,-4.0642,-4.222,-4.2345,-4.188,-4.3846,-4.3923,-4.3343,0.0,0.0,0.0,0.0,0.0,0.0,-1.6231,-1.6445,-1.685,-1.7761,-1.789,-1.7911,-1.7971,-1.7992,-1.8035,-1.8197,-1.8235,-1.8371,-1.8565,-1.8623,-1.8715,-1.8861,-1.9649,-2.0116,-2.017,-2.1684,-2.2104,0.0,0.0,0.0,0.0,0.0,0.0,0.0,0.0,0.0,0.0,-2.4924,-2.6306,-2.8244,-2.6832,-2.7157,-2.8518,-2.8609,-2.8628,-2.8723,-2.9463,-2.9767,-2.9841,-2.9841,-2.9965,-3.0122,-3.0122,-3.0122,-3.0128,-3.0138,-3.0176,-3.018,-3.0075,-2.9946,-2.987,-2.9912,-2.9931,-2.995,-3.0007,-3.0007,-3.0041,-3.0022,-3.0022,-2.9992,-2.9918,-2.9744,-2.9597,0.0,0.0,0.0,0.0,0.0,0.0,0.0,0.0,0.0,0.0,-2.5679,0.0,0.0,0.0,0.0,0.0,0.0,0.0,-3.1059,0.0,-3.2387,-3.3374,-3.5105,-3.5816,-3.5488,-3.5181,-3.5081,-3.524,-3.5432,-3.5508,-3.5489,-3.5489,-3.6085,-3.7145,-3.8589,-3.97,-4.0585,-4.1546,-4.1465,-4.1107,-4.3595,-4.3528,-4.2568,0.0,0.0,0.0,0.0,0.0,0.0,0.0,-1.6256,-1.6564,-1.6912,-1.728,-1.7516,-1.7539,-1.7653,-1.7805,-1.8027,-1.7919,-1.8027,-1.8465,-1.8252,-1.8273,-1.8619,-1.9664,-2.0332,-2.0477,-2.202,-2.2495,0.0,0.0,0.0,0.0,0.0,0.0,0.0,0.0,-2.4384,-2.5396,-2.5951,-2.6795,-2.7648,-2.6449,-2.6376,-2.6975,-2.6977,-2.6942,-2.6962,-2.7281,-2.805,-2.8838,-2.8351,-2.8942,-2.9921,-2.9921,-2.9921,-2.9937,-2.9969,-2.9969,-2.9969,-2.9934,-2.9842,-2.9753,-2.9761,-2.9784,-2.9786,-2.9805,-2.9891,-2.994,-2.994,-2.9888,-2.9769,-2.9626,-2.9532,-2.9457,0.0,0.0,0.0,0.0,0.0,0.0,0.0,0.0,0.0,0.0,0.0,0.0,0.0,0.0,0.0,0.0,0.0,0.0,-2.9966,0.0,-3.2819,-3.3633,-3.4764,-3.532,-3.5339,-3.7414,-3.726,-3.5215,-3.5411,-3.5415,-3.5431,-3.7494,-3.83,-3.8258,-3.9519,-4.0531,-4.1373,-4.2239,-4.211,-4.1605,-4.311,-4.2955,-4.2208,-1.6428,0.0,-1.7093,0.0,-1.6192,-1.6177,-1.5839,-1.6024,-1.6219,-1.6274,-1.6686,-1.7002,-1.706,-1.7199,-1.7498,-1.8065,-1.7973,-1.8149,-1.8862,-1.8608,-1.8563,-1.8841,-1.9992,0.0,-2.0958,-2.2297,-2.2814,-2.2412,-2.1666,0.0,0.0,0.0,0.0,0.0,-2.4017,-2.4813,-2.5559,-2.6228,-2.6693,-2.6915,-2.5835,-2.5537,-2.5741,-2.5742,-2.5873,-2.6097,-2.6339,-2.7363,-2.8501,-2.7942,-2.8596,-2.9664,-2.9719,-2.9737,-2.9755,-2.9823,-2.9822,-2.9784,-2.9841,-2.9767,-2.9713,-2.9699,-2.9682,-2.9683,-2.9645,-2.9701,-2.9755,-2.9718,-2.9664,-2.9551,-2.9368,-2.9307,-2.9275,-2.9153,0.0,0.0,0.0,0.0,0.0,0.0,-2.7201,-2.6779,-2.4818,0.0,0.0,0.0,0.0,0.0,0.0,0.0,0.0,0.0,0.0,0.0,0.0,-3.4818,-3.52,-3.5235,-3.7651,-3.7536,-3.5193,-3.535,-3.5867,-3.6856,-3.978,-4.0641,-4.0008,-4.0619,-4.1058,-4.1498,-4.261,-4.2396,-4.1674,-4.3233,-4.298,-4.2067,-1.7014,-1.7098,-1.714,-1.6585,-1.6114,-1.5811,-1.5796,-1.5739,-1.5782,-1.5968,-1.6123,-1.6289,-1.6501,-1.6512,-1.7008,-1.8273,-1.846,-1.8885,-1.9832,-1.9951,-1.9883,0.0,0.0,-2.1232,-2.1293,-2.2272,-2.2825,-2.2902,0.0,0.0,-2.228,0.0,-2.2023,-2.2832,-2.358,-2.444,-2.5307,-2.5326,-2.5884,-2.6651,-2.493,-2.4708,-2.5409,-2.5332,-2.5887,-2.6796,-2.7588,-2.8484,-2.9275,-2.9275,-2.9275,-2.9334,-2.9531,-2.9607,-2.9607,-2.9664,-2.9701,-2.9701,-2.9701,-2.9701,-2.9701,-2.9701,-2.9645,-2.9588,-2.9531,-2.9453,-2.9392,-2.9314,-2.937,-2.9347,-2.924,-2.9255,-2.9233,-2.9016,0.0,0.0,0.0,0.0,0.0,0.0,-2.9777,-2.972,-2.7103,0.0,0.0,0.0,0.0,0.0,0.0,0.0,0.0,-3.2651,-3.2722,0.0,-3.5171,-3.519,-3.5212,-3.52,-3.525,-3.5229,-3.5207,-3.5207,-3.7034,-4.0317,-4.2024,-4.2753,-4.2696,-4.1968,-4.1182,-4.0588,-4.2237,-4.1927,-4.0924,-4.4246,-4.3917,-4.2162,-1.6207,-1.6073,-1.606,-1.5806,-1.5301,-1.5029,-1.527,-1.53,-1.5419,-1.5754,-1.5839,-1.5981,-1.6313,-1.6394,-1.6675,0.0,-1.7583,-1.8033,0.0,-1.8974,-1.9223,-1.9476,-2.0167,-2.0615,-2.0838,-2.1847,-2.2429,-2.2483,0.0,0.0,0.0,-2.1925,-2.2661,-2.41,-2.4284,-2.4928,-2.581,-2.5208,-2.5183,-2.5476,-2.4358,-2.4085,-2.4304,-2.4283,-2.4468,-2.4762,-2.4999,-2.5987,-2.72,-2.72,-2.7999,-2.903,-2.9104,-2.9272,-2.9471,-2.9491,-2.9531,-2.9569,-2.9569,-2.9569,-2.955,-2.9511,-2.9491,-2.9453,-2.9373,-2.9353,-2.9312,-2.9246,-2.9243,-2.9218,-2.9085,-2.9062,-2.9062,-2.9003,-2.9012,0.0,0.0,0.0,0.0,0.0,-2.783,-2.7698,0.0,-2.6079,0.0,0.0,0.0,0.0,0.0,0.0,0.0,0.0,-3.2679,0.0,-3.519,-3.5802,-3.6167,-3.6339,-3.5579,-3.5202,-3.5186,-3.5207,-3.707,-4.0444,-4.3293,-4.4499,-4.4441,-4.3407,-4.3005,-4.3042,-4.3579,-4.3118,-4.2272,-4.3328,-4.3232,-4.2673,-1.5996,-1.5819,-1.5747,-1.5702,-1.5035,-1.4596,-1.4876,-1.4859,-1.4951,-1.5315,-1.5404,-1.5594,-1.5994,-1.6093,0.0,-1.754,-1.7864,-1.8397,-1.9281,-1.9471,-1.965,-1.9906,-2.0295,-2.0613,-2.0852,0.0,0.0,-2.2124,-2.1985,-2.1978,-2.2118,-2.2227,-2.2915,-2.4045,-2.3996,-2.436,-2.4956,-2.4391,-2.4247,-2.4347,-2.3862,-2.3642,-2.3642,-2.362,-2.3822,-2.4154,-2.4419,-2.5396,-2.6622,-2.6911,-2.7786,-2.87,-2.8713,-2.8879,-2.9097,-2.9312,-2.9394,-2.9414,-2.9414,-2.9414,-2.9414,-2.9373,-2.9372,-2.9349,-2.9246,-2.9185,-2.9141,-2.9134,-2.913,-2.9104,-2.9017,-2.8994,-2.8994,-2.8994,-2.8994,-2.8994,-2.8994,0.0,0.0,0.0,0.0,0.0,0.0,-2.7207,-2.78,0.0,0.0,0.0,0.0,0.0,0.0,-3.1932,-3.3554,0.0,-3.6126,-3.668,-3.7139,-3.7538,-3.7254,-3.7106,-3.7165,-3.8422,-4.0158,-4.2298,-4.4401,-4.5302,-4.5227,-4.4537,-4.4135,-4.3982,-4.4097,-4.3618,-4.2947,-4.3599,-4.3637,-4.3425,-1.6358,-1.6146,0.0,0.0,-1.5168,0.0,-1.4564,-1.4465,-1.4493,-1.4777,-1.4904,-1.512,-1.5536,-1.5668,-1.6588,-1.8728,0.0,0.0,0.0,-2.0991,-2.0893,-2.0794,-2.0893,-2.1055,-2.1246,-2.1542,-2.1708,-2.1797,-2.1998,-2.2136,-2.2275,-2.2544,-2.2747,-2.2952,-2.2902,-2.2977,-2.3168,-2.3119,-2.3193,-2.336,-2.336,-2.336,-2.336,-2.3289,-2.3803,-2.4652,-2.5344,-2.6229,-2.7194,-2.8003,-2.8308,-2.8388,-2.8388,-2.844,-2.8576,-2.9101,-2.9251,-2.9272,-2.9272,-2.9272,-2.9293,-2.9293,-2.9267,-2.9259,-2.913,-2.8998,-2.8929,-2.8994,-2.9007,-2.9002,-2.9012,-2.8994,-2.8994,-2.8994,-2.8994,-2.8994,-2.8994,0.0,0.0,0.0,0.0,0.0,0.0,-2.9927,-3.0344,0.0,0.0,0.0,0.0,0.0,-3.0752,-3.4848,-3.5077,-3.5969,-3.7675,-3.7733,-3.8094,-3.8722,-3.9789,-4.0306,-4.0405,-4.377,-4.5304,-4.5303,-4.5301,-4.53,-4.53,-4.53,-4.4669,-4.3731,-4.3997,-4.3597,-4.3082,-4.4709,-4.4824,-4.4288,0.0,0.0,-1.5423,-1.5647,-1.4799,-1.4092,-1.4254,-1.4176,-1.4273,-1.4746,-1.4735,-1.4876,-1.5315,-1.5752,-1.6522,-1.7817,-1.8223,-1.8781,-1.9685,-2.0247,-2.0543,-2.0491,-2.0561,-2.0695,-2.0843,-2.1151,-2.1479,-2.1797,-2.184,-2.1899,-2.1911,-2.2141,-2.2292,-2.2402,-2.2642,-2.2816,-2.2893,-2.2944,-2.2952,-2.302,-2.302,-2.302,-2.302,-2.2995,-2.3125,-2.342,-2.426,-2.5068,-2.5869,-2.6735,-2.7546,-2.8164,-2.8164,-2.83,-2.8466,-2.8651,-2.8821,-2.8984,-2.8984,-2.9115,-2.9203,-2.9178,-2.9112,-2.9062,-2.904,-2.9017,-2.8994,-2.8994,-2.8994,-2.8989,-2.8983,-2.8989,-2.8994,-2.8983,-2.9002,-2.9007,-2.8994,-2.9008,0.0,0.0,-2.9921,-3.0331,-3.001,-3.0632,-3.1572,0.0,0.0,0.0,0.0,-3.4284,-3.4027,-3.4812,-3.6039,-3.6971,-3.7547,-3.8175,-3.8956,-3.989,-4.0176,-4.0291,-4.0425,-4.3752,-4.5283,-4.5298,-4.5298,-4.5298,-4.5298,-4.5298,-4.5145,-4.4916,-4.4972,-4.4456,-4.3769,-4.419,-4.4209,-4.4076,-1.6491,-1.5671,-1.5018,-1.5374,-1.4533,-1.3828,-1.4013,-1.4046,-1.413,-1.4447,-1.4465,-1.4721,-1.5364,-1.5723,-1.6426,-1.7622,-1.8115,-1.8715,-1.9602,-2.0001,-2.0285,-2.0388,-2.0407,-2.046,-2.061,-2.0794,-2.1007,-2.1309,-2.1433,-2.1526,-2.1587,-2.1764,-2.1924,-2.2068,-2.2215,-2.2326,-2.2436,-2.2517,-2.2579,-2.2674,-2.2781,-2.2868,-2.292,-2.2868,-2.3163,-2.3676,-2.4382,-2.5143,-2.5882,-2.6743,-2.7373,-2.7824,-2.7824,-2.7893,-2.7989,-2.8017,-2.8344,-2.8694,-2.8761,-2.8839,-2.8929,-2.8952,-2.8947,-2.8923,-2.8923,-2.8881,-2.8881,-2.8905,-2.8881,-2.8834,-2.8822,-2.8883,-2.8937,-2.8973,-2.8986,-2.8967,-2.8839,-2.8934,0.0,-2.9672,-3.0079,-3.0391,-3.0631,-3.1704,-3.2792,-3.3733,-3.4154,0.0,-3.6408,-3.6472,-3.6447,-3.6314,-3.7201,-3.7954,-3.8627,-3.9164,-3.9719,-4.031,-4.031,-4.0292,-4.0406,-4.377,-4.5302,-4.5298,-4.5317,-4.5297,-4.5297,-4.5297,-4.5297,-4.5297,-4.5297,-4.501,-4.459,-4.459,-4.459,-4.459,-1.5903,-1.5159,-1.4594,-1.4955,-1.4185,-1.3581,-1.3769,-1.3868,-1.3967,-1.4072,-1.417,-1.455,-1.5419,-1.5638,-1.6263,-1.7676,-1.8201,-1.8901,-1.9879,-1.994,-2.0025,-2.0235,-2.027,-2.0323,-2.046,-2.0494,-2.0561,-2.066,-2.0909,-2.1087,-2.1214,-2.1339,-2.1554,-2.1811,-2.1797,-2.184,-2.1969,-2.2027,-2.2168,-2.2377,-2.2521,-2.275,-2.2973,-2.2763,-2.3344,-2.4368,-2.5032,-2.5675,-2.6323,-2.7187,-2.7496,-2.7496,-2.7496,-2.7496,-2.7496,-2.7496,-2.7847,-2.8291,-2.8484,-2.8587,-2.8637,-2.8737,-2.8804,-2.8785,-2.8785,-2.8761,-2.8737,-2.8761,-2.8737,-2.8662,-2.8605,-2.8659,-2.8742,-2.8907,-2.8855,-2.8773,-2.8676,0.0,-2.9407,-3.0516,-3.0528,-3.0698,-3.1352,-3.2876,-3.3945,-3.4128,-3.5671,-3.6703,-3.6915,-3.7627,-3.8106,-3.8219,-3.8315,-3.8831,-3.9892,-4.0098,-4.0291,-4.0425,-4.0349,-4.0387,-4.0635,-4.333,-4.4823,-4.53,-4.5298,-4.5297,-4.5297,-4.5297,-4.5297,-4.5297,-4.5297,-4.5297,-4.5297,-4.5297,-4.5373,-4.5449,-1.4912,-1.4441,-1.3974,-1.3813,-1.3456,-1.322,-1.3297,-1.3501,-1.3728,-1.3908,-1.3941,-1.4266,-1.508,-1.5524,-1.62,-1.7293,-1.7925,-1.8545,-1.9199,-1.9457,-1.9603,-1.9639,-1.996,-2.0185,-2.0339,-2.0426,-2.0527,-2.0527,-2.0561,-2.0662,-2.0793,-2.0991,-2.115,-2.1325,-2.1587,-2.1724,-2.1738,-2.1811,-2.1953,-2.2145,-2.1995,-2.2525,-2.3304,-2.2507,-2.2782,-2.3796,-2.509,-2.5656,-2.5958,-2.7061,-2.7465,-2.7496,-2.7496,-2.7496,-2.7496,-2.7496,-2.7587,-2.7719,-2.8146,-2.8492,-2.8737,-2.8662,-2.8712,-2.8785,-2.8785,-2.8785,-2.8761,-2.8637,-2.8612,-2.8598,-2.8532,-2.8388,-2.8334,-2.8461,-2.8175,-2.8143,-2.8846,0.0,-2.9569,-3.1096,-3.1469,-3.181,-3.2255,-3.3716,-3.494,-3.5674,-3.6637,-3.7551,-3.8398,-3.8593,-3.8707,-3.8765,-3.8888,-3.9133,-3.9477,-3.9693,-4.0211,-4.1064,-4.0532,-4.0764,-4.1644,-4.1245,-4.262,-4.5317,-4.5297,-4.5297,-4.5297,-4.5297,-4.5297,-4.5297,-4.5297,-4.5297,-4.5297,-4.5297,-4.5736,-4.6214,-1.3891,-1.3604,-1.3332,-1.3366,-1.2999,-1.2791,-1.2975,-1.2953,-1.3069,-1.3378,-1.3826,-1.444,-1.5332,-1.5848,-1.6499,-1.7327,-1.7692,-1.7962,-1.8226,-1.8808,-1.9147,-1.9169,-1.953,-1.9833,-2.0131,-2.0304,-2.0392,-2.0392,-2.046,-2.0527,-2.0595,-2.0679,-2.0778,-2.0827,-2.1055,-2.1183,-2.1214,-2.1371,-2.1482,-2.1627,-2.2368,-2.3318,-2.4228,-2.351,-2.3927,-2.4912,-2.52,-2.572,-2.643,-2.7115,-2.7313,-2.7293,-2.7359,-2.739,-2.739,-2.739,-2.7496,-2.7642,-2.7876,-2.811,-2.8299,-2.8219,-2.8273,-2.8326,-2.8326,-2.8388,-2.8406,-2.8353,-2.8353,-2.8353,-2.8263,-2.8146,-2.8065,-2.8025,-2.9575,0.0,0.0,-2.7908,-2.9867,-3.2188,-3.2211,-3.2282,-3.292,-3.4058,-3.5089,-3.5939,-3.6784,-3.7729,-3.8695,-3.8792,-3.8822,-3.891,-3.9101,-3.9245,-3.935,-4.0008,-4.0589,-4.1037,-4.0753,-4.1003,-4.1688,-4.181,-4.3114,-4.5306,-4.5306,-4.529,-4.5297,-4.5298,-4.5298,-4.5297,-4.5298,-4.5298,-4.5297,-4.5298,-4.5528,-4.5793,-1.2962,-1.2788,-1.2721,-1.2823,-1.2514,-1.2365,-1.2675,-1.265,-1.2734,-1.3167,-1.3803,-1.4614,-1.5579,-1.5944,-1.6494,-1.7368,-1.7393,-1.7434,-1.7488,-1.8121,-1.8577,-1.8717,-1.9087,-1.9435,-1.9777,-1.994,-2.008,-2.015,-2.0254,-2.0357,-2.0475,-2.0475,-2.0494,-2.0494,-2.061,-2.0677,-2.0728,-2.0893,-2.0989,-2.1164,-2.2459,-2.3802,-2.4911,-2.4182,-2.471,-2.5775,-2.5213,-2.5816,-2.686,-2.7078,-2.7141,-2.7122,-2.7186,-2.725,-2.725,-2.725,-2.7434,-2.763,-2.7659,-2.7771,-2.7897,-2.7869,-2.7869,-2.7897,-2.7897,-2.8131,-2.8337,-2.828,-2.8461,-2.8585,-2.8458,-2.8429,-2.8264,-2.7782,0.0,0.0,0.0,-2.7977,-3.0862,-3.3141,-3.3138,-3.3071,-3.3386,-3.437,-3.5248,-3.5836,-3.6723,-3.7668,-3.8603,-3.8701,-3.8743,-3.8803,-3.9073,-3.9192,-3.9192,-4.0214,-4.0867,-4.1105,-4.1124,-4.1412,-4.1964,-4.2731,-4.3842,-4.5109,-4.4829,-4.4725,-4.4756,-4.5145,-4.5298,-4.5297,-4.53,-4.4819,-4.4223,-4.5012,-4.5298,-4.5316,-1.2286,-1.2281,-1.2157,-1.1551,-1.166,-1.2005,-1.2429,-1.2892,-1.3324,-1.3785,-1.3982,-1.4489,-1.5502,-1.5262,-1.5632,-1.7092,-1.6934,-1.6947,-1.7363,-1.7529,-1.7801,-1.8228,-1.8693,-1.8997,-1.9176,-1.9176,-1.9347,-1.9762,-1.9747,-1.9975,-2.0423,-2.0423,-2.0441,-2.0494,-2.0527,-2.0527,-2.0527,-2.0527,-2.0665,-2.0872,-2.1537,-2.3104,-2.4847,-2.3526,-2.3879,-2.5078,-2.5026,-2.5758,-2.6719,-2.6722,-2.6894,-2.7078,-2.7041,-2.7055,-2.7103,-2.7103,-2.7233,-2.7345,-2.7465,-2.7683,-2.7869,-2.776,-2.78,-2.7897,-2.7897,-2.8481,-2.9001,-2.8868,-2.94,-2.9828,-2.9702,-2.9669,-2.9236,-2.7921,0.0,0.0,-2.851,-3.1048,-3.3158,-3.3369,-3.4663,-3.4993,-3.3637,-3.4891,-3.5848,-3.589,-3.6667,-3.7512,-3.8455,-3.8446,-3.8446,-3.8541,-3.8803,-3.8921,-3.8921,-3.9804,-4.0756,-4.1725,-4.179,-4.2318,-4.3259,-4.297,-4.3448,-4.4493,-4.3436,-4.2966,-4.3099,-4.466,-4.5298,-4.5297,-4.53,-4.3382,-4.1047,-4.4149,-4.5297,-4.5311,-1.1346,-1.1561,-1.1714,-1.127,-1.152,-1.1876,-1.207,-1.2278,-1.2653,-1.339,-1.3887,-1.4404,-1.5024,-1.5368,-1.5776,-1.6299,-1.6484,-1.6667,-1.6833,-1.7212,-1.7666,-1.8242,-1.8254,-1.8436,-1.8707,-1.8884,-1.9058,-1.9207,-1.9406,-1.9675,-1.999,-2.0523,-2.0865,-2.1007,-2.1461,-2.1667,-2.1667,-2.1409,-2.1044,-2.0786,-2.2717,-2.4094,-2.4946,-2.4411,-2.453,-2.4981,-2.4986,-2.5276,-2.5689,-2.5924,-2.6189,-2.6415,-2.6435,-2.6539,-2.6691,-2.6825,-2.6875,-2.694,-2.6989,-2.7261,-2.7526,-2.7465,-2.7496,-2.7648,-2.8119,-2.8481,-2.883,-2.9236,-2.9617,-2.9859,-2.981,-2.981,-2.9789,-2.9737,0.0,-3.082,-3.1474,-3.2627,-3.3395,-3.3386,-3.3924,-3.4872,-3.6273,-3.5768,-3.5693,-3.6517,-3.6862,-3.7421,-3.8332,-3.8401,-3.8415,-3.8446,-3.8541,-3.8652,-3.878,-3.9674,-4.0359,-4.082,-4.1378,-4.2135,-4.3006,-4.2875,-4.339,-4.4307,-4.3081,-4.2831,-4.3402,-4.4748,-4.5295,-4.5297,-4.53,-4.4532,-4.3573,-4.484,-4.5298,-4.5295,-1.0895,-1.1316,-1.1672,-1.1252,-1.1459,-1.1799,-1.2142,-1.2078,-1.2329,-1.326,-1.3795,-1.426,-1.4699,-1.5166,-1.5511,-1.57,-1.6008,-1.6238,-1.6392,-1.7002,-1.7556,-1.8003,-1.7868,-1.7895,-1.8187,-1.8422,-1.8662,-1.8924,-1.9248,-1.9631,-2.0101,-2.0752,-2.1205,-2.1519,-2.2017,-2.2293,-2.2368,-2.2055,-2.1705,-2.1425,-2.339,-2.439,-2.4784,-2.4941,-2.4979,-2.4988,-2.4816,-2.4791,-2.4844,-2.533,-2.5603,-2.5713,-2.5961,-2.6173,-2.6314,-2.6556,-2.659,-2.6624,-2.6691,-2.6908,-2.7137,-2.7186,-2.725,-2.7489,-2.823,-2.8608,-2.9021,-2.9782,-3.0214,-3.0421,-3.0421,-3.0421,-3.0593,-3.1155,-3.125,-3.1738,-3.319,-3.3394,-3.3394,-3.34,-3.4285,-3.5566,-3.7283,-3.6581,-3.6168,-3.658,-3.6852,-3.7374,-3.8238,-3.8322,-3.8336,-3.8336,-3.8368,-3.8433,-3.8564,-3.954,-4.0179,-4.051,-4.141,-4.2187,-4.2797,-4.2797,-4.3167,-4.3772,-4.2707,-4.2859,-4.3882,-4.445,-4.4931,-4.5309,-4.5292,-4.5295,-4.5297,-4.5298,-4.5297,-4.5295,-1.1091,-1.1699,-1.2024,-1.1482,-1.1387,-1.1704,-1.2679,-1.2511,-1.2684,-1.3648,-1.3821,-1.4035,-1.4617,-1.4398,-1.4582,-1.5501,-1.5513,-1.5691,-1.6156,-1.682,-1.7253,-1.7363,-1.7461,-1.7516,-1.7529,-1.7638,-1.8126,-1.9017,-1.9252,-1.9932,-2.0986,-2.1123,-2.1461,-2.1909,-2.1909,-2.2041,-2.2301,-2.2301,-2.2578,-2.3025,-2.3156,-2.3652,-2.4353,-2.4811,-2.5001,-2.493,-2.4471,-2.4293,-2.4398,-2.5067,-2.5179,-2.5099,-2.5689,-2.5954,-2.6046,-2.6314,-2.6383,-2.6453,-2.6624,-2.6691,-2.6725,-2.6942,-2.7154,-2.7489,-2.823,-2.8989,-2.9748,-3.0524,-3.1282,-3.18,-3.18,-3.18,-3.1787,-3.1794,-3.2267,-3.2755,-3.3315,-3.3416,-3.3398,-3.3388,-3.6214,-3.7562,-3.5981,-3.7239,-3.7526,-3.5946,-3.6544,-3.7341,-3.8156,-3.8192,-3.8192,-3.8192,-3.8274,-3.8307,-3.8307,-3.9287,-4.0267,-4.1199,-4.2129,-4.2662,-4.2797,-4.2797,-4.2816,-4.276,-4.2174,-4.2801,-4.4261,-4.3646,-4.4159,-4.5299,-4.5308,-4.5303,-4.5297,-4.5314,-4.529,-4.5287,-1.0619,-1.1459,-1.2082,-1.1548,-1.1812,-1.2213,-1.261,-1.2584,-1.2741,-1.3443,-1.3515,-1.3705,-1.414,-1.4104,-1.4233,-1.4743,-1.5051,-1.5412,-1.5901,-1.6107,-1.6238,-1.6281,-1.7005,-1.7699,-1.8269,-1.8235,-1.8535,-1.9199,-1.9418,-1.9775,-2.023,-2.0998,-2.1499,-2.1783,-2.2364,-2.2842,-2.322,-2.3119,-2.339,-2.3933,-2.3948,-2.4112,-2.4338,-2.4467,-2.4523,-2.4508,-2.4333,-2.4281,-2.434,-2.4521,-2.4704,-2.4918,-2.5246,-2.5432,-2.5546,-2.5775,-2.5848,-2.5848,-2.5921,-2.6085,-2.6401,-2.6859,-2.7433,-2.8082,-2.8972,-2.9782,-3.0558,-3.1317,-3.1645,-3.18,-3.18,-3.18,-3.1839,-3.2056,-3.2074,-3.2231,-3.2776,-3.3146,-3.3113,-3.2358,-3.3768,-3.552,-3.7298,-3.6521,-3.6203,-3.7005,-3.7326,-3.7698,-3.8174,-3.8192,-3.8192,-3.8192,-3.8225,-3.8225,-3.8225,-3.8624,-3.9264,-4.0148,-4.0987,-4.1816,-4.2612,-4.3121,-4.3476,-4.3596,-4.2797,-4.317,-4.4233,-4.3511,-4.3917,-4.5041,-4.5218,-4.5299,-4.5299,-4.5299,-4.5194,-4.5011,-1.048,-1.1278,-1.1873,-1.1598,-1.1914,-1.2332,-1.2659,-1.254,-1.2626,-1.3188,-1.3296,-1.3382,-1.3716,-1.3821,-1.3915,-1.414,-1.4605,-1.5062,-1.549,-1.578,-1.5978,-1.5978,-1.6635,-1.7286,-1.7761,-1.814,-1.857,-1.9152,-1.9619,-2.003,-2.0443,-2.1107,-2.1535,-2.1865,-2.2431,-2.2875,-2.3246,-2.3333,-2.358,-2.3955,-2.4216,-2.4288,-2.4288,-2.43,-2.4193,-2.4044,-2.4204,-2.4287,-2.4307,-2.4379,-2.4523,-2.4733,-2.4846,-2.495,-2.5084,-2.5339,-2.5416,-2.5416,-2.5492,-2.5663,-2.6007,-2.6821,-2.7521,-2.827,-2.9416,-3.0067,-3.0651,-3.1497,-3.1688,-3.1688,-3.18,-3.18,-3.1856,-3.2018,-3.1897,-3.1934,-3.2247,-3.258,-3.2528,-3.1879,-3.2371,-3.3547,-3.5474,-3.4446,-3.4761,-3.7398,-3.7667,-3.7863,-3.8192,-3.8192,-3.8192,-3.8192,-3.8192,-3.8192,-3.8192,-3.8289,-3.8933,-4.0127,-4.0653,-4.1577,-4.2879,-4.303,-4.3336,-4.3777,-4.2918,-4.3087,-4.3943,-4.352,-4.3799,-4.4449,-4.4702,-4.4802,-4.482,-4.5066,-4.5041,-4.4895,-1.0519,-1.1006,-1.146,-1.1564,-1.1809,-1.2177,-1.2716,-1.2444,-1.2385,-1.2929,-1.3036,-1.3113,-1.3372,-1.3515,-1.3621,-1.3773,-1.4244,-1.4662,-1.4971,-1.5637,-1.6009,-1.6056,-1.6268,-1.6435,-1.6498,-1.7591,-1.8401,-1.893,-1.9813,-2.0574,-2.118,-2.1277,-2.1589,-2.2002,-2.2128,-2.2374,-2.2649,-2.2965,-2.3216,-2.3378,-2.3966,-2.4187,-2.4245,-2.4172,-2.3917,-2.3591,-2.4058,-2.4231,-2.4254,-2.4374,-2.4523,-2.4589,-2.4589,-2.4589,-2.467,-2.4989,-2.5068,-2.5107,-2.5342,-2.5436,-2.5728,-2.6913,-2.7524,-2.8222,-2.9681,-3.0053,-3.0383,-3.1287,-3.1479,-3.1555,-3.1726,-3.1763,-3.1763,-3.1763,-3.1763,-3.1768,-3.1776,-3.1808,-3.179,-3.1791,-3.1812,-3.1793,-3.1777,-3.2034,-3.3663,-3.722,-3.7578,-3.7739,-3.8106,-3.814,-3.8158,-3.8158,-3.8174,-3.8192,-3.8192,-3.8192,-3.9037,-4.068,-4.068,-4.164,-4.3351,-4.2601,-4.2711,-4.3442,-4.2727,-4.2818,-4.3532,-4.3686,-4.3763,-4.3717,-4.3875,-4.3938,-4.398,-4.4589,-4.4824,-4.4823,-1.0027,-1.0442,-1.0939,-1.1446,-1.1653,-1.1828,-1.1959,-1.1846,-1.1975,-1.2412,-1.248,-1.2666,-1.317,-1.3266,-1.3362,-1.3621,-1.3858,-1.4057,-1.4244,-1.4388,-1.4616,-1.4996,-1.5519,-1.598,-1.6328,-1.7445,-1.8396,-1.9037,-1.9982,-2.0581,-2.0799,-2.0974,-2.1073,-2.1158,-2.1375,-2.165,-2.1969,-2.176,-2.2098,-2.2859,-2.3127,-2.3363,-2.3555,-2.3287,-2.3154,-2.3109,-2.3402,-2.3593,-2.3739,-2.3788,-2.4127,-2.4482,-2.442,-2.4461,-2.463,-2.467,-2.471,-2.4836,-2.5456,-2.5746,-2.6195,-2.7535,-2.8078,-2.8559,-2.9727,-3.0514,-3.0987,-3.1196,-3.1286,-3.1269,-3.1308,-3.1346,-3.1385,-3.1555,-3.1555,-3.1596,-3.1768,-3.1802,-3.1802,-3.1808,-3.1787,-3.18,-3.1812,-3.393,-3.5675,-3.6527,-3.6851,-3.7129,-3.7376,-3.7667,-3.7828,-3.7828,-3.8054,-3.8192,-3.8192,-3.8192,-3.8715,-3.9692,-3.9692,-4.0631,-4.2318,-4.2102,-4.2538,-4.3479,-4.3208,-4.3245,-4.3479,-4.3532,-4.3689,-4.3812,-4.3575,-4.3324,-4.3237,-4.3942,-4.4203,-4.4195,-0.9617,-0.9884,-1.0306,-1.0931,-1.1217,-1.1418,-1.1669,-1.1728,-1.1778,-1.1977,-1.2175,-1.2421,-1.2745,-1.2997,-1.3238,-1.3467,-1.3573,-1.3762,-1.4136,-1.4366,-1.4702,-1.5226,-1.5588,-1.5902,-1.631,-1.712,-1.7955,-1.8821,-1.9585,-2.0131,-2.0347,-2.0461,-2.0511,-2.0562,-2.0785,-2.1019,-2.1251,-2.126,-2.1519,-2.189,-2.2211,-2.2452,-2.2646,-2.2429,-2.2388,-2.2435,-2.2656,-2.3084,-2.3538,-2.3681,-2.4028,-2.4403,-2.4296,-2.4364,-2.4462,-2.4451,-2.4492,-2.472,-2.5419,-2.569,-2.613,-2.7643,-2.8063,-2.8478,-2.9725,-3.0327,-3.0692,-3.0992,-3.1072,-3.1072,-3.119,-3.119,-3.1286,-3.1479,-3.1462,-3.1483,-3.1763,-3.1746,-3.1709,-3.18,-3.18,-3.2372,-3.3831,-3.5371,-3.6301,-3.6312,-3.6474,-3.6755,-3.717,-3.7394,-3.7504,-3.7649,-3.781,-3.8003,-3.8088,-3.8088,-3.8339,-3.8826,-3.9568,-4.0582,-4.1869,-4.2232,-4.2687,-4.3232,-4.3142,-4.3142,-4.3232,-4.3304,-4.3376,-4.3414,-4.3394,-4.319,-4.2947,-4.3314,-4.3505,-4.3527,-0.9311,-0.9409,-0.9665,-1.0297,-1.0651,-1.0905,-1.1318,-1.1418,-1.1477,-1.1569,-1.1877,-1.2126,-1.2175,-1.2578,-1.2988,-1.3339,-1.3339,-1.3628,-1.4296,-1.4676,-1.5151,-1.5735,-1.58,-1.5941,-1.6298,-1.6709,-1.7397,-1.8321,-1.901,-1.954,-1.9875,-1.999,-2.0042,-2.0182,-2.0422,-2.051,-2.056,-2.1019,-2.1051,-2.0882,-2.1376,-2.1623,-2.1746,-2.1793,-2.1846,-2.1918,-2.2011,-2.2589,-2.3304,-2.3613,-2.3936,-2.4157,-2.4104,-2.4189,-2.4334,-2.4414,-2.4513,-2.4797,-2.5558,-2.5775,-2.6156,-2.7623,-2.7981,-2.8304,-2.952,-2.9886,-3.006,-3.0568,-3.0708,-3.079,-3.0935,-3.1032,-3.1151,-3.1346,-3.1291,-3.1351,-3.1634,-3.1596,-3.1579,-3.1671,-3.186,-3.3076,-3.5924,-3.6219,-3.6239,-3.622,-3.6284,-3.6531,-3.7017,-3.7111,-3.7243,-3.7466,-3.7503,-3.7667,-3.7915,-3.7915,-3.8002,-3.8176,-3.9588,-4.0691,-4.1542,-4.2194,-4.2629,-4.2882,-4.2882,-4.2882,-4.292,-4.3087,-4.305,-4.2956,-4.3287,-4.3215,-4.2923,-4.2923,-4.2904,-4.299,-0.9152,-0.9228,-0.937,-0.9658,-0.9888,-0.9999,-1.0051,-1.0308,-1.0616,-1.0972,-1.1175,-1.1368,-1.1728,-1.1828,-1.2214,-1.3074,-1.3154,-1.3542,-1.4403,-1.4536,-1.4777,-1.5275,-1.5395,-1.5745,-1.6394,-1.6543,-1.694,-1.7526,-1.8658,-1.9331,-1.9488,-1.9823,-1.999,-2.0042,-2.0182,-2.0233,-2.0283,-2.0334,-2.0459,-2.0683,-2.0979,-2.1251,-2.1471,-2.1712,-2.1793,-2.1827,-2.1827,-2.2212,-2.2747,-2.296,-2.3319,-2.3628,-2.3213,-2.3649,-2.4371,-2.4864,-2.5101,-2.5428,-2.6489,-2.6979,-2.735,-2.8121,-2.8354,-2.8465,-2.8935,-2.9335,-2.9605,-2.9694,-2.9913,-3.0146,-3.0146,-3.0401,-3.0692,-3.0952,-3.0952,-3.1032,-3.1269,-3.1269,-3.1269,-3.1269,-3.2087,-3.3464,-3.5486,-3.5848,-3.5933,-3.5942,-3.6172,-3.635,-3.6409,-3.6696,-3.6856,-3.6913,-3.7111,-3.7394,-3.7649,-3.7649,-3.7739,-3.7952,-3.894,-3.9842,-4.0691,-4.0782,-4.1578,-4.2882,-4.2882,-4.2882,-4.2882,-4.292,-4.2994,-4.3067,-4.3012,-4.3031,-4.3068,-4.2939,-4.2905,-4.2923,-0.8844,-0.8949,-0.9061,-0.9316,-0.942,-0.9532,-0.9681,-0.9895,-1.0058,-1.0257,-1.0718,-1.1074,-1.1217,-1.1528,-1.193,-1.2532,-1.262,-1.3106,-1.4189,-1.4282,-1.4642,-1.5422,-1.5545,-1.5749,-1.6239,-1.6296,-1.6465,-1.6819,-1.7675,-1.8309,-1.8673,-1.9028,-1.9303,-1.946,-1.972,-1.9862,-1.9862,-2.0029,-2.0182,-2.0271,-2.0586,-2.0785,-2.0947,-2.1082,-2.1242,-2.1304,-2.152,-2.1623,-2.1785,-2.2328,-2.2824,-2.3169,-2.2981,-2.3171,-2.3774,-2.4987,-2.5122,-2.5183,-2.6434,-2.6844,-2.7106,-2.7773,-2.794,-2.7974,-2.8155,-2.8446,-2.8826,-2.938,-2.9621,-2.9798,-2.9973,-3.0103,-3.0359,-3.0831,-3.0831,-3.0855,-3.1151,-3.1151,-3.1263,-3.1782,-3.2975,-3.3972,-3.4601,-3.5246,-3.5637,-3.5637,-3.5742,-3.582,-3.5915,-3.6131,-3.6343,-3.6492,-3.6713,-3.6974,-3.7299,-3.7299,-3.7374,-3.7522,-3.8061,-3.8834,-3.9823,-4.0745,-4.1578,-4.2248,-4.2701,-4.2882,-4.2882,-4.2882,-4.2938,-4.2994,-4.2938,-4.2938,-4.2994,-4.2938,-4.2884,-4.2886]}]]